Date StartTime U_cm/s V_cm/s W_cm/s Ustd_cm/s Vstd_cm/s Wstd_cm/s Uvar_(cm/s)^2 Vvar_(cm/s)^2 Wvar_(cm/s)^2 KE_(m/s)^2 TurbulentKE_(m/s)^2 HorizWindSpeed_cm/s FrictionSpeec_cm/s DragCoef SpeedOfSound_m/s SonicTemperature_C Pressure_mb 
08/17/2014  00:00:00      -30.754       21.232        4.126       23.367       12.984       13.026      545.994      168.588      169.680        0.115        0.044       37.371        7.245        0.038      345.485       23.050      864.502
08/17/2014  00:01:00      -18.624        7.249        2.005       30.300       14.520       11.370      918.097      210.828      129.279        0.083        0.063       19.985       11.736        0.345      345.522       23.112      864.503
08/17/2014  00:02:00       15.617       23.856        1.788       25.936       19.232       11.827      672.654      369.853      139.881        0.100        0.059       28.513       12.560        0.194      345.527       23.122      864.517
08/17/2014  00:03:00       28.563       63.545       -3.237       23.683       22.889       16.852      560.875      523.907      283.979        0.312        0.068       69.669        9.129        0.017      345.109       22.406      864.525
08/17/2014  00:04:00       84.666       55.076       13.655       42.003       24.246       22.725     1764.228      587.869      516.437        0.663        0.143      101.003        8.724        0.007      345.090       22.372      864.539
08/17/2014  00:05:00       60.893       36.364        7.445       36.256       24.486       17.831     1314.518      599.585      317.954        0.366        0.112       70.924       16.816        0.056      344.988       22.197      864.550
08/17/2014  00:06:00       50.222       31.615       11.269       33.684       22.995       15.911     1134.595      528.784      253.148        0.278        0.096       59.345       13.088        0.049      344.841       21.946      864.557
08/17/2014  00:07:00       -4.470       82.015      -14.914       40.903       50.696       15.755     1673.088     2570.071      248.225        0.573        0.225       82.136       18.153        0.049      345.389       22.885      864.562
08/17/2014  00:08:00      -68.289       31.374      -13.899       18.426       38.402       17.086      339.529     1474.729      291.915        0.397        0.105       75.151       21.901        0.085      345.186       22.537      864.575
08/17/2014  00:09:00      -22.666       75.133       -5.947       29.972       35.404       21.682      898.314     1253.420      470.099        0.441        0.131       78.477       21.939        0.078      345.241       22.630      864.583
08/17/2014  00:10:00      -38.681       90.564      -14.778       23.371       37.628       16.126      546.213     1415.885      260.042        0.607        0.111       98.479       17.575        0.032      345.077       22.349      864.585
08/17/2014  00:11:00      -29.346      107.273      -17.289       25.405       35.756       23.743      645.399     1278.497      563.736        0.758        0.124      111.214       16.502        0.022      345.253       22.652      864.568
08/17/2014  00:12:00      -86.428       19.358      -14.428       30.647       42.036       23.043      939.222     1767.034      530.988        0.564        0.162       88.569       21.128        0.057      345.107       22.402      864.562
08/17/2014  00:13:00      -55.890        9.340       -4.476       23.784       20.563       14.770      565.661      422.850      218.165        0.222        0.060       56.665       10.850        0.037      345.067       22.333      864.562
08/17/2014  00:14:00      -99.283      -15.310       -9.865       22.300       20.807       11.891      497.282      432.916      141.391        0.563        0.054      100.456        9.415        0.009      345.081       22.357      864.563
08/17/2014  00:15:00      -96.756      -15.845       -6.019       15.247       17.414       11.113      232.475      303.259      123.500        0.515        0.033       98.045        6.216        0.004      345.074       22.345      864.560
08/17/2014  00:16:00      -73.965      -16.233       -6.970       11.174       18.437       11.381      124.859      339.905      129.536        0.319        0.030       75.725        5.862        0.006      345.094       22.382      864.556
08/17/2014  00:17:00      -84.650       16.974      -13.521       13.971       10.046        7.422      195.200      100.927       55.079        0.399        0.018       86.335        7.252        0.007      345.109       22.405      864.575
08/17/2014  00:18:00      -50.381       11.976       -3.642       16.405       12.294        8.650      269.136      151.150       74.817        0.159        0.025       51.785        3.540        0.005      345.078       22.352      864.589
08/17/2014  00:19:00      -51.386        1.848       -3.166       18.579       23.080       14.265      345.165      532.673      203.484        0.187        0.054       51.419       12.925        0.063      345.159       22.491      864.584
08/17/2014  00:20:00      -34.553       15.195       -7.259       19.428       14.283       10.185      377.462      204.010      103.730        0.108        0.034       37.746        6.635        0.031      345.113       22.412      864.589
08/17/2014  00:21:00      -18.684       -1.543       -1.065       11.539       10.598        6.032      133.138      112.312       36.380        0.032        0.014       18.748        4.152        0.049      345.081       22.356      864.602
08/17/2014  00:22:00       -6.576      -18.125       -1.144        8.990       10.874        8.239       80.823      118.249       67.880        0.032        0.013       19.281        4.968        0.066      345.012       22.240      864.610
08/17/2014  00:23:00      -15.546       -9.637        1.474       12.468       12.198       11.673      155.462      148.792      136.262        0.039        0.022       18.291        7.415        0.164      344.928       22.095      864.614
08/17/2014  00:24:00      -40.624      -28.864       -0.082       19.102       13.440       11.225      364.879      180.627      125.995        0.158        0.034       49.834       10.720        0.046      345.058       22.317      864.624
08/17/2014  00:25:00      -17.907      -44.418        2.399       19.049       17.803       11.783      362.858      316.952      138.830        0.156        0.041       47.892        8.291        0.030      345.111       22.411      864.633
08/17/2014  00:26:00      -18.895      -45.984        8.368       31.152       29.568       18.944      970.420      874.271      358.873        0.237        0.110       49.715       20.724        0.174      345.219       22.594      864.633
08/17/2014  00:27:00      -49.007      -77.989        0.964       28.051       23.766       20.969      786.884      564.821      439.692        0.514        0.090       92.108       19.894        0.047      345.342       22.803      864.622
08/17/2014  00:28:00      -59.516      -73.885        5.077       22.759       29.682       17.575      517.978      881.031      308.869        0.537        0.085       94.875       16.807        0.031      345.319       22.764      864.613
08/17/2014  00:29:00      -19.419      -41.254        3.413       25.449       29.955       14.565      647.651      897.272      212.127        0.192        0.088       45.596       13.132        0.083      345.252       22.650      864.606
08/17/2014  00:30:00      -48.011      -67.570        5.288       22.740       35.128       14.836      517.099     1233.985      220.120        0.443        0.099       82.890       15.387        0.034      345.244       22.636      864.599
08/17/2014  00:31:00      -53.068      -42.613       11.149       37.849       28.315       24.118     1432.573      801.740      581.691        0.379        0.141       68.059       23.004        0.114      345.127       22.437      864.578
08/17/2014  00:32:00     -101.695     -123.963        1.708       50.223       49.701       30.906     2522.389     2470.163      955.188        1.583        0.297      160.339       30.536        0.036      345.319       22.763      864.568
08/17/2014  00:33:00     -104.223     -126.668       -0.013       62.673       72.392       33.588     3927.923     5240.563     1128.156        1.860        0.515      164.034       31.394        0.037      345.209       22.574      864.552
08/17/2014  00:34:00     -181.529     -101.719       -1.690       69.549       48.284       34.341     4837.100     2331.297     1179.271        2.582        0.417      208.086       31.274        0.023      345.129       22.436      864.562
08/17/2014  00:35:00     -120.525     -105.232       -6.789       67.193       63.386       36.094     4514.966     4017.745     1302.770        1.774        0.492      160.001       39.804        0.062      345.058       22.317      864.554
08/17/2014  00:36:00      -87.503      -78.152        2.990       73.925       43.279       35.220     5464.846     1873.109     1240.469        1.117        0.429      117.323       43.624        0.138      345.075       22.347      864.551
08/17/2014  00:37:00      -51.656      -40.672        3.576       34.783       27.476       17.047     1209.860      754.936      290.593        0.329        0.113       65.746       14.478        0.048      345.016       22.247      864.534
08/17/2014  00:38:00      -87.667      -61.602       -7.035       53.037       30.005       27.309     2812.936      900.274      745.780        0.799        0.223      107.146       28.556        0.071      345.066       22.334      864.547
08/17/2014  00:39:00      -26.622      -32.141        9.493       37.545       25.610       19.675     1409.604      655.892      387.108        0.214        0.123       41.734       19.793        0.225      344.945       22.123      864.548
08/17/2014  00:40:00      -30.906       27.016       -2.054       25.373       29.956       17.010      643.773      897.334      289.328        0.176        0.092       41.050       17.289        0.177      344.865       21.986      864.550
08/17/2014  00:41:00       25.415       36.172       14.823       16.520       16.258       18.136      272.903      264.325      328.915        0.152        0.043       44.208       14.779        0.112      344.732       21.759      864.554
08/17/2014  00:42:00        1.767       49.603       -9.090       20.928       19.184       25.975      438.002      368.025      674.705        0.201        0.074       49.635       11.031        0.049      344.609       21.550      864.571
08/17/2014  00:43:00       48.574       37.252        5.432       24.445       18.181       18.049      597.566      330.546      325.774        0.252        0.063       61.214       14.852        0.059      344.388       21.172      864.581
08/17/2014  00:44:00       25.224       14.242       13.764       22.825       13.510       11.449      520.989      182.533      131.069        0.093        0.042       28.967        5.063        0.031      344.249       20.932      864.588
08/17/2014  00:45:00       15.295       13.516       12.298       15.419       12.375       14.934      237.747      153.151      223.029        0.059        0.031       20.411       12.612        0.382      344.489       21.344      864.606
08/17/2014  00:46:00      -15.042       22.723       -2.442       11.725       10.173        7.592      137.479      103.492       57.644        0.052        0.015       27.251        7.555        0.077      344.790       21.858      864.617
08/17/2014  00:47:00      -40.421       23.655       -9.824       20.914        9.805        6.397      437.384       96.139       40.918        0.143        0.029       46.834        9.461        0.041      344.752       21.794      864.620
08/17/2014  00:48:00      -16.701       13.861        1.017       13.947        7.029        5.611      194.529       49.401       31.480        0.037        0.014       21.703        7.562        0.121      344.713       21.726      864.615
08/17/2014  00:49:00       29.926       34.595        9.961       12.509       11.294        8.771      156.464      127.545       76.934        0.128        0.018       45.742        5.792        0.016      344.896       22.040      864.612
08/17/2014  00:50:00       57.928       84.855        4.772       51.485       57.978       34.608     2650.751     3361.479     1197.699        0.889        0.360      102.743       16.970        0.027      344.927       22.093      864.606
08/17/2014  00:51:00      -16.760       47.570       -0.439       30.121       31.990       24.382      907.251     1023.381      594.461        0.253        0.126       50.436       20.981        0.173      344.884       22.020      864.601
08/17/2014  00:52:00       14.280       55.494        3.375       15.709       24.982       14.542      246.766      624.094      211.469        0.219        0.054       57.302        9.418        0.027      344.871       21.998      864.601
08/17/2014  00:53:00        1.996       17.621       -0.954       22.355       32.265       16.634      499.736     1041.023      276.679        0.107        0.091       17.733       20.745        1.369      344.775       21.833      864.611
08/17/2014  00:54:00        8.934       17.776       -2.469        7.882       19.117        9.050       62.124      365.460       81.897        0.046        0.025       19.895        5.349        0.072      344.584       21.504      864.629
08/17/2014  00:55:00       25.936       45.666        0.333       15.658       12.375       10.711      245.185      153.138      114.723        0.164        0.026       52.517        7.896        0.023      344.743       21.777      864.629
08/17/2014  00:56:00       25.062       32.205       -2.028        9.792       15.242       10.984       95.891      232.329      120.657        0.106        0.022       40.808        7.603        0.035      344.686       21.681      864.629
08/17/2014  00:57:00       50.762       39.080        7.561       35.726       21.758       15.134     1276.333      473.410      229.030        0.307        0.099       64.062       13.355        0.043      344.804       21.883      864.618
08/17/2014  00:58:00       48.156       15.360       11.736       18.847       17.938       18.357      355.212      321.760      336.968        0.185        0.051       50.547        9.925        0.039      344.575       21.493      864.608
08/17/2014  00:59:00       38.462        0.522       15.015       28.178       13.997       12.076      794.023      195.918      145.831        0.142        0.057       38.465        5.899        0.024      344.426       21.238      864.604
08/17/2014  01:00:00       19.549       19.095       15.887       24.353       11.399       10.782      593.055      129.929      116.254        0.092        0.042       27.327       11.636        0.181      344.449       21.275      864.610
08/17/2014  01:01:00       48.451       12.590       -1.649       13.594       11.067        9.077      184.793      122.483       82.390        0.145        0.019       50.060        6.031        0.015      344.533       21.421      864.625
08/17/2014  01:02:00       -4.642       11.754       -9.330       22.779       15.199        9.676      518.900      231.002       93.622        0.054        0.042       12.637       12.788        1.024      344.607       21.545      864.641
08/17/2014  01:03:00      -11.738       15.030       -3.030       22.374       19.159       13.105      500.613      367.054      171.741        0.071        0.052       19.070       13.310        0.487      344.456       21.289      864.640
08/17/2014  01:04:00      -56.375       -0.535       -5.708       20.500       19.287       11.284      420.260      371.977      127.318        0.207        0.046       56.378        6.793        0.015      344.158       20.778      864.638
08/17/2014  01:05:00      -64.685       -3.326      -13.655       15.027       12.384        9.234      225.806      153.369       85.265        0.242        0.023       64.771        6.381        0.010      344.349       21.104      864.635
08/17/2014  01:06:00      -56.953      -17.605       -7.479       12.120       10.492        9.543      146.892      110.072       91.062        0.198        0.017       59.612        5.377        0.008      344.201       20.851      864.636
08/17/2014  01:07:00      -51.470      -31.992       -5.624       11.026        6.585        6.782      121.566       43.358       45.992        0.196        0.011       60.602        4.998        0.007      344.194       20.838      864.625
08/17/2014  01:08:00      -41.612      -19.363       -2.960       12.749       10.107        6.147      162.547      102.150       37.782        0.121        0.015       45.897        2.800        0.004      344.207       20.861      864.609
08/17/2014  01:09:00      -63.470      -20.538       -8.167       13.539        9.008        5.473      183.300       81.143       29.955        0.241        0.015       66.710        4.194        0.004      344.218       20.882      864.587
08/17/2014  01:10:00      -88.512      -39.857       -5.681       11.946       16.877        8.941      142.709      284.840       79.949        0.498        0.025       97.072        8.299        0.007      344.122       20.716      864.587
08/17/2014  01:11:00      -49.823      -53.577       -1.692       19.153       17.046       11.350      366.852      290.577      128.832        0.307        0.039       73.163        6.632        0.008      344.165       20.789      864.581
08/17/2014  01:12:00      -59.886      -20.400       -6.236       21.063       24.819       13.132      443.630      615.979      172.452        0.264        0.062       63.265       12.975        0.042      344.094       20.667      864.574
08/17/2014  01:13:00      -16.997        0.981        0.542       23.926        9.412       12.815      572.433       88.579      164.227        0.056        0.041       17.025       14.649        0.740      343.875       20.294      864.554
08/17/2014  01:14:00      -56.401      -13.091       -2.606       37.601       24.474       13.401     1413.826      598.993      179.585        0.278        0.110       57.901       15.586        0.072      344.058       20.607      864.550
08/17/2014  01:15:00      -47.065        8.349       -0.966       35.303       24.101       17.253     1246.269      580.844      297.676        0.220        0.106       47.800       18.740        0.154      344.156       20.775      864.551
08/17/2014  01:16:00      -32.142       -4.581       -7.622       22.017       11.835       11.190      484.763      140.072      125.212        0.093        0.038       32.467       10.352        0.102      344.636       21.594      864.549
08/17/2014  01:17:00      -70.597      -23.634      -16.518       62.304       46.910       25.437     3881.734     2200.574      647.048        0.627        0.336       74.448       18.547        0.062      344.804       21.887      864.548
08/17/2014  01:18:00     -105.084       39.428       -6.533       78.072       47.837       30.801     6095.160     2288.403      948.704        1.098        0.467      112.237       33.555        0.089      344.515       21.389      864.544
08/17/2014  01:19:00      -83.637        5.135       -2.210       30.136       25.994       15.492      908.159      675.691      239.999        0.442        0.091       83.795       17.067        0.041      343.843       20.241      864.552
08/17/2014  01:20:00      -78.990        7.309       -0.013       33.285       17.927       17.592     1107.867      321.395      309.476        0.402        0.087       79.327       18.276        0.053      344.034       20.567      864.547
08/17/2014  01:21:00      -43.507       15.922        7.965       47.449       32.756       21.177     2251.392     1072.934      448.474        0.299        0.189       46.329       27.798        0.360      343.982       20.477      864.543
08/17/2014  01:22:00       -6.820      -18.815       -3.323       21.145       18.750       18.413      447.098      351.555      339.052        0.077        0.057       20.013       11.917        0.355      344.184       20.821      864.540
08/17/2014  01:23:00      -56.531      -24.262        1.077       42.076       25.771       19.848     1770.379      664.142      393.930        0.331        0.141       61.518       13.764        0.050      344.475       21.320      864.551
08/17/2014  01:24:00      -14.284      -27.143        5.812       26.040       27.520       16.948      678.080      757.341      287.237        0.135        0.086       30.672       13.859        0.204      344.349       21.105      864.542
08/17/2014  01:25:00      -96.397      -21.718      -10.071       42.366       30.886       20.545     1794.908      953.948      422.110        0.652        0.159       98.813       16.671        0.028      344.412       21.213      864.540
08/17/2014  01:26:00      -71.338      -63.348       -1.342       57.776       34.620       25.202     3338.077     1198.535      635.141        0.714        0.259       95.405       28.146        0.087      344.336       21.082      864.554
08/17/2014  01:27:00      -98.963      -53.176       -2.830       33.456       25.704       18.476     1119.298      660.712      341.368        0.737        0.106      112.345       14.844        0.017      344.369       21.139      864.563
08/17/2014  01:28:00     -119.681      -65.760       -4.623       29.217       25.798       14.189      853.609      665.512      201.336        1.019        0.086      136.557       13.652        0.010      344.376       21.151      864.570
08/17/2014  01:29:00      -92.343      -47.178       -2.105       37.272       23.248       16.854     1389.199      540.455      284.064        0.649        0.111      103.697       15.675        0.023      344.273       20.975      864.568
08/17/2014  01:30:00     -115.691      -66.745        1.562       35.130       25.521       23.124     1234.087      651.326      534.712        1.013        0.121      133.564       19.069        0.020      344.234       20.908      864.568
08/17/2014  01:31:00      -71.160      -55.495        5.499       33.690       35.000       21.802     1135.011     1225.011      475.326        0.550        0.142       90.241       19.341        0.046      344.263       20.958      864.577
08/17/2014  01:32:00     -120.087      -66.695        0.732       41.006       33.241       22.274     1681.457     1104.933      496.151        1.108        0.164      137.365       20.604        0.022      344.295       21.012      864.568
08/17/2014  01:33:00      -96.532      -61.624        3.222       46.765       31.382       24.042     2186.954      984.850      578.038        0.844        0.187      114.525       22.420        0.038      344.208       20.865      864.562
08/17/2014  01:34:00     -106.139      -59.972       -6.631       52.794       23.452       18.391     2787.238      550.019      338.219        0.929        0.184      121.910       19.857        0.027      344.276       20.981      864.559
08/17/2014  01:35:00      -96.637      -37.489        0.726       29.965       29.743       17.034      897.875      884.627      290.147        0.641        0.104      103.654       15.551        0.023      344.205       20.860      864.551
08/17/2014  01:36:00      -78.061       21.251       -1.345       31.663       36.395       18.964     1002.520     1324.581      359.631        0.462        0.134       80.902       12.620        0.024      343.883       20.309      864.546
08/17/2014  01:37:00     -117.286       35.172       -6.605       29.667       18.433       14.611      880.112      339.791      213.477        0.823        0.072      122.446       10.534        0.007      343.821       20.202      864.557
08/17/2014  01:38:00     -124.812       17.002      -11.900       21.816       30.103       12.178      475.920      906.214      148.311        0.877        0.077      125.965        7.980        0.004      343.796       20.160      864.564
08/17/2014  01:39:00     -146.256      -72.706      -15.404       39.664       25.539       22.642     1573.216      652.266      512.641        1.483        0.137      163.331       14.310        0.008      343.594       19.815      864.550
08/17/2014  01:40:00     -127.839      -59.241       -7.438       48.697       27.737       19.035     2371.423      769.321      362.327        1.170        0.175      140.898       21.780        0.024      343.551       19.741      864.536
08/17/2014  01:41:00      -26.342      -31.168       11.294       34.346       26.242       19.816     1179.667      688.620      392.656        0.203        0.113       40.809       17.162        0.177      343.582       19.796      864.528
08/17/2014  01:42:00      -37.962      -31.798        6.461       30.308       28.932       18.783      918.591      837.079      352.790        0.230        0.105       49.520       22.379        0.204      343.710       20.012      864.519
08/17/2014  01:43:00      -66.803      -31.308        2.210       30.884       20.007       17.920      953.810      400.261      321.113        0.356        0.084       73.776       16.211        0.048      343.665       19.937      864.514
08/17/2014  01:44:00     -101.107      -18.953      -12.333       20.191       17.016       13.062      407.674      289.550      170.610        0.580        0.043      102.868        8.802        0.007      343.586       19.801      864.525
08/17/2014  01:45:00     -110.176      -14.460       -9.773       29.214       20.846       17.604      853.430      434.545      309.893        0.702        0.080      111.121       17.374        0.024      343.432       19.541      864.542
08/17/2014  01:46:00      -49.750      -41.625       -9.616       32.284       23.268       17.088     1042.253      541.380      292.009        0.309        0.094       64.867        7.968        0.015      343.410       19.502      864.532
08/17/2014  01:47:00       13.274      -43.359        9.111       12.876       24.611       16.621      165.785      605.714      276.266        0.159        0.052       45.346        9.827        0.047      343.383       19.456      864.526
08/17/2014  01:48:00        2.994      -23.229       -4.193       12.938       15.512       13.305      167.397      240.612      177.021        0.058        0.029       23.421       10.471        0.200      343.491       19.639      864.518
08/17/2014  01:49:00      -12.428        0.579       -6.142       13.302       18.444       13.950      176.945      340.173      194.591        0.045        0.036       12.441       10.116        0.661      343.565       19.765      864.513
08/17/2014  01:50:00      -49.936      -13.219       -5.035       25.948       14.664        8.975      673.292      215.039       80.551        0.183        0.048       51.656       10.050        0.038      343.531       19.707      864.517
08/17/2014  01:51:00      -58.417      -42.975       -8.529       37.326       31.384       20.126     1393.261      984.940      405.064        0.406        0.139       72.521       11.541        0.025      343.449       19.568      864.541
08/17/2014  01:52:00     -111.952      -70.788       -0.208       44.036       32.743       21.413     1939.137     1072.093      458.538        1.051        0.173      132.455       11.714        0.008      343.268       19.260      864.564
08/17/2014  01:53:00     -150.048      -57.121       -3.391       37.133       34.941       19.599     1378.828     1220.887      384.137        1.439        0.149      160.553       16.898        0.011      343.469       19.603      864.563
08/17/2014  01:54:00      -95.345      -33.174       -0.374       24.998       22.267       13.559      624.923      495.823      183.846        0.575        0.065      100.951       14.121        0.020      343.399       19.484      864.553
08/17/2014  01:55:00      -64.329      -37.126       -4.746       17.801       15.725        8.566      316.871      247.291       73.368        0.309        0.032       74.273        7.362        0.010      343.442       19.558      864.547
08/17/2014  01:56:00      -48.750      -27.563       -0.693       14.162       18.966        7.821      200.554      359.709       61.165        0.188        0.031       56.003        6.787        0.015      343.647       19.906      864.529
08/17/2014  01:57:00      -75.264       -6.979       -6.632       15.384       11.586        7.673      236.669      134.230       58.872        0.309        0.021       75.587        5.046        0.004      343.662       19.931      864.519
08/17/2014  01:58:00      -71.383      -17.200       -7.193       19.092       16.359       11.668      364.491      267.633      136.141        0.311        0.038       73.426       11.356        0.024      343.517       19.683      864.519
08/17/2014  01:59:00      -78.682      -43.013       -8.698       22.865       17.901       14.202      522.808      320.455      201.695        0.458        0.052       89.671        8.556        0.009      343.546       19.733      864.518
08/17/2014  02:00:00      -55.072      -56.094       -1.163       43.102       40.292       21.570     1857.793     1623.421      465.261        0.506        0.197       78.610       22.792        0.084      343.386       19.460      864.523
08/17/2014  02:01:00      -96.291      -75.045       -7.826       38.452       30.865       24.095     1478.555      952.636      580.570        0.899        0.151      122.081       16.239        0.018      343.263       19.252      864.526
08/17/2014  02:02:00     -107.238      -49.107       -6.570       20.994       16.752       11.504      440.744      280.642      132.353        0.740        0.043      117.947       10.232        0.008      343.384       19.458      864.541
08/17/2014  02:03:00      -72.521      -45.619       -4.574       24.763       15.207       14.654      613.186      231.251      214.752        0.421        0.053       85.676       13.084        0.023      343.299       19.312      864.526
08/17/2014  02:04:00      -63.203      -41.719       -2.158       15.875       16.894       11.089      252.021      285.391      122.975        0.320        0.033       75.731       11.171        0.022      343.286       19.290      864.510
08/17/2014  02:05:00      -73.581      -34.473      -10.258        9.266       12.122        9.778       85.862      146.948       95.601        0.352        0.016       81.256        6.869        0.007      343.435       19.544      864.506
08/17/2014  02:06:00      -69.571      -41.085      -13.623       15.336       10.657       10.910      235.182      113.571      119.026        0.359        0.023       80.797        4.096        0.003      343.367       19.427      864.505
08/17/2014  02:07:00      -99.038      -54.408       -5.092       35.476       21.585       18.813     1258.574      465.903      353.924        0.744        0.104      112.999       17.705        0.025      343.247       19.226      864.503
08/17/2014  02:08:00     -140.080       -5.621      -14.750       13.118       16.953        9.902      172.084      287.400       98.045        1.021        0.028      140.192        5.011        0.001      343.187       19.124      864.505
08/17/2014  02:09:00     -114.715       21.433      -12.902       38.181       20.000       17.532     1457.810      399.990      307.355        0.797        0.108      116.700       15.036        0.017      343.262       19.251      864.509
08/17/2014  02:10:00      -98.038        1.244      -11.059       31.366       14.811       11.758      983.855      219.367      138.261        0.554        0.067       98.045        5.753        0.003      343.398       19.483      864.505
08/17/2014  02:11:00      -87.884      -17.203       -6.569       24.136       15.507       13.344      582.524      240.467      178.060        0.453        0.050       89.552       12.691        0.020      343.364       19.422      864.499
08/17/2014  02:12:00      -93.673      -19.092       -5.179       27.324       18.059       12.534      746.590      326.144      157.100        0.520        0.061       95.599       13.359        0.020      343.226       19.189      864.514
08/17/2014  02:13:00     -116.410      -48.887      -14.727       19.290       21.049       11.591      372.095      443.079      134.352        0.855        0.047      126.259        9.607        0.006      343.064       18.913      864.525
08/17/2014  02:14:00     -105.914      -32.474      -11.573       13.286       13.911       11.099      176.510      193.523      123.183        0.645        0.025      110.780        6.528        0.003      342.938       18.698      864.528
08/17/2014  02:15:00      -59.151      -15.945       -6.315       35.064       20.513       17.586     1229.492      420.764      309.275        0.288        0.098       61.262       14.543        0.056      342.937       18.697      864.530
08/17/2014  02:16:00      -36.868       -7.541       -6.600       17.927       14.330       12.013      321.392      205.360      144.319        0.107        0.034       37.631        5.537        0.022      342.817       18.492      864.540
08/17/2014  02:17:00      -21.212      -16.311       -9.472       14.665       10.702       11.692      215.077      114.527      136.698        0.064        0.023       26.758        6.561        0.060      342.907       18.644      864.550
08/17/2014  02:18:00       -5.598        4.804       -3.970        9.739       17.489        8.479       94.841      305.851       71.889        0.027        0.024        7.376        9.586        1.689      343.170       19.092      864.549
08/17/2014  02:19:00      -29.740       12.531       -7.250       12.608       30.476        9.424      158.956      928.813       88.806        0.114        0.059       32.272        7.925        0.060      343.482       19.624      864.546
08/17/2014  02:20:00      -20.780      -25.774       -3.251       13.855       13.938       11.424      191.962      194.264      130.500        0.081        0.026       33.107        8.872        0.072      343.206       19.155      864.564
08/17/2014  02:21:00      -13.973       -5.397       -1.093       11.742        8.018        6.889      137.879       64.288       47.454        0.024        0.012       14.979        6.497        0.188      343.317       19.343      864.561
08/17/2014  02:22:00       60.032       14.658        4.477       20.364       13.199        8.132      414.693      174.205       66.122        0.225        0.033       61.795        2.782        0.002      343.510       19.672      864.555
08/17/2014  02:23:00       23.407        9.237       -0.068       33.367       17.079        8.367     1113.351      291.687       70.007        0.105        0.074       25.164        6.206        0.061      343.568       19.772      864.565
08/17/2014  02:24:00      -82.487      -18.182       -9.932       19.705       18.131       12.846      388.285      328.732      165.022        0.406        0.044       84.467       10.825        0.016      342.947       18.713      864.573
08/17/2014  02:25:00      -13.982      -13.590       -1.508       20.553       27.577        8.321      422.413      760.488       69.244        0.082        0.063       19.498        9.333        0.229      343.943       20.413      864.572
08/17/2014  02:26:00      -44.857       -4.828       -2.957       18.230       12.250        7.257      332.329      150.063       52.670        0.129        0.027       45.116        5.333        0.014      343.856       20.262      864.580
08/17/2014  02:27:00      -45.526       -8.468       -5.170       10.244       10.705        6.134      104.950      114.594       37.623        0.121        0.013       46.307        6.945        0.022      343.518       19.685      864.579
08/17/2014  02:28:00      -17.988      -13.235       -3.355       24.182       10.155        4.973      584.754      103.126       24.733        0.061        0.036       22.332        7.441        0.111      343.695       19.989      864.565
08/17/2014  02:29:00       17.384       -0.267        7.322       25.014       14.403        6.890      625.678      207.440       47.474        0.062        0.044       17.386       10.503        0.365      343.765       20.107      864.562
08/17/2014  02:30:00     -103.521      -19.048      -16.479       26.438       16.782       12.519      698.992      281.625      156.734        0.624        0.057      105.259        9.732        0.009      342.760       18.396      864.576
08/17/2014  02:31:00      -97.601       18.594      -13.484       31.714       19.894       20.406     1005.787      395.754      416.396        0.594        0.091       99.357       15.841        0.025      343.041       18.873      864.588
08/17/2014  02:32:00       -5.275       15.310       -9.939       38.364        9.879        8.299     1471.812       97.589       68.873        0.100        0.082       16.193       10.890        0.452      344.051       20.597      864.576
08/17/2014  02:33:00       56.655       41.612        8.243       11.281       18.770       12.307      127.253      352.308      151.467        0.282        0.032       70.295       11.241        0.026      343.940       20.406      864.552
08/17/2014  02:34:00      -25.214        3.359       -7.259       81.570       40.264       17.724     6653.667     1621.152      314.133        0.464        0.429       25.436       21.084        0.687      343.798       20.165      864.558
08/17/2014  02:35:00      -96.478      -59.266       -0.086       35.504       29.644       18.234     1260.533      878.777      332.461        0.765        0.124      113.227       13.877        0.015      342.850       18.549      864.575
08/17/2014  02:36:00      -79.584      -20.879       -6.080       18.467       15.817        9.183      341.038      250.193       84.323        0.374        0.034       82.278        8.600        0.011      343.081       18.942      864.575
08/17/2014  02:37:00      -89.694      -20.955      -12.831       15.972       11.780       10.516      255.101      138.757      110.586        0.458        0.025       92.110        9.882        0.012      343.276       19.273      864.572
08/17/2014  02:38:00      -27.203      -19.508       -5.602       16.290        7.045        4.885      265.372       49.632       23.861        0.075        0.017       33.475        7.055        0.044      343.767       20.113      864.580
08/17/2014  02:39:00      -55.029      -16.330       -2.794       29.952       28.601       14.618      897.107      818.022      213.683        0.262        0.096       57.401       15.315        0.071      343.309       19.330      864.592
08/17/2014  02:40:00      -83.228       -7.305      -10.931       12.184       18.181       10.263      148.438      330.547      105.321        0.384        0.029       83.548        5.121        0.004      342.992       18.791      864.605
08/17/2014  02:41:00      -59.435      -32.406      -12.818       21.440       16.201        9.838      459.658      262.486       96.793        0.278        0.041       67.696        9.959        0.022      343.262       19.249      864.613
08/17/2014  02:42:00      -85.079      -36.697      -12.709       34.445       22.313       15.594     1186.481      497.887      243.179        0.534        0.096       92.656       15.055        0.026      342.843       18.538      864.629
08/17/2014  02:43:00     -108.960      -22.622      -22.097       20.355       28.352       12.049      414.346      803.808      145.186        0.712        0.068      111.284        9.672        0.008      342.693       18.282      864.639
08/17/2014  02:44:00      -82.910      -21.310       -5.224       14.408       21.454        9.308      207.581      460.267       86.632        0.405        0.038       85.605        4.492        0.003      342.902       18.637      864.637
08/17/2014  02:45:00      -92.843       -1.633      -15.299       20.875       13.477       12.149      435.762      181.641      147.605        0.481        0.038       92.858        8.804        0.009      342.845       18.540      864.635
08/17/2014  02:46:00      -96.145       -9.657      -13.804       22.173       13.355       15.307      491.654      178.364      234.310        0.522        0.045       96.629       13.539        0.020      342.679       18.257      864.639
08/17/2014  02:47:00      -69.929      -13.541       -7.079       17.391       20.012       12.155      302.440      400.468      147.737        0.299        0.043       71.228        7.837        0.012      342.726       18.337      864.641
08/17/2014  02:48:00      -54.823      -16.167       -7.638       10.955       13.280        9.594      120.016      176.371       92.041        0.186        0.019       57.157        6.101        0.011      342.768       18.408      864.638
08/17/2014  02:49:00      -75.209      -26.551       -8.216       11.876        9.831        6.030      141.042       96.649       36.363        0.335        0.014       79.758        3.444        0.002      343.235       19.205      864.632
08/17/2014  02:50:00      -87.104      -14.723      -14.859       11.839       10.719        8.990      140.167      114.902       80.813        0.418        0.017       88.339        7.104        0.006      342.776       18.422      864.631
08/17/2014  02:51:00     -100.104      -19.490      -13.841       24.305       18.598       16.083      590.721      345.895      258.662        0.589        0.060      101.984       15.196        0.022      342.712       18.312      864.620
08/17/2014  02:52:00     -109.648       -6.357      -13.046       31.524       16.167       16.238      993.765      261.372      263.685        0.688        0.076      109.832       16.339        0.022      342.558       18.051      864.618
08/17/2014  02:53:00     -101.783       -7.779       -7.742       28.319       23.620       16.593      801.954      557.907      275.324        0.606        0.082      102.080        9.681        0.009      342.474       17.910      864.615
08/17/2014  02:54:00     -123.154      -12.148      -14.776       17.574       17.629       13.648      308.835      310.790      186.279        0.817        0.040      123.752       10.593        0.007      342.519       17.984      864.624
08/17/2014  02:55:00     -127.716      -16.150      -18.384       18.143       14.981       10.870      329.164      224.428      118.149        0.879        0.034      128.734        9.093        0.005      342.505       17.961      864.613
08/17/2014  02:56:00      -79.241       -2.052      -16.746       18.840       18.343       10.901      354.930      336.467      118.831        0.369        0.041       79.268        9.411        0.014      342.661       18.227      864.602
08/17/2014  02:57:00      -39.536      -18.439       -5.279       17.324       12.909       13.081      300.113      166.642      171.110        0.128        0.032       43.624        5.786        0.018      342.619       18.154      864.599
08/17/2014  02:58:00      -22.004       -4.012       -4.138       14.537       13.874       11.552      211.335      192.496      133.454        0.053        0.027       22.367        5.396        0.058      342.564       18.062      864.594
08/17/2014  02:59:00      -57.008       -9.091      -18.630       19.707       21.875        9.323      388.354      478.519       86.918        0.232        0.048       57.729       10.339        0.032      342.691       18.279      864.588
08/17/2014  03:00:00      -69.576      -28.923      -10.068       18.034       15.154       15.249      325.237      229.659      232.533        0.328        0.039       75.349        3.011        0.002      342.704       18.300      864.598
08/17/2014  03:01:00      -75.945      -49.704      -12.177       16.588       16.313       14.679      275.148      266.119      215.459        0.457        0.038       90.764       12.222        0.018      342.580       18.088      864.604
08/17/2014  03:02:00      -86.185      -28.296      -17.890       12.564       11.448        9.081      157.865      131.054       82.472        0.446        0.019       90.711        6.150        0.005      342.557       18.051      864.604
08/17/2014  03:03:00     -102.621      -43.930      -16.500        7.504       13.482        7.028       56.308      181.762       49.389        0.651        0.014      111.629        5.039        0.002      342.657       18.220      864.618
08/17/2014  03:04:00     -119.787      -74.096      -11.330       29.101       28.155       18.610      846.848      792.691      346.342        1.098        0.099      140.851       12.953        0.008      342.624       18.164      864.609
08/17/2014  03:05:00     -144.983      -54.834       -7.262       26.093       25.518       16.730      680.838      651.181      279.900        1.285        0.081      155.006       12.012        0.006      342.587       18.102      864.601
08/17/2014  03:06:00     -121.163      -34.422        0.377       42.437       24.647       18.067     1800.907      607.493      326.403        0.930        0.137      125.957       19.855        0.025      342.500       17.954      864.598
08/17/2014  03:07:00      -70.744      -24.562        5.606       20.750       17.307       13.027      430.563      299.529      169.692        0.327        0.045       74.887       11.991        0.026      342.464       17.890      864.593
08/17/2014  03:08:00      -87.996      -38.945       -4.478       30.727       22.436       14.648      944.121      503.358      214.576        0.547        0.083       96.229       14.233        0.022      342.542       18.022      864.580
08/17/2014  03:09:00     -108.700      -56.445       -9.642       15.303       12.199       10.042      234.180      148.822      100.849        0.779        0.024      122.481        5.614        0.002      342.458       17.880      864.583
08/17/2014  03:10:00     -101.803      -58.419       -3.253       24.794       27.721       18.505      614.728      768.466      342.427        0.776        0.086      117.374       15.227        0.017      342.498       17.950      864.594
08/17/2014  03:11:00      -83.903      -49.841        1.260       44.037       33.770       19.766     1939.239     1140.405      390.696        0.650        0.174       97.590       20.159        0.043      342.544       18.028      864.597
08/17/2014  03:12:00      -88.902      -11.050       -3.580       53.989       30.603       21.403     2914.779      936.515      458.077        0.617        0.215       89.587       26.630        0.088      342.508       17.966      864.607
08/17/2014  03:13:00      -77.010      -20.741       -3.692       39.869       18.860       14.152     1589.528      355.700      200.274        0.426        0.107       79.754       18.794        0.056      342.421       17.818      864.604
08/17/2014  03:14:00      -59.021      -31.194       -3.065       30.629       22.563       12.327      938.136      509.090      151.953        0.303        0.080       66.757       11.549        0.030      342.477       17.914      864.591
08/17/2014  03:15:00      -90.459      -18.115       -3.381       25.512       20.301       13.281      650.877      412.132      176.372        0.488        0.062       92.255       11.517        0.016      342.422       17.819      864.586
08/17/2014  03:16:00      -94.323      -40.800       -5.197       25.611       21.965       14.665      655.932      482.458      215.068        0.597        0.068      102.769        8.430        0.007      342.473       17.907      864.586
08/17/2014  03:17:00     -113.236      -43.239       -3.952       23.933       18.783       13.428      572.780      352.818      180.299        0.791        0.055      121.210        6.556        0.003      342.497       17.948      864.592
08/17/2014  03:18:00     -113.354      -36.928        0.106       24.864       24.443       13.857      618.211      597.463      192.020        0.781        0.070      119.217       10.524        0.008      342.437       17.846      864.604
08/17/2014  03:19:00      -60.600      -41.436        4.100       43.501       28.351       16.185     1892.302      803.760      261.942        0.418        0.148       73.412       21.596        0.087      342.439       17.850      864.608
08/17/2014  03:20:00     -107.441      -47.530       -0.600       27.141       23.714       17.819      736.616      562.350      317.499        0.771        0.081      117.485       13.317        0.013      342.408       17.796      864.598
08/17/2014  03:21:00      -76.339      -44.364        3.103       42.457       25.408       19.092     1802.614      645.542      364.521        0.531        0.141       88.294       16.285        0.034      342.420       17.817      864.596
08/17/2014  03:22:00      -65.716      -58.175       -2.415       38.422       27.324       19.236     1476.276      746.589      370.040        0.515        0.130       87.766       20.341        0.054      342.507       17.965      864.596
08/17/2014  03:23:00     -110.312      -64.879       -0.467       22.557       19.183       12.217      508.838      367.995      149.243        0.870        0.051      127.977        9.116        0.005      342.613       18.144      864.583
08/17/2014  03:24:00      -96.805      -54.736        3.387       30.379       26.877       17.625      922.874      722.397      310.647        0.717        0.098      111.208       14.576        0.017      342.558       18.051      864.586
08/17/2014  03:25:00     -112.075      -53.322       -3.741       33.613       31.840       15.949     1129.857     1013.801      254.384        0.891        0.120      124.113       13.532        0.012      342.746       18.371      864.590
08/17/2014  03:26:00      -95.029      -33.960        2.337       34.040       20.880       13.797     1158.753      435.955      190.346        0.599        0.089      100.915       14.392        0.020      342.773       18.418      864.596
08/17/2014  03:27:00     -112.050      -24.624       -4.708       27.795       19.489       15.995      772.548      379.836      255.835        0.730        0.070      114.724       15.939        0.019      342.716       18.320      864.591
08/17/2014  03:28:00     -136.170      -51.862      -12.215       17.332       17.657       11.710      300.381      311.764      137.113        1.106        0.037      145.711        9.041        0.004      342.678       18.254      864.605
08/17/2014  03:29:00     -120.768      -65.281        0.271       45.426       31.036       19.201     2063.539      963.250      368.666        1.112        0.170      137.283       16.790        0.015      342.573       18.078      864.614
08/17/2014  03:30:00     -108.532      -38.736       -0.637       38.799       35.740       22.403     1505.365     1277.370      501.890        0.828        0.164      115.237       20.639        0.032      342.487       17.931      864.618
08/17/2014  03:31:00     -116.983      -48.556       -5.979       29.649       21.024       16.016      879.083      442.004      256.501        0.883        0.079      126.660       16.116        0.016      342.416       17.809      864.622
08/17/2014  03:32:00      -38.341      -31.731       10.459       39.791       23.296       18.742     1583.346      542.699      351.246        0.253        0.124       49.768       12.417        0.062      342.344       17.687      864.635
08/17/2014  03:33:00      -48.602      -56.815        2.088       44.321       30.849       24.109     1964.327      951.655      581.233        0.455        0.175       74.767       25.557        0.117      342.325       17.656      864.632
08/17/2014  03:34:00      -91.540      -55.948       -3.557       28.782       24.723       15.251      828.375      611.250      232.596        0.660        0.084      107.284        9.917        0.009      342.359       17.715      864.623
08/17/2014  03:35:00      -72.312      -57.877        3.386       52.545       37.623       22.636     2760.931     1415.502      512.380        0.664        0.234       92.622       20.825        0.051      342.270       17.562      864.635
08/17/2014  03:36:00      -79.446      -54.993        4.813       40.978       33.363       21.482     1679.227     1113.088      461.456        0.631        0.163       96.623       21.273        0.048      342.219       17.476      864.643
08/17/2014  03:37:00      -99.066      -41.080        1.962       38.819       28.437       17.421     1506.950      808.687      303.498        0.706        0.131      107.246       12.351        0.013      342.259       17.544      864.638
08/17/2014  03:38:00      -78.617      -44.387       -5.120       22.104       28.441       15.179      488.605      808.874      230.414        0.485        0.076       90.282       10.181        0.013      342.291       17.597      864.632
08/17/2014  03:39:00      -58.634        1.306        3.318       27.406       20.327       13.723      751.088      413.192      188.328        0.240        0.068       58.649       11.324        0.037      342.162       17.378      864.631
08/17/2014  03:40:00     -100.815       11.203       -3.868       25.897       22.814       19.743      670.654      520.495      389.768        0.594        0.079      101.436       17.494        0.030      342.087       17.251      864.622
08/17/2014  03:41:00      -97.631        2.747       -5.106       21.678       18.917       14.998      469.950      357.871      224.955        0.531        0.053       97.670       12.083        0.015      342.156       17.369      864.610
08/17/2014  03:42:00      -63.253      -14.691       -2.265       24.137       17.643       14.786      582.612      311.286      218.622        0.267        0.056       64.936       15.073        0.054      342.129       17.324      864.620
08/17/2014  03:43:00      -74.497      -31.951       -1.656       22.457       23.617       14.690      504.326      557.756      215.795        0.393        0.064       81.060       11.408        0.020      342.101       17.274      864.629
08/17/2014  03:44:00      -78.133      -59.670       -1.731       33.026       24.030       15.121     1090.691      577.447      228.659        0.578        0.095       98.312       15.181        0.024      342.117       17.304      864.626
08/17/2014  03:45:00      -51.565      -32.357       -0.668       25.441       16.382       21.166      647.259      268.361      447.998        0.253        0.068       60.876       20.013        0.108      342.044       17.179      864.631
08/17/2014  03:46:00      -52.891      -50.281        0.085       31.153       21.206       16.176      970.484      449.682      261.652        0.350        0.084       72.977       12.759        0.031      342.066       17.214      864.639
08/17/2014  03:47:00      -48.715      -30.533        5.786       27.554       15.787       15.439      759.198      249.219      238.359        0.229        0.062       57.493       15.100        0.069      342.055       17.195      864.645
08/17/2014  03:48:00      -79.480      -28.257       -5.669       15.514       18.077        9.027      240.693      326.786       81.494        0.390        0.032       84.353        6.128        0.005      342.300       17.614      864.644
08/17/2014  03:49:00      -79.333      -20.338       -5.026       24.227       15.055       11.710      586.949      226.661      137.133        0.384        0.048       81.898       10.757        0.017      342.196       17.436      864.656
08/17/2014  03:50:00     -121.544      -33.094        1.097       19.501       22.436       12.379      380.294      503.375      153.249        0.845        0.052      125.969        9.106        0.005      342.077       17.235      864.676
08/17/2014  03:51:00      -89.370      -38.348       -4.299       38.490       22.805       19.070     1481.455      520.053      363.663        0.592        0.118       97.250       18.927        0.038      342.062       17.207      864.687
08/17/2014  03:52:00     -108.403      -54.124       -0.504       35.813       30.112       23.608     1282.553      906.724      557.319        0.871        0.137      121.164       20.316        0.028      341.984       17.077      864.682
08/17/2014  03:53:00     -120.300      -33.508       -4.423       38.994       33.614       19.130     1520.517     1129.895      365.954        0.931        0.151      124.879       16.701        0.018      341.956       17.029      864.694
08/17/2014  03:54:00      -99.313      -39.068        1.638       33.861       23.360       18.038     1146.553      545.677      325.378        0.670        0.101      106.721       17.189        0.026      341.991       17.089      864.693
08/17/2014  03:55:00      -67.443      -37.672       -3.356       22.296       18.006       15.972      497.115      324.200      255.113        0.353        0.054       77.251       15.144        0.038      342.057       17.200      864.678
08/17/2014  03:56:00      -41.272      -29.950       10.611       26.784       16.890       14.173      717.404      285.275      200.888        0.196        0.060       50.994       15.752        0.095      342.058       17.202      864.675
08/17/2014  03:57:00      -66.068      -19.160        0.138       21.590       16.117       11.544      466.123      259.760      133.256        0.280        0.043       68.790        8.290        0.015      342.056       17.199      864.684
08/17/2014  03:58:00      -96.497      -14.849        0.296       33.790       27.871       18.804     1141.795      776.790      353.576        0.590        0.114       97.633       19.958        0.042      341.981       17.071      864.695
08/17/2014  03:59:00     -111.253      -32.348       -2.176       32.901       24.477       17.561     1082.458      599.132      308.388        0.771        0.099      115.860       19.823        0.029      341.914       16.958      864.701
08/17/2014  04:00:00      -55.413      -19.588        6.831       34.802       24.321       18.573     1211.176      591.513      344.939        0.282        0.107       58.773       19.072        0.105      341.891       16.918      864.698
08/17/2014  04:01:00      -67.232      -49.430       -6.308       28.201       16.169       14.943      795.311      261.435      223.299        0.414        0.064       83.448       11.467        0.019      342.034       17.163      864.715
08/17/2014  04:02:00      -62.162      -40.775        1.155       34.879       18.221       16.893     1216.519      332.014      285.385        0.368        0.092       74.342       16.277        0.048      342.004       17.110      864.707
08/17/2014  04:03:00      -59.529      -30.369       -2.489       26.273       26.174       15.877      690.284      685.059      252.066        0.305        0.081       66.828       17.785        0.071      342.022       17.142      864.709
08/17/2014  04:04:00      -52.879      -42.016       -1.462       24.028       13.632       11.832      577.337      185.833      139.992        0.273        0.045       67.539        7.538        0.012      342.057       17.200      864.702
08/17/2014  04:05:00      -72.909      -52.932       -4.619       26.827       21.650       13.801      719.664      468.733      190.457        0.476        0.069       90.097       12.440        0.019      341.965       17.044      864.709
08/17/2014  04:06:00      -94.631      -56.250       -1.367       17.180       19.007       15.892      295.141      361.257      252.549        0.651        0.045      110.087       12.525        0.013      341.969       17.050      864.708
08/17/2014  04:07:00      -79.697      -45.753        3.325       51.686       25.429       20.195     2671.415      646.649      407.824        0.609        0.186       91.896       22.625        0.061      341.918       16.964      864.707
08/17/2014  04:08:00     -101.565      -69.994       -3.516       37.316       33.112       24.608     1392.512     1096.434      605.530        0.916        0.155      123.348       14.166        0.013      341.844       16.839      864.715
08/17/2014  04:09:00      -94.287      -69.308        4.465       42.825       32.841       22.222     1834.018     1078.538      493.814        0.856        0.170      117.019       22.675        0.038      341.803       16.769      864.719
08/17/2014  04:10:00      -86.292      -58.844        4.321       28.237       30.849       19.180      797.317      951.656      367.860        0.652        0.106      104.446        8.451        0.007      341.886       16.911      864.729
08/17/2014  04:11:00      -50.103      -42.949        8.259       49.369       29.123       21.310     2437.282      848.127      454.133        0.408        0.187       65.992       21.921        0.110      341.882       16.903      864.741
08/17/2014  04:12:00      -71.478      -56.937        2.409       60.390       40.201       20.135     3646.988     1616.141      405.429        0.701        0.283       91.384       20.726        0.051      341.869       16.881      864.744
08/17/2014  04:13:00     -104.546      -91.940        5.978       36.707       40.020       24.178     1347.408     1601.635      584.581        1.148        0.177      139.222       21.221        0.023      341.938       16.998      864.754
08/17/2014  04:14:00     -110.451      -85.277       -7.342       37.907       28.887       20.904     1436.955      834.438      436.974        1.112        0.135      139.541       19.165        0.019      341.934       16.992      864.757
08/17/2014  04:15:00      -83.219      -76.884        0.209       53.525       36.642       27.117     2864.899     1342.638      735.332        0.889        0.247      113.298       25.190        0.049      342.001       17.106      864.745
08/17/2014  04:16:00      -78.519      -63.266        0.845       26.599       26.521       18.059      707.508      703.376      326.124        0.595        0.087      100.836       16.585        0.027      341.997       17.099      864.739
08/17/2014  04:17:00      -77.788      -63.905        1.671       34.266       21.324       16.015     1174.165      454.710      256.475        0.601        0.094      100.672       15.370        0.023      341.971       17.056      864.745
08/17/2014  04:18:00      -54.495      -45.963        1.371       42.569       30.824       18.229     1812.140      950.095      332.288        0.409        0.155       71.290       14.862        0.043      341.919       16.966      864.756
08/17/2014  04:19:00      -44.305      -42.572        3.521       40.854       25.301       21.055     1669.056      640.158      443.300        0.327        0.138       61.443       21.186        0.119      341.950       17.018      864.766
08/17/2014  04:20:00      -95.065      -72.651       -9.384       32.720       20.177       20.324     1070.618      407.117      413.073        0.815        0.095      119.648       17.148        0.021      341.961       17.039      864.768
08/17/2014  04:21:00      -83.029      -75.073        3.302       38.269       25.876       23.058     1464.528      669.559      531.672        0.760        0.133      111.937       19.173        0.029      341.938       16.998      864.781
08/17/2014  04:22:00     -130.497      -84.716       -8.703       29.901       28.473       18.158      894.064      810.732      329.714        1.316        0.102      155.584       15.002        0.009      341.941       17.006      864.777
08/17/2014  04:23:00     -136.692      -54.724        4.828       49.686       37.297       25.955     2468.742     1391.062      673.660        1.312        0.227      147.240       25.549        0.030      341.881       16.902      864.770
08/17/2014  04:24:00     -146.342      -66.085       -1.261       52.973       39.580       22.806     2806.132     1566.598      520.116        1.534        0.245      160.571       16.306        0.010      341.862       16.869      864.769
08/17/2014  04:25:00     -152.602      -61.224        7.121       47.037       34.050       22.864     2212.502     1159.380      522.780        1.549        0.195      164.425       23.046        0.020      341.755       16.687      864.773
08/17/2014  04:26:00     -177.709      -61.983       -0.511       48.872       38.779       29.142     2388.472     1503.822      849.236        2.008        0.237      188.208       25.312        0.018      341.729       16.643      864.772
08/17/2014  04:27:00     -141.063      -61.159        2.206       57.753       38.274       30.342     3335.421     1464.861      920.630        1.468        0.286      153.750       25.510        0.028      341.799       16.763      864.768
08/17/2014  04:28:00      -99.063      -36.057        3.279       47.009       43.724       29.156     2209.851     1911.793      850.076        0.805        0.249      105.421       24.387        0.054      341.803       16.770      864.763
08/17/2014  04:29:00      -98.056      -30.870       -1.278       46.132       37.573       20.993     2128.147     1411.743      440.692        0.727        0.199      102.800       18.327        0.032      341.883       16.904      864.750
08/17/2014  04:30:00     -100.065      -59.961        0.933       51.753       33.073       23.283     2678.419     1093.841      542.078        0.896        0.216      116.655       24.899        0.046      341.811       16.783      864.743
08/17/2014  04:31:00      -96.891      -50.813        3.063       46.773       29.260       20.979     2187.707      856.140      440.105        0.773        0.174      109.406       20.632        0.036      341.829       16.813      864.755
08/17/2014  04:32:00      -86.473      -47.456        7.271       52.331       40.423       29.419     2738.569     1633.987      865.451        0.751        0.262       98.639       25.729        0.068      341.788       16.744      864.759
08/17/2014  04:33:00     -150.859      -95.761       -4.144       42.572       48.781       30.246     1812.402     2379.607      914.825        1.853        0.255      178.686       25.538        0.020      341.864       16.872      864.748
08/17/2014  04:34:00     -153.355      -67.268      -14.049       21.952       25.323       14.652      481.893      641.246      214.679        1.479        0.067      167.460       11.477        0.005      341.853       16.853      864.719
08/17/2014  04:35:00      -73.236      -50.288      -14.902       29.315       15.352       15.594      859.386      235.695      243.175        0.473        0.067       88.839       16.156        0.033      341.864       16.872      864.699
08/17/2014  04:36:00      -49.522      -43.498       -8.606       26.025       15.425       15.507      677.296      237.936      240.459        0.279        0.058       65.913        6.474        0.010      341.897       16.927      864.669
08/17/2014  04:37:00      -59.496      -36.573       -3.127       35.865       20.715       17.059     1286.280      429.124      290.993        0.345        0.100       69.838       16.406        0.055      341.799       16.761      864.661
08/17/2014  04:38:00      -55.103      -42.109        3.272       41.294       25.294       19.107     1705.232      639.767      365.079        0.376        0.136       69.351       16.315        0.055      341.700       16.596      864.673
08/17/2014  04:39:00      -70.879      -48.974        1.573       40.535       35.494       24.989     1643.105     1259.822      624.464        0.548        0.176       86.153       19.945        0.054      341.744       16.669      864.693
08/17/2014  04:40:00      -80.289      -72.814        1.160       43.631       42.761       23.827     1903.660     1828.494      567.731        0.802        0.215      108.389       23.613        0.047      341.747       16.674      864.716
08/17/2014  04:41:00     -128.358      -77.504       -1.790       64.046       40.813       26.345     4101.865     1665.675      694.062        1.447        0.323      149.942       24.014        0.026      341.789       16.745      864.750
08/17/2014  04:42:00     -146.922      -91.194       -4.509       50.935       50.049       31.244     2594.363     2504.938      976.166        1.800        0.304      172.923       21.763        0.016      341.730       16.644      864.781
08/17/2014  04:43:00     -189.533     -106.634        0.560       63.943       55.293       36.862     4088.656     3057.270     1358.776        2.790        0.425      217.471       30.959        0.020      341.709       16.607      864.783
08/17/2014  04:44:00     -143.576      -57.409        1.008       64.630       42.421       31.505     4177.096     1799.511      992.591        1.544        0.348      154.628       28.834        0.035      341.748       16.675      864.780
08/17/2014  04:45:00      -83.248      -51.647        8.966       54.138       45.011       33.165     2930.964     2025.996     1099.895        0.787        0.303       97.967       36.957        0.142      341.723       16.633      864.791
08/17/2014  04:46:00      -60.091      -92.526        9.743       59.285       46.997       34.216     3514.706     2208.725     1170.726        0.958        0.345      110.327       35.949        0.106      341.707       16.609      864.803
08/17/2014  04:47:00     -119.595     -138.620        0.039       73.372       64.202       48.412     5383.423     4121.871     2343.702        2.268        0.592      183.080       39.618        0.047      341.573       16.376      864.808
08/17/2014  04:48:00     -174.848     -116.239      -12.396       57.842       65.834       43.307     3345.745     4334.069     1875.497        2.689        0.478      209.960       29.574        0.020      341.479       16.216      864.805
08/17/2014  04:49:00     -196.882     -119.066       -7.677       51.642       32.900       27.011     2666.943     1082.415      729.612        2.874        0.224      230.085       27.457        0.014      341.543       16.324      864.796
08/17/2014  04:50:00     -102.291      -79.354        4.214       44.225       36.310       32.900     1955.809     1318.441     1082.425        1.057        0.218      129.462       23.227        0.032      341.502       16.259      864.794
08/17/2014  04:51:00      -98.269      -87.275        1.698       49.742       35.011       29.258     2474.295     1225.759      856.026        1.092        0.228      131.430       23.081        0.031      341.537       16.319      864.789
08/17/2014  04:52:00      -79.801      -83.262        5.184       52.357       51.395       31.867     2741.308     2641.410     1015.497        0.986        0.320      115.329       25.918        0.051      341.558       16.353      864.801
08/17/2014  04:53:00      -64.941      -75.053       15.691       68.170       42.720       33.860     4647.206     1824.978     1146.476        0.886        0.381       99.249       37.805        0.145      341.534       16.312      864.798
08/17/2014  04:54:00     -140.360     -102.196      -13.220       29.176       34.805       24.174      851.257     1211.406      584.378        1.648        0.132      173.623       19.720        0.013      341.541       16.324      864.791
08/17/2014  04:55:00     -127.492      -86.631       -5.026       40.528       47.384       25.307     1642.479     2245.272      640.427        1.416        0.226      154.140       21.980        0.020      341.535       16.315      864.775
08/17/2014  04:56:00     -157.366      -81.378       -3.903       42.062       27.031       19.057     1769.217      730.655      363.164        1.713        0.143      177.162       18.690        0.011      341.563       16.361      864.763
08/17/2014  04:57:00     -168.097      -48.447       -8.738       33.006       31.331       22.375     1089.428      981.634      500.619        1.663        0.129      174.939       17.737        0.010      341.549       16.336      864.760
08/17/2014  04:58:00     -127.793      -58.136       -4.720       30.970       29.010       20.285      959.151      841.597      411.477        1.097        0.111      140.395       15.429        0.012      341.579       16.390      864.773
08/17/2014  04:59:00      -99.422      -43.841       -1.480       29.905       29.317       16.594      894.308      859.496      275.375        0.692        0.101      108.659       13.102        0.015      341.508       16.268      864.779
08/17/2014  05:00:00      -80.891      -28.129        5.574       32.375       23.544       16.719     1048.121      554.300      279.537        0.462        0.094       85.643       13.088        0.023      341.535       16.314      864.782
08/17/2014  05:01:00      -34.250      -51.667        6.256       33.921       32.203       19.586     1150.665     1037.010      383.592        0.323        0.129       61.988       16.146        0.068      341.538       16.320      864.786
08/17/2014  05:02:00      -69.942      -33.254       -0.005       31.691       19.053       11.636     1004.317      363.000      135.399        0.375        0.075       77.445        9.281        0.014      341.537       16.319      864.783
08/17/2014  05:03:00      -72.315      -53.449        4.092       47.680       36.181       23.574     2273.400     1309.029      555.752        0.612        0.207       89.924       21.327        0.056      341.512       16.276      864.784
08/17/2014  05:04:00     -163.044     -154.389      -15.561       44.976       53.069       29.226     2022.827     2816.270      854.135        2.818        0.285      224.543       23.603        0.011      341.484       16.225      864.795
08/17/2014  05:05:00     -162.227      -83.839       -1.028       56.404       39.612       30.685     3181.358     1569.119      941.562        1.952        0.285      182.610       31.824        0.030      341.492       16.240      864.813
08/17/2014  05:06:00     -111.740      -69.137        4.614       46.140       37.747       25.521     2128.941     1424.837      651.316        1.075        0.210      131.399       23.028        0.031      341.513       16.277      864.808
08/17/2014  05:07:00      -72.386      -62.022        4.652       40.205       31.629       17.300     1616.407     1000.377      299.274        0.601        0.146       95.323       17.507        0.034      341.566       16.366      864.807
08/17/2014  05:08:00      -79.004      -53.838       -0.165       37.408       29.019       19.727     1399.370      842.096      389.161        0.588        0.132       95.604       12.484        0.017      341.471       16.206      864.816
08/17/2014  05:09:00      -67.880      -63.021        1.066       56.656       40.339       29.340     3209.899     1627.275      860.844        0.714        0.285       92.625       26.768        0.084      341.441       16.155      864.822
08/17/2014  05:10:00     -116.448      -81.982       -6.089       67.468       42.489       26.559     4551.991     1805.355      705.389        1.369        0.353      142.412       19.801        0.019      341.283       15.888      864.830
08/17/2014  05:11:00      -96.123      -46.598       -0.181       38.104       26.791       22.859     1451.906      717.745      522.541        0.705        0.135      106.822       13.367        0.016      341.267       15.861      864.840
08/17/2014  05:12:00     -100.138      -63.071      -13.702       42.540       27.342       17.462     1809.631      747.609      304.939        0.853        0.143      118.345       16.451        0.019      341.331       15.970      864.840
08/17/2014  05:13:00      -85.564      -20.420       -8.174       30.596       26.541       16.242      936.136      704.450      263.812        0.485        0.095       87.967       16.121        0.034      341.349       15.999      864.850
08/17/2014  05:14:00      -82.413      -13.601       -2.185       25.326       27.588       17.595      641.428      761.084      309.591        0.435        0.086       83.527       13.961        0.028      341.261       15.852      864.867
08/17/2014  05:15:00      -74.774      -40.563       -3.825       36.434       16.679       15.514     1327.424      278.187      240.696        0.455        0.092       85.067       18.034        0.045      341.221       15.785      864.893
08/17/2014  05:16:00     -102.945      -57.397       -3.301       50.989       30.260       17.625     2599.853      915.651      310.644        0.886        0.191      117.865       19.286        0.027      341.296       15.911      864.904
08/17/2014  05:17:00     -137.620      -46.588      -12.274       49.158       27.615       21.045     2416.468      762.598      442.884        1.244        0.181      145.291       24.137        0.028      341.236       15.806      864.903
08/17/2014  05:18:00     -103.727      -27.975      -14.975       24.998       17.980       10.539      624.921      323.281      111.071        0.641        0.053      107.433        9.605        0.008      341.218       15.778      864.890
08/17/2014  05:19:00      -88.681      -28.020        6.486       47.208       30.558       25.595     2228.624      933.797      655.112        0.625        0.191       93.002       26.605        0.082      341.172       15.699      864.896
08/17/2014  05:20:00      -94.166      -49.066        3.956       52.884       40.251       26.260     2796.672     1620.148      689.601        0.820        0.255      106.182       20.407        0.037      341.196       15.741      864.907
08/17/2014  05:21:00     -105.567      -85.961       -0.574       49.287       40.304       30.277     2429.218     1624.429      916.685        1.175        0.249      136.139       32.666        0.058      341.206       15.759      864.907
08/17/2014  05:22:00     -102.619      -65.277       -3.210       48.842       32.130       19.603     2385.551     1032.367      384.284        0.930        0.190      121.622       20.959        0.030      341.164       15.687      864.907
08/17/2014  05:23:00     -131.028      -63.595      -10.127       35.229       30.457       17.004     1241.058      927.638      289.147        1.189        0.123      145.646       14.575        0.010      341.238       15.813      864.909
08/17/2014  05:24:00     -130.319      -30.975       -9.623       29.367       26.953       16.399      862.445      726.439      268.939        0.995        0.093      133.949       14.544        0.012      341.221       15.784      864.893
08/17/2014  05:25:00      -86.200      -42.582        0.167       49.353       25.982       20.331     2435.767      675.057      413.355        0.638        0.176       96.145       25.511        0.070      341.206       15.759      864.877
08/17/2014  05:26:00      -97.085      -69.723       -5.262       32.971       31.004       17.701     1087.056      961.259      313.327        0.834        0.118      119.527       15.978        0.018      341.251       15.834      864.870
08/17/2014  05:27:00     -106.013      -82.975       -2.256       31.129       36.766       22.518      968.997     1351.722      507.078        1.048        0.141      134.624       18.351        0.019      341.237       15.809      864.877
08/17/2014  05:28:00     -101.845      -56.554       -6.137       25.301       31.033       16.499      640.126      963.044      272.217        0.774        0.094      116.494       15.465        0.018      341.210       15.766      864.862
08/17/2014  05:29:00      -66.511      -65.391        3.022       30.514       26.522       18.774      931.089      703.421      352.472        0.535        0.099       93.272       13.742        0.022      341.213       15.770      864.845
08/17/2014  05:30:00      -75.380      -61.275       -2.066       40.360       39.294       20.759     1628.943     1544.024      430.921        0.652        0.180       97.143       24.050        0.061      341.262       15.852      864.835
08/17/2014  05:31:00      -52.951      -57.694        3.916       37.794       40.857       24.462     1428.418     1669.293      598.380        0.492        0.185       78.310       17.650        0.051      341.177       15.709      864.836
08/17/2014  05:32:00      -80.418      -94.970        2.560       40.952       33.454       29.423     1677.102     1119.167      865.707        0.958        0.183      124.444       27.402        0.048      341.166       15.690      864.843
08/17/2014  05:33:00     -144.961     -123.323       -7.200       49.624       50.221       31.192     2462.501     2522.170      972.925        2.111        0.298      190.322       30.904        0.026      341.152       15.665      864.843
08/17/2014  05:34:00     -137.701      -99.353       -5.837       54.713       46.026       34.131     2993.497     2118.430     1164.913        1.757        0.314      169.801       34.020        0.040      341.192       15.735      864.849
08/17/2014  05:35:00     -137.227      -70.189        0.529       61.874       45.036       27.872     3828.427     2028.286      776.848        1.519        0.332      154.135       28.808        0.035      341.182       15.718      864.858
08/17/2014  05:36:00     -109.178      -44.972       -2.445       37.934       37.339       18.838     1438.972     1394.188      354.889        0.857        0.159      118.077       17.459        0.022      341.175       15.707      864.883
08/17/2014  05:37:00      -81.129      -53.021        3.469       50.086       37.912       25.913     2508.618     1437.299      671.485        0.701        0.231       96.918       28.180        0.085      341.186       15.723      864.882
08/17/2014  05:38:00      -46.967      -43.104        1.699       50.025       32.451       20.943     2502.493     1053.065      438.599        0.403        0.200       63.748       23.133        0.132      341.225       15.790      864.895
08/17/2014  05:39:00      -69.035     -104.004        0.811       56.107       68.399       27.791     3147.984     4678.372      772.363        1.209        0.430      124.830       36.312        0.085      341.232       15.801      864.900
08/17/2014  05:40:00      -90.388     -153.920       -5.325       42.510       65.137       31.159     1807.102     4242.841      970.876        1.945        0.351      178.497       30.813        0.030      341.198       15.744      864.898
08/17/2014  05:41:00      -71.574      -65.381       -0.531       52.047       34.916       29.925     2708.886     1219.156      895.529        0.711        0.241       96.941       27.402        0.080      341.168       15.692      864.894
08/17/2014  05:42:00      -56.732      -29.121        1.789       45.901       28.991       21.487     2106.941      840.456      461.694        0.374        0.170       63.769       22.179        0.121      341.139       15.644      864.879
08/17/2014  05:43:00     -118.542      -58.806       -1.603       63.635       31.228       22.257     4049.451      975.205      495.371        1.152        0.276      132.327       25.151        0.036      341.161       15.680      864.889
08/17/2014  05:44:00      -84.406      -77.420       -3.294       54.930       40.936       30.171     3017.319     1675.724      910.290        0.937        0.280      114.535       35.941        0.098      341.165       15.688      864.912
08/17/2014  05:45:00     -103.654      -93.605        1.075       66.809       30.887       23.705     4463.384      954.004      561.939        1.274        0.299      139.664       25.646        0.034      341.261       15.852      864.917
08/17/2014  05:46:00     -107.000      -31.317       10.203       83.360       59.570       33.716     6948.971     3548.591     1136.753        1.208        0.582      111.489       33.358        0.090      341.165       15.688      864.895
08/17/2014  05:47:00      -75.234      -49.911        8.085       66.255       57.065       29.483     4389.755     3256.432      869.254        0.836        0.426       90.284       27.201        0.091      341.162       15.685      864.897
08/17/2014  05:48:00     -152.301      -78.658       -7.756       66.630       46.874       32.911     4439.521     2197.167     1083.129        1.858        0.386      171.413       24.826        0.021      341.178       15.710      864.889
08/17/2014  05:49:00      -93.119      -49.279       -3.954       49.104       31.874       22.315     2411.174     1015.933      497.975        0.752        0.196      105.355       17.307        0.027      341.187       15.727      864.878
08/17/2014  05:50:00     -181.269     -113.691       -8.806       51.731       44.183       27.715     2676.068     1952.172      768.120        2.563        0.270      213.972       16.442        0.006      341.178       15.708      864.883
08/17/2014  05:51:00     -165.358      -80.399       -8.114       40.531       46.888       24.841     1642.724     2198.463      617.064        1.916        0.223      183.868       18.723        0.010      341.108       15.590      864.904
08/17/2014  05:52:00     -123.200      -24.341        1.240       58.972       32.776       31.232     3477.680     1074.288      975.408        1.065        0.276      125.582       29.352        0.055      341.056       15.503      864.917
08/17/2014  05:53:00      -74.737      -23.393        4.767       58.250       35.912       23.452     3393.108     1289.654      549.986        0.569        0.262       78.313       26.700        0.116      340.981       15.377      864.913
08/17/2014  05:54:00     -134.924      -37.543       -5.550       54.716       41.149       24.323     2993.885     1693.250      591.587        1.246        0.264      140.050       25.172        0.032      340.975       15.365      864.908
08/17/2014  05:55:00      -47.820      -19.921       14.650       52.180       43.017       32.772     2722.775     1850.474     1073.996        0.427        0.282       51.804       25.419        0.241      340.893       15.227      864.904
08/17/2014  05:56:00     -135.100      -65.881       -7.527       58.907       42.103       30.807     3470.020     1772.626      949.101        1.442        0.310      150.307       28.942        0.037      340.903       15.243      864.910
08/17/2014  05:57:00     -165.181      -50.667       -5.222       33.764       32.399       24.854     1140.040     1049.666      617.728        1.634        0.140      172.777       20.285        0.014      340.860       15.172      864.926
08/17/2014  05:58:00     -114.720      -69.069      -18.699       45.728       37.502       20.085     2091.035     1406.384      403.415        1.109        0.195      133.907       24.549        0.034      340.914       15.264      864.951
08/17/2014  05:59:00      -40.606      -76.012        3.110       45.370       21.919       18.712     2058.476      480.442      350.137        0.516        0.144       86.178       18.758        0.047      340.981       15.377      864.960
08/17/2014  06:00:00      -40.139      -96.634       -1.837       26.450       32.118       16.037      699.602     1031.564      257.183        0.647        0.099      104.639       10.966        0.011      341.056       15.505      864.965
08/17/2014  06:01:00      -31.976     -104.352       -7.410       44.653       24.159       22.416     1993.923      583.678      502.481        0.752        0.154      109.141       13.782        0.016      341.193       15.735      864.984
08/17/2014  06:02:00      -88.180      -69.713        4.251       51.651       33.246       27.459     2667.833     1105.283      754.005        0.859        0.226      112.408       30.042        0.071      341.078       15.542      864.999
08/17/2014  06:03:00      -96.242      -94.006      -12.969       50.102       40.743       26.362     2510.214     1659.954      694.938        1.157        0.243      134.535       15.021        0.012      341.078       15.541      864.997
08/17/2014  06:04:00     -102.984      -74.473       -2.738       56.295       50.063       28.342     3169.137     2506.296      803.250        1.132        0.324      127.091       30.816        0.059      341.027       15.455      864.982
08/17/2014  06:05:00      -88.729      -48.747        3.308       51.977       27.979       29.272     2701.565      782.814      856.823        0.730        0.217      101.238       23.235        0.053      340.988       15.388      864.988
08/17/2014  06:06:00      -81.836      -55.530        5.455       60.782       48.279       26.376     3694.495     2330.870      695.702        0.826        0.336       98.897       25.609        0.067      341.008       15.423      864.994
08/17/2014  06:07:00      -92.090      -85.144        4.098       51.417       36.754       26.007     2643.685     1350.875      676.353        1.021        0.234      125.419       16.580        0.017      341.071       15.529      864.997
08/17/2014  06:08:00      -85.277      -66.220        4.981       41.955       45.324       26.681     1760.202     2054.278      711.894        0.810        0.226      107.969       23.241        0.046      341.026       15.454      865.002
08/17/2014  06:09:00     -142.884      -65.932       -7.230       45.862       33.281       29.963     2103.366     1107.639      897.762        1.446        0.205      157.362       23.979        0.023      341.078       15.541      865.013
08/17/2014  06:10:00     -147.689     -108.340       -3.430       46.167       40.032       23.179     2131.434     1602.591      537.272        1.892        0.214      183.166       19.746        0.012      341.103       15.583      865.013
08/17/2014  06:11:00     -152.882      -67.835       -2.112       47.409       40.791       23.404     2247.610     1663.910      547.770        1.622        0.223      167.256       23.235        0.019      341.021       15.446      865.018
08/17/2014  06:12:00     -107.937      -49.907        2.773       42.385       39.235       26.860     1796.513     1539.387      721.454        0.910        0.203      118.916       25.165        0.045      340.956       15.335      865.041
08/17/2014  06:13:00     -110.338      -53.017       -7.116       26.906       24.157       14.378      723.938      583.556      206.720        0.827        0.076      122.414       12.507        0.010      341.050       15.490      865.048
08/17/2014  06:14:00      -40.641      -47.913        7.474       29.717       38.737       24.824      883.106     1500.520      616.218        0.350        0.150       62.828       17.595        0.078      340.987       15.388      865.060
08/17/2014  06:15:00      -77.667      -25.740        1.056       47.963       31.677       17.405     2300.497     1003.408      302.934        0.515        0.180       81.821       19.252        0.055      340.981       15.377      865.068
08/17/2014  06:16:00      -46.202      -25.842        0.512       20.756       29.303       15.048      430.816      858.671      226.442        0.216        0.076       52.939       14.054        0.070      341.002       15.413      865.084
08/17/2014  06:17:00      -72.895       -7.761        3.023       36.219       29.455       20.594     1311.793      867.570      424.095        0.399        0.130       73.307       18.934        0.067      340.927       15.286      865.093
08/17/2014  06:18:00     -105.003      -16.206       -9.744       27.786       28.346       17.412      772.048      803.479      303.175        0.663        0.094      106.246       11.606        0.012      340.930       15.290      865.093
08/17/2014  06:19:00     -129.183       -1.068      -10.951       22.714       24.863       15.684      515.945      618.152      245.978        0.909        0.069      129.188       11.086        0.007      340.976       15.367      865.095
08/17/2014  06:20:00     -116.528      -41.959       -5.978       43.771       25.676       19.171     1915.940      659.270      367.542        0.916        0.147      123.853       21.029        0.029      341.070       15.528      865.097
08/17/2014  06:21:00      -80.948      -34.002        3.133       52.940       30.324       21.034     2802.685      919.522      442.416        0.594        0.208       87.799       23.316        0.071      341.033       15.466      865.097
08/17/2014  06:22:00      -73.843      -38.417       -0.169       41.394       27.003       20.361     1713.468      729.136      414.568        0.489        0.143       83.238       17.500        0.044      341.101       15.581      865.104
08/17/2014  06:23:00      -74.399      -39.140        2.993       44.545       31.354       19.669     1984.293      983.068      386.889        0.521        0.168       84.066       19.472        0.054      341.171       15.699      865.121
08/17/2014  06:24:00     -114.123      -63.651       -0.073       55.252       48.563       24.509     3052.773     2358.406      600.685        1.154        0.301      130.673       27.983        0.046      341.040       15.476      865.132
08/17/2014  06:25:00      -80.179      -28.008       -4.778       24.463       28.791       16.399      598.429      828.904      268.943        0.447        0.085       84.930       11.757        0.019      341.069       15.526      865.139
08/17/2014  06:26:00     -108.635       -5.687       -9.149       26.872       28.846       17.375      722.113      832.117      301.896        0.689        0.093      108.784       13.741        0.016      341.034       15.466      865.145
08/17/2014  06:27:00     -115.973      -62.906        5.428       38.903       31.377       21.567     1513.463      984.507      465.137        1.020        0.148      131.935       19.756        0.022      340.928       15.287      865.178
08/17/2014  06:28:00     -103.071      -44.542       -2.072       32.792       24.357       17.953     1075.286      593.251      322.310        0.730        0.100      112.284       16.926        0.023      340.985       15.384      865.187
08/17/2014  06:29:00      -66.724       -4.959       -0.193       28.955       21.708       13.650      838.371      471.241      186.324        0.299        0.075       66.908       14.936        0.050      340.975       15.368      865.164
08/17/2014  06:30:00      -54.401       15.390       -0.947       23.710       21.085       14.070      562.174      444.568      197.971        0.220        0.060       56.536       12.835        0.052      340.951       15.327      865.132
08/17/2014  06:31:00     -127.334       40.499       -9.573       48.917       28.617       16.482     2392.905      818.912      271.645        1.071        0.174      133.620       11.037        0.007      341.126       15.622      865.141
08/17/2014  06:32:00      -91.574      -27.793       -7.896       29.274       18.306       17.004      856.960      335.105      289.134        0.535        0.074       95.699       16.114        0.028      341.102       15.583      865.172
08/17/2014  06:33:00      -79.140      -46.513        2.096       53.647       39.040       18.032     2878.004     1524.099      325.154        0.658        0.236       91.796       23.491        0.065      340.999       15.408      865.199
08/17/2014  06:34:00     -101.792      -52.001       -2.255       35.054       20.218       16.301     1228.751      408.788      265.713        0.749        0.095      114.306       16.038        0.020      340.971       15.359      865.205
08/17/2014  06:35:00      -65.573      -49.544       -3.369       26.659       16.594       17.142      710.678      275.356      293.840        0.402        0.064       82.185       12.619        0.024      341.116       15.604      865.207
08/17/2014  06:36:00      -90.837      -67.565       -3.620       29.465       20.405       21.681      868.189      416.365      470.062        0.729        0.088      113.209       20.304        0.032      341.173       15.703      865.204
08/17/2014  06:37:00     -136.184      -73.996       -6.452       14.552       21.320       16.637      211.768      454.537      276.804        1.250        0.047      154.989       11.345        0.005      341.187       15.727      865.207
08/17/2014  06:38:00      -84.667      -61.149        5.313       40.774       34.790       19.715     1662.545     1210.371      388.664        0.710        0.163      104.440       17.799        0.029      341.140       15.647      865.231
08/17/2014  06:39:00      -90.610      -14.749       -0.333       39.218       22.656       19.678     1538.058      513.281      387.207        0.543        0.122       91.802       22.937        0.062      341.113       15.601      865.249
08/17/2014  06:40:00      -92.722      -14.097       -2.344       36.271       31.404       21.771     1315.573      986.216      473.991        0.579        0.139       93.787       19.468        0.043      341.095       15.571      865.269
08/17/2014  06:41:00      -18.997       -3.322        6.399       17.994       21.956       13.286      323.776      482.064      176.519        0.070        0.049       19.285       12.055        0.391      341.132       15.632      865.290
08/17/2014  06:42:00       -8.572      -14.889        2.841       17.059        9.783        9.490      291.008       95.708       90.055        0.039        0.024       17.180        4.164        0.059      341.266       15.860      865.297
08/17/2014  06:43:00       -9.087      -40.967       -2.143       32.457       22.830       14.310     1053.483      521.198      204.775        0.177        0.089       41.963       12.774        0.093      341.281       15.886      865.323
08/17/2014  06:44:00      -54.719      -88.659       -6.743       47.848       46.526       27.684     2289.448     2164.623      766.398        0.806        0.261      104.185       29.256        0.079      341.238       15.811      865.350
08/17/2014  06:45:00      -89.166      -73.609       -7.062       22.485       31.604       15.521      505.566      998.788      240.908        0.758        0.087      115.624       16.938        0.021      341.279       15.882      865.352
08/17/2014  06:46:00     -116.192      -43.498       -7.537       11.175       14.072        6.497      124.885      198.009       42.205        0.791        0.018      124.068        3.223        0.001      341.246       15.827      865.333
08/17/2014  06:47:00      -83.190      -26.156       -2.498       21.370       15.472       10.025      456.674      239.376      100.511        0.420        0.040       87.205        8.569        0.010      341.297       15.913      865.301
08/17/2014  06:48:00      -37.757      -10.378        0.218       24.265       23.934       11.810      588.785      572.828      139.469        0.142        0.065       39.157        8.400        0.046      341.271       15.868      865.281
08/17/2014  06:49:00      -23.790      -19.656       -5.140       16.370       17.440        8.551      267.971      304.164       73.125        0.081        0.032       30.860        6.832        0.049      341.274       15.874      865.282
08/17/2014  06:50:00       -7.791      -85.351      -11.407       16.532       25.752       11.766      273.318      663.143      138.434        0.428        0.054       85.706        5.593        0.004      341.332       15.972      865.289
08/17/2014  06:51:00      -23.952      -79.835       -4.974       27.005       24.634       17.822      729.251      606.825      317.639        0.431        0.083       83.351       14.119        0.029      341.393       16.074      865.297
08/17/2014  06:52:00      -23.490      -14.073        9.104       20.348       26.719       17.207      414.051      713.884      296.070        0.113        0.071       27.383       12.345        0.203      341.418       16.117      865.307
08/17/2014  06:53:00      -18.389       24.479        0.913       13.342       16.050       21.417      178.002      257.597      458.676        0.092        0.045       30.617       10.341        0.114      341.567       16.370      865.330
08/17/2014  06:54:00      -23.211        3.367        9.587       26.067       11.881       12.482      679.509      141.167      155.800        0.081        0.049       23.454       15.456        0.434      341.645       16.502      865.369
08/17/2014  06:55:00      -70.120      -50.923       -5.796       27.199       27.730       18.739      739.791      768.954      351.144        0.470        0.093       86.660       11.221        0.017      341.374       16.043      865.401
08/17/2014  06:56:00      -88.067      -37.774       -4.393       20.166       39.421       21.709      406.683     1554.014      471.283        0.582        0.122       95.826       16.601        0.030      341.298       15.914      865.413
08/17/2014  06:57:00      -70.179      -26.385        3.107       23.812       32.031       21.272      567.006     1026.007      452.501        0.384        0.102       74.975       13.815        0.034      341.296       15.910      865.414
08/17/2014  06:58:00      -53.063      -41.256        0.143       36.592       28.893       14.131     1339.006      834.823      199.698        0.345        0.119       67.214       15.305        0.052      341.288       15.897      865.405
08/17/2014  06:59:00      -34.345      -75.599       -1.633       24.005       21.485       15.996      576.243      461.601      255.876        0.410        0.065       83.035       10.874        0.017      341.298       15.916      865.411
08/17/2014  07:00:00      -67.531      -63.443       -5.514       25.152       19.803       14.616      632.615      392.151      213.615        0.493        0.062       92.657        5.034        0.003      341.360       16.018      865.422
08/17/2014  07:01:00      -56.268      -33.438        1.235       37.102       20.321       16.458     1376.555      412.932      270.867        0.317        0.103       65.453       14.385        0.048      341.379       16.050      865.438
08/17/2014  07:02:00      -96.749      -19.070       -2.178       27.469       32.136       19.207      754.564     1032.753      368.905        0.594        0.108       98.611       18.098        0.034      341.385       16.059      865.442
08/17/2014  07:03:00      -75.240       -4.798       -8.935       19.801       21.819       10.794      392.063      476.081      116.507        0.337        0.049       75.393        4.157        0.003      341.388       16.064      865.434
08/17/2014  07:04:00      -26.698        2.598       -1.659       27.353       13.904       14.817      748.191      193.309      219.549        0.094        0.058       26.825       13.628        0.258      341.481       16.222      865.428
08/17/2014  07:05:00      -30.221       -4.875       -7.768       16.332       17.055        9.863      266.747      290.875       97.272        0.083        0.033       30.612       10.596        0.120      341.330       15.966      865.412
08/17/2014  07:06:00      -39.291      -19.139        1.102       26.799       17.560       11.632      718.160      308.360      135.300        0.154        0.058       43.704       13.546        0.096      341.532       16.310      865.425
08/17/2014  07:07:00      -55.116      -26.354        7.790       29.511       23.118       16.620      870.917      534.449      276.231        0.274        0.084       61.092       16.190        0.070      341.474       16.211      865.432
08/17/2014  07:08:00      -59.158      -57.564        4.433       37.250       29.246       22.401     1387.549      855.305      501.813        0.479        0.137       82.543       18.086        0.048      341.512       16.276      865.439
08/17/2014  07:09:00      -60.685      -36.628        6.449       26.481       18.609       13.136      701.224      346.298      172.561        0.314        0.061       70.882       12.531        0.031      341.420       16.120      865.442
08/17/2014  07:10:00      -61.301       -8.558       -4.301       15.656       14.137       11.408      245.120      199.856      130.152        0.221        0.029       61.896        8.632        0.019      341.469       16.202      865.441
08/17/2014  07:11:00      -17.914      -20.336        2.117       16.223       12.456        9.718      263.184      155.162       94.440        0.063        0.026       27.101        6.227        0.053      341.527       16.301      865.424
08/17/2014  07:12:00      -23.279      -12.012        2.093       16.018       11.083        7.483      256.569      122.822       55.993        0.056        0.022       26.195        8.460        0.104      341.612       16.446      865.421
08/17/2014  07:13:00      -33.443       -6.116       -5.025       10.465       13.716        9.695      109.525      188.130       94.002        0.079        0.020       33.998        7.417        0.048      341.616       16.451      865.423
08/17/2014  07:14:00      -39.579        8.193       -2.220       11.589       10.295        7.759      134.304      105.985       60.206        0.097        0.015       40.418        6.563        0.026      341.584       16.398      865.424
08/17/2014  07:15:00      -45.783       34.045       -7.972        9.936       13.272       10.322       98.729      176.145      106.550        0.185        0.019       57.054        7.227        0.016      341.554       16.346      865.442
08/17/2014  07:16:00      -35.793        9.706        0.407        9.845       13.435        5.850       96.933      180.493       34.227        0.084        0.016       37.086        5.647        0.023      341.648       16.510      865.435
08/17/2014  07:17:00      -50.200       -3.066        0.154       15.879       12.874        7.980      252.140      165.742       63.673        0.151        0.024       50.293        7.599        0.023      341.635       16.483      865.437
08/17/2014  07:18:00      -37.530      -10.926       -1.602       13.024       10.397       10.565      169.618      108.096      111.616        0.096        0.019       39.088        8.984        0.053      341.681       16.563      865.453
08/17/2014  07:19:00      -23.085       -4.374       -4.075        8.820        6.751        5.442       77.787       45.577       29.616        0.036        0.008       23.496        4.206        0.032      341.719       16.627      865.460
08/17/2014  07:20:00      -34.598       -0.636        6.020       12.120        7.276        9.374      146.906       52.936       87.875        0.076        0.014       34.604        3.179        0.008      341.823       16.803      865.461
08/17/2014  07:21:00      -45.817      -35.283        0.963       13.402       26.917       13.731      179.601      724.550      188.536        0.222        0.055       57.828        6.980        0.015      341.830       16.815      865.442
08/17/2014  07:22:00      -43.066      -33.882       -5.188       10.091       13.997        7.929      101.828      195.920       62.866        0.170        0.018       54.796        6.721        0.015      341.885       16.908      865.444
08/17/2014  07:23:00      -56.158       -8.334       -7.059        8.172       12.210        6.539       66.778      149.077       42.756        0.177        0.013       56.773        4.066        0.005      341.869       16.883      865.441
08/17/2014  07:24:00      -46.925        2.514       -1.010       13.837       11.597        9.044      191.454      134.501       81.794        0.131        0.020       46.992        5.841        0.015      341.867       16.877      865.446
08/17/2014  07:25:00      -22.016       18.169        4.546       11.981       14.629       14.239      143.555      214.007      202.758        0.070        0.028       28.544       10.747        0.142      342.112       17.294      865.451
08/17/2014  07:26:00      -20.236        5.623        0.006        8.616       11.010       11.860       74.241      121.221      140.658        0.039        0.017       21.003        9.010        0.184      342.082       17.244      865.435
08/17/2014  07:27:00      -18.959      -10.876       -4.676        5.086        4.200        2.762       25.863       17.638        7.627        0.028        0.003       21.857        1.716        0.006      342.032       17.159      865.442
08/17/2014  07:28:00      -19.576       -3.349       -4.755        7.086        7.918        6.619       50.211       62.699       43.808        0.029        0.008       19.860        5.165        0.068      342.139       17.340      865.445
08/17/2014  07:29:00      -26.364       13.372        0.226        7.402        7.292        7.816       54.794       53.169       61.093        0.052        0.008       29.561        4.623        0.024      342.109       17.288      865.453
08/17/2014  07:30:00      -36.331       14.290       -5.585        7.463        6.977        4.968       55.702       48.675       24.676        0.084        0.006       39.040        2.226        0.003      341.982       17.072      865.476
08/17/2014  07:31:00      -39.183      -14.529       -4.361       10.304       20.789        7.327      106.167      432.185       53.681        0.118        0.030       41.790        5.656        0.018      342.020       17.140      865.500
08/17/2014  07:32:00      -13.533      -17.808        8.366       19.752       13.303       13.506      390.143      176.967      182.407        0.066        0.037       22.367       11.972        0.287      342.169       17.390      865.527
08/17/2014  07:33:00      -62.694      -70.542        4.351       38.910       30.770       23.061     1513.965      946.796      531.810        0.596        0.150       94.375       23.974        0.065      342.110       17.290      865.542
08/17/2014  07:34:00      -50.279     -103.628       -2.616       27.514       20.729       13.801      757.010      429.696      190.461        0.733        0.069      115.181        8.993        0.006      342.001       17.105      865.539
08/17/2014  07:35:00      -63.608      -83.988       -1.714       17.395       29.650       14.596      302.576      879.120      213.045        0.625        0.070      105.356       12.253        0.014      342.016       17.131      865.521
08/17/2014  07:36:00      -18.515      -41.562       13.883       20.569       30.463       12.796      423.088      928.007      163.736        0.189        0.076       45.500       17.274        0.144      342.252       17.533      865.509
08/17/2014  07:37:00      -49.531      -56.239        4.193       38.615       28.742       19.370     1491.130      826.101      375.178        0.416        0.135       74.941       18.941        0.064      342.177       17.403      865.505
08/17/2014  07:38:00      -55.855      -63.764        1.224       42.091       35.360       20.424     1771.693     1250.340      417.149        0.531        0.172       84.769       22.915        0.073      342.187       17.422      865.513
08/17/2014  07:39:00      -65.097      -75.767        1.792       35.403       44.665       20.765     1253.402     1994.967      431.193        0.683        0.184       99.891       19.788        0.039      342.200       17.444      865.514
08/17/2014  07:40:00      -47.926     -151.912       -2.945       23.038       30.393       17.823      530.772      923.760      317.658        1.358        0.089      159.292       11.816        0.006      342.135       17.333      865.520
08/17/2014  07:41:00      -65.576      -90.090      -10.104       23.409       50.826       14.963      547.998     2583.275      223.878        0.794        0.168      111.429       19.271        0.030      342.162       17.379      865.503
08/17/2014  07:42:00      -20.055       10.948       10.124       19.031       21.107       21.135      362.170      445.517      446.699        0.094        0.063       22.849       13.860        0.368      342.589       18.104      865.492
08/17/2014  07:43:00      -59.903      -12.981        4.117       33.816       26.793       15.389     1143.520      717.851      236.824        0.294        0.105       61.293       14.229        0.054      342.151       17.359      865.493
08/17/2014  07:44:00      -79.796      -37.044        7.019       31.257       17.791       14.962      977.024      316.523      223.854        0.465        0.076       87.975       14.292        0.026      342.075       17.232      865.491
08/17/2014  07:45:00      -59.776      -24.408        3.868       34.045       33.195       18.361     1159.049     1101.888      337.126        0.339        0.130       64.567       14.655        0.052      342.121       17.309      865.495
08/17/2014  07:46:00      -27.263      -64.627        1.325       19.196       29.621       22.510      368.486      877.427      506.698        0.334        0.088       70.142       17.915        0.065      342.332       17.667      865.510
08/17/2014  07:47:00      -55.926      -12.093        0.442       18.614       21.116       15.532      346.497      445.892      241.249        0.215        0.052       57.218       11.789        0.042      342.255       17.537      865.523
08/17/2014  07:48:00      -55.908      -44.775        8.399       42.794       46.396       26.657     1831.368     2152.564      710.622        0.495        0.235       71.627       34.137        0.227      342.573       18.079      865.540
08/17/2014  07:49:00      -93.184      -62.063        5.127       37.728       43.476       19.036     1423.430     1890.201      362.374        0.812        0.184      111.960       20.083        0.032      342.202       17.447      865.548
08/17/2014  07:50:00      -68.422      -86.486        5.295       40.165       30.358       22.242     1613.201      921.599      494.702        0.761        0.151      110.279       22.689        0.042      342.163       17.380      865.539
08/17/2014  07:51:00      -48.596      -96.256        0.414       22.826       30.757       18.695      521.046      945.994      349.488        0.672        0.091      107.827       17.041        0.025      342.189       17.426      865.536
08/17/2014  07:52:00      -55.600     -118.348        1.618       19.900       33.079       13.670      396.020     1094.213      186.858        0.939        0.084      130.758       10.081        0.006      342.261       17.547      865.541
08/17/2014  07:53:00      -32.783      -90.527        0.374       27.590       30.433       13.494      761.225      926.166      182.087        0.557        0.093       96.280       11.118        0.013      342.282       17.582      865.544
08/17/2014  07:54:00      -34.154      -51.488       -1.917       20.675       40.518       19.807      427.466     1641.679      392.314        0.314        0.123       61.786       13.098        0.045      342.309       17.627      865.550
08/17/2014  07:55:00      -70.974      -79.578        3.993       39.539       43.302       21.570     1563.342     1875.058      465.265        0.764        0.195      106.630       21.640        0.041      342.357       17.711      865.563
08/17/2014  07:56:00      -59.568      -80.582        3.135       36.620       36.451       22.821     1341.008     1328.643      520.787        0.662        0.160      100.209       20.330        0.041      342.352       17.701      865.572
08/17/2014  07:57:00      -61.371      -80.630        1.906       24.757       37.237       21.389      612.888     1386.624      457.474        0.636        0.123      101.329       16.848        0.028      342.279       17.577      865.568
08/17/2014  07:58:00      -43.087      -45.481       -2.512       16.074       24.609       14.224      258.360      605.612      202.316        0.250        0.053       62.650        9.221        0.022      342.375       17.741      865.557
08/17/2014  07:59:00      -42.096      -26.766       14.803       25.267       35.462       19.936      638.445     1257.530      397.448        0.250        0.115       49.885       22.371        0.201      342.625       18.166      865.541
08/17/2014  08:00:00      -21.150       -0.760       19.683       19.249       22.679       21.145      370.536      514.352      447.129        0.108        0.067       21.164       12.866        0.370      343.104       18.981      865.548
08/17/2014  08:01:00      -13.374       -4.394       15.243       16.837       13.902       16.877      283.473      193.274      284.849        0.060        0.038       14.078       10.813        0.590      343.364       19.427      865.552
08/17/2014  08:02:00      -30.163       -2.562        1.636        9.929       11.798        9.666       98.594      139.183       93.432        0.063        0.017       30.271        7.464        0.061      342.564       18.062      865.545
08/17/2014  08:03:00      -33.668       -5.802       -4.678        8.252        9.796        6.995       68.102       95.969       48.928        0.070        0.011       34.164        3.228        0.009      342.513       17.976      865.548
08/17/2014  08:04:00      -24.231       -4.593       -0.187        8.787        6.583        5.908       77.213       43.339       34.903        0.038        0.008       24.663        3.007        0.015      342.588       18.104      865.548
08/17/2014  08:05:00      -12.681        4.309       14.709       13.138       12.839       16.113      172.603      164.831      259.635        0.050        0.030       13.393       10.413        0.604      343.409       19.502      865.549
08/17/2014  08:06:00       -3.543        6.578       27.478        6.961       11.459        7.564       48.456      131.312       57.215        0.052        0.012        7.472        3.547        0.225      343.748       20.080      865.559
08/17/2014  08:07:00       34.252       20.585       20.754       38.709       23.162       20.130     1498.411      536.458      405.201        0.223        0.122       39.962       23.395        0.343      343.389       19.468      865.559
08/17/2014  08:08:00       42.238       50.919       14.586       20.831       23.183       23.641      433.923      537.447      558.874        0.306        0.077       66.157       14.935        0.051      343.018       18.835      865.570
08/17/2014  08:09:00       47.256       46.221        1.500       23.134       18.855       22.097      535.186      355.496      488.271        0.288        0.069       66.102       12.549        0.036      342.805       18.473      865.568
08/17/2014  08:10:00      -13.678      -15.240       10.616       16.944       14.714       18.972      287.102      216.487      359.933        0.070        0.043       20.478       14.136        0.477      343.165       19.085      865.568
08/17/2014  08:11:00      -42.516      -27.558        8.552       36.369       27.624       17.778     1322.675      763.089      316.057        0.252        0.120       50.666       21.358        0.178      343.154       19.065      865.570
08/17/2014  08:12:00      -91.710      -32.407       -6.874       15.262       20.309       13.307      232.920      412.438      177.071        0.517        0.041       97.267        5.662        0.003      342.768       18.408      865.565
08/17/2014  08:13:00      -66.965      -25.686        4.090       30.164       28.845       14.968      909.861      832.020      224.046        0.356        0.098       71.722       14.429        0.040      342.880       18.600      865.567
08/17/2014  08:14:00      -70.924      -34.704        0.834       37.816       29.960       17.989     1430.075      897.590      323.597        0.444        0.133       78.960       17.914        0.051      342.947       18.713      865.571
08/17/2014  08:15:00      -80.638       -3.839       -4.264       11.364       11.811        9.133      129.137      139.492       83.416        0.344        0.018       80.729        6.182        0.006      342.820       18.498      865.575
08/17/2014  08:16:00      -50.609       -5.673       -3.417       17.258       16.013       12.518      297.829      256.420      156.698        0.166        0.036       50.926        5.778        0.013      342.918       18.663      865.572
08/17/2014  08:17:00      -17.790      -28.932        1.052       11.234       14.145       10.881      126.210      200.069      118.399        0.080        0.022       33.964        7.741        0.052      342.936       18.695      865.579
08/17/2014  08:18:00       -7.752      -40.766       -4.127       11.337       11.085       13.152      128.539      122.886      172.973        0.108        0.021       41.497        6.611        0.025      342.913       18.656      865.579
08/17/2014  08:19:00      -30.819      -32.768      -13.002       22.768       27.397        8.821      518.390      750.573       77.813        0.177        0.067       44.984        9.936        0.049      342.997       18.799      865.584
08/17/2014  08:20:00      -55.107      -43.560      -10.796        8.175       12.153        6.275       66.833      147.700       39.377        0.265        0.013       70.244        2.600        0.001      342.961       18.739      865.589
08/17/2014  08:21:00      -17.693      -11.500        3.568       22.317        8.562       12.918      498.045       73.301      166.883        0.060        0.037       21.102       13.183        0.390      343.297       19.308      865.580
08/17/2014  08:22:00      -19.819        2.965       13.176       17.096       17.642       19.658      292.265      311.247      386.456        0.078        0.049       20.040       14.639        0.534      343.749       20.082      865.569
08/17/2014  08:23:00      -15.292      -18.933       19.687       38.670       37.007       25.994     1495.378     1369.494      675.672        0.226        0.177       24.337       31.279        1.652      343.781       20.135      865.559
08/17/2014  08:24:00      -63.924      -47.939        3.315       29.997       31.575       17.975      899.817      996.996      323.098        0.431        0.111       79.903       14.855        0.035      343.190       19.127      865.564
08/17/2014  08:25:00      -58.949      -17.345       -7.919       30.322       21.996       12.622      919.416      483.806      159.307        0.270        0.078       61.448       11.181        0.033      343.089       18.956      865.558
08/17/2014  08:26:00      -53.338      -11.898        0.398       23.473       30.755       18.237      550.977      945.886      332.591        0.241        0.091       54.649       17.442        0.102      343.287       19.293      865.553
08/17/2014  08:27:00      -34.161        7.913        1.157       19.047       15.980       16.428      362.787      255.364      269.894        0.106        0.044       35.065       11.803        0.113      343.415       19.511      865.553
08/17/2014  08:28:00      -26.210       -0.831        9.452       14.048       12.804       14.417      197.345      163.930      207.850        0.067        0.028       26.224       11.302        0.186      343.575       19.785      865.555
08/17/2014  08:29:00      -49.499      -38.047        0.075       20.636       24.423       11.081      425.852      596.485      122.799        0.252        0.057       62.432       14.103        0.051      343.138       19.040      865.557
08/17/2014  08:30:00      -69.762      -38.023        5.726       41.738       36.272       28.408     1742.022     1315.642      807.041        0.510        0.193       79.451       25.436        0.102      343.311       19.334      865.562
08/17/2014  08:31:00      -97.936      -41.762      -11.604       18.437       22.561       16.025      339.914      509.003      256.796        0.629        0.055      106.468        3.230        0.001      343.176       19.103      865.559
08/17/2014  08:32:00      -72.199      -46.991        0.623       31.489       29.590       20.158      991.532      875.560      406.347        0.485        0.114       86.144       19.953        0.054      343.239       19.213      865.553
08/17/2014  08:33:00      -97.262      -67.595      -15.100       23.115       34.131       19.088      534.318     1164.893      364.347        0.816        0.103      118.445       11.111        0.009      343.195       19.136      865.541
08/17/2014  08:34:00      -51.845      -55.276        1.846       31.178       29.125       16.917      972.072      848.278      286.186        0.393        0.105       75.785       18.686        0.061      343.255       19.238      865.546
08/17/2014  08:35:00      -38.535      -59.572        0.577       26.955       28.942       15.581      726.585      837.638      242.782        0.342        0.090       70.949       13.313        0.035      343.265       19.252      865.541
08/17/2014  08:36:00      -52.274      -22.926        6.796       22.351       27.970       16.659      499.545      782.348      277.514        0.243        0.078       57.080       13.659        0.057      343.400       19.485      865.534
08/17/2014  08:37:00      -67.965      -55.825       -5.120       22.909       17.186       12.865      524.832      295.361      165.519        0.437        0.049       87.953        6.573        0.006      343.332       19.368      865.543
08/17/2014  08:38:00      -66.556      -50.427       -9.464       24.207       24.632       14.467      585.973      606.721      209.281        0.423        0.070       83.502       15.297        0.034      343.373       19.438      865.547
08/17/2014  08:39:00      -39.129      -33.168       -0.087       28.042       28.324       19.334      786.367      802.264      373.809        0.230        0.098       51.296       17.742        0.120      343.689       19.978      865.532
08/17/2014  08:40:00      -17.454      -32.384        1.645       25.815       21.974       20.601      666.434      482.866      424.387        0.146        0.079       36.788       20.566        0.313      343.579       19.790      865.513
08/17/2014  08:41:00       -5.750       -6.398      -10.015       13.024       18.858       10.579      169.636      355.636      111.916        0.041        0.032        8.603        8.950        1.082      343.785       20.141      865.504
08/17/2014  08:42:00        9.171      -29.681        4.045       10.150       15.425       13.132      103.017      237.943      172.446        0.075        0.026       31.066        8.611        0.077      343.677       19.956      865.508
08/17/2014  08:43:00       -4.524      -11.804        6.106       13.450       18.692       13.184      180.892      349.401      173.823        0.045        0.035       12.641        5.294        0.175      343.941       20.408      865.500
08/17/2014  08:44:00      -54.121       11.328       -2.010       17.564       14.127       12.958      308.484      199.576      167.918        0.187        0.034       55.293       13.290        0.058      343.563       19.764      865.505
08/17/2014  08:45:00      -45.569       20.586      -10.105       22.820       15.696       11.558      520.747      246.354      133.591        0.175        0.045       50.003       11.334        0.051      343.541       19.725      865.505
08/17/2014  08:46:00      -14.165       11.149       16.525       16.809       15.654       15.252      282.545      245.036      232.633        0.068        0.038       18.026        8.165        0.205      344.433       21.248      865.497
08/17/2014  08:47:00       -7.219        9.864       12.996       18.629       23.041       15.039      347.028      530.888      226.181        0.071        0.055       12.223        9.056        0.549      344.385       21.166      865.488
08/17/2014  08:48:00      -20.409       47.884        8.156       32.082       26.250       27.736     1029.260      689.071      769.290        0.263        0.124       52.052       22.379        0.185      344.431       21.246      865.479
08/17/2014  08:49:00        7.771       90.010        4.221       29.281       61.397       31.191      857.391     3769.574      972.880        0.689        0.280       90.345       32.331        0.128      344.308       21.035      865.460
08/17/2014  08:50:00       61.004       64.131       -6.169       25.318       49.606       27.294      641.007     2460.767      744.962        0.586        0.192       88.511       25.777        0.085      343.901       20.340      865.455
08/17/2014  08:51:00       50.138       53.400       -7.837       20.286       16.993       17.136      411.522      288.745      293.649        0.321        0.050       73.248       11.650        0.025      343.620       19.861      865.457
08/17/2014  08:52:00      -10.567        4.852        0.386       13.496       14.253       11.709      182.134      203.154      137.101        0.033        0.026       11.628        6.700        0.332      343.964       20.448      865.462
08/17/2014  08:53:00      -46.379        6.978       -2.296        9.541       10.060       10.327       91.036      101.212      106.646        0.125        0.015       46.901        7.767        0.027      343.660       19.930      865.469
08/17/2014  08:54:00      -59.164        8.511       -4.665       14.106       17.922       12.870      198.986      321.188      165.637        0.214        0.034       59.773       10.801        0.033      343.703       20.001      865.476
08/17/2014  08:55:00      -43.514       -8.756       -4.048       11.718       12.902       11.813      137.308      166.455      139.547        0.121        0.022       44.386        3.796        0.007      343.750       20.081      865.475
08/17/2014  08:56:00      -25.514        3.208        0.403        8.180       14.672       12.553       66.912      215.268      157.582        0.055        0.022       25.714        5.858        0.052      343.943       20.410      865.468
08/17/2014  08:57:00      -42.167        3.486       -1.420       19.997       15.321        7.939      399.892      234.734       63.029        0.124        0.035       42.310        9.351        0.049      343.796       20.159      865.470
08/17/2014  08:58:00      -23.319      -19.764        8.613       30.011       30.070       19.457      900.669      904.193      378.574        0.160        0.109       30.568       18.175        0.354      344.246       20.929      865.477
08/17/2014  08:59:00      -59.709      -26.857       11.299       46.449       38.749       24.011     2157.531     1501.474      576.505        0.432        0.212       65.471       24.657        0.142      344.324       21.063      865.476
08/17/2014  09:00:00      -24.615      -36.263       11.689       36.476       34.231       23.174     1330.489     1171.736      537.040        0.255        0.152       43.828       16.873        0.148      344.300       21.021      865.479
08/17/2014  09:01:00      -69.135      -48.396        9.123       32.744       24.104       22.705     1072.184      580.993      515.509        0.469        0.108       84.391       19.858        0.055      344.002       20.512      865.478
08/17/2014  09:02:00      -86.995      -72.914        0.315       27.576       23.766       20.944      760.409      564.830      438.664        0.732        0.088      113.511       15.065        0.018      343.943       20.411      865.466
08/17/2014  09:03:00      -87.208      -51.873       -8.030       17.103       16.535        8.994      292.509      273.411       80.896        0.550        0.032      101.469        5.915        0.003      343.912       20.360      865.457
08/17/2014  09:04:00      -78.431      -36.570       -5.529       14.580       24.303       15.214      212.566      590.617      231.452        0.428        0.052       86.538        9.189        0.011      344.002       20.512      865.453
08/17/2014  09:05:00      -39.140        6.254       -0.530       25.912       19.404       18.048      671.447      376.525      325.742        0.147        0.069       39.637       16.227        0.168      344.346       21.100      865.437
08/17/2014  09:06:00      -27.214       -6.895        3.519       29.668       16.206       19.058      880.182      262.631      363.201        0.115        0.075       28.074       16.159        0.331      344.685       21.680      865.420
08/17/2014  09:07:00      -64.016      -27.814       -4.431       34.797       32.964       19.381     1210.824     1086.653      375.642        0.378        0.134       69.797        7.713        0.012      344.239       20.918      865.406
08/17/2014  09:08:00      -40.373        4.249       14.998       43.621       39.830       28.716     1902.816     1586.431      824.588        0.309        0.216       40.596       22.754        0.314      344.499       21.361      865.402
08/17/2014  09:09:00      -48.383       12.792        4.416       21.455       21.400       16.754      460.333      457.946      280.706        0.186        0.060       50.045       13.819        0.076      344.266       20.964      865.400
08/17/2014  09:10:00      -54.099       -2.581        3.017       29.041       23.284       15.457      843.373      542.127      238.931        0.228        0.081       54.161       13.173        0.059      344.285       20.995      865.397
08/17/2014  09:11:00      -22.245       -1.559       -4.291       10.198       10.212        9.800      103.991      104.277       96.031        0.041        0.015       22.299        8.097        0.132      344.399       21.190      865.394
08/17/2014  09:12:00       -1.589      -12.942       27.241       20.586       30.816       27.214      423.774      949.599      740.599        0.151        0.106       13.039       17.057        1.711      345.138       22.455      865.388
08/17/2014  09:13:00       27.522       41.580       66.870       35.377       50.985       29.740     1251.528     2599.499      884.439        0.585        0.237       49.863       17.646        0.125      345.202       22.564      865.379
08/17/2014  09:14:00       14.308       30.927       62.098       33.334       38.541       33.920     1111.158     1485.430     1150.571        0.438        0.187       34.076       23.151        0.462      345.217       22.588      865.385
08/17/2014  09:15:00       26.144       57.377       83.458       34.856       75.991       48.886     1214.961     5774.657     2389.868        1.016        0.469       63.053       58.521        0.861      344.746       21.783      865.388
08/17/2014  09:16:00       -0.856        8.027       39.504       28.995       48.583       31.319      840.726     2360.309      980.909        0.290        0.209        8.073       23.908        8.771      345.370       22.852      865.395
08/17/2014  09:17:00       20.902       26.927       62.058       39.633       53.795       36.789     1570.802     2893.937     1353.399        0.541        0.291       34.088       33.524        0.967      345.512       23.098      865.390
08/17/2014  09:18:00       11.001       50.908       82.101       35.030       53.729       25.265     1227.073     2886.825      638.314        0.710        0.238       52.083       26.699        0.263      345.043       22.293      865.390
08/17/2014  09:19:00       -1.068       16.187       55.306       22.745       43.594       24.265      517.319     1900.396      588.767        0.316        0.150       16.222       25.399        2.451      345.590       23.230      865.381
08/17/2014  09:20:00       -5.456       19.909       48.265       21.733       27.169       32.885      472.328      738.153     1081.447        0.252        0.115       20.643       24.658        1.427      345.568       23.191      865.371
08/17/2014  09:21:00      -28.367       -9.174       25.871       33.140       44.750       26.626     1098.250     2002.546      708.938        0.268        0.190       29.814       29.444        0.975      345.172       22.513      865.357
08/17/2014  09:22:00        3.612       26.681       67.038       42.550       58.127       49.002     1810.511     3378.804     2401.155        0.640        0.380       26.925       47.553        3.119      345.547       23.155      865.347
08/17/2014  09:23:00       15.877       41.374       79.416       36.873       44.024       29.528     1359.585     1938.150      871.920        0.622        0.208       44.315       30.874        0.485      345.385       22.880      865.339
08/17/2014  09:24:00       10.578       37.493       50.010       19.878       29.215       18.345      395.133      853.539      336.532        0.280        0.079       38.957       17.332        0.198      345.076       22.351      865.330
08/17/2014  09:25:00       -9.498      -14.938       24.301       17.395       24.519       27.279      302.602      601.199      744.167        0.128        0.082       17.702       18.342        1.074      345.724       23.460      865.320
08/17/2014  09:26:00      -18.152        7.111       42.487       14.650       18.837       28.507      214.614      354.845      812.651        0.178        0.069       19.495       19.144        0.964      345.676       23.379      865.322
08/17/2014  09:27:00      -13.010      -31.396       -3.651       34.458       24.770       21.256     1187.333      613.563      451.814        0.171        0.113       33.985       19.562        0.331      345.082       22.360      865.311
08/17/2014  09:28:00      -18.919      -19.621       14.022       47.109       26.370       24.806     2219.218      695.372      615.348        0.223        0.176       27.257       11.356        0.174      345.304       22.740      865.301
08/17/2014  09:29:00      -54.153       -3.149        4.395       16.905       25.906       17.219      285.777      671.131      296.496        0.211        0.063       54.244        9.914        0.033      344.851       21.965      865.303
08/17/2014  09:30:00      -46.820        8.648       16.018       22.245       27.409       16.832      494.850      751.246      283.305        0.203        0.076       47.612       17.195        0.130      344.985       22.193      865.305
08/17/2014  09:31:00       44.291       36.711       21.396       41.745       29.599       26.872     1742.675      876.109      722.131        0.355        0.167       57.528       17.756        0.095      345.457       23.001      865.311
08/17/2014  09:32:00       29.266       13.417       10.852       52.612       40.291       30.397     2768.002     1623.358      923.967        0.323        0.266       32.195       24.176        0.564      345.569       23.193      865.311
08/17/2014  09:33:00       -5.225       45.498       86.615       22.306       58.502       31.321      497.543     3422.471      980.984        0.725        0.245       45.797       34.384        0.564      345.982       23.903      865.305
08/17/2014  09:34:00        7.358       34.814       75.270       31.148       46.796       36.316      970.181     2189.851     1318.873        0.570        0.224       35.583       31.391        0.778      345.708       23.432      865.308
08/17/2014  09:35:00       19.460       23.278       43.458       29.407       30.940       25.502      864.786      957.288      650.333        0.264        0.124       30.340       18.772        0.383      345.472       23.026      865.307
08/17/2014  09:36:00       50.421       28.292       16.869       30.196       32.585       29.774      911.828     1061.784      886.509        0.324        0.143       57.816       13.173        0.052      345.375       22.861      865.295
08/17/2014  09:37:00       68.718       46.424        3.633       42.590       33.274       28.735     1813.950     1107.143      825.714        0.532        0.187       82.930       17.321        0.044      345.418       22.935      865.290
08/17/2014  09:38:00       93.062       61.482       15.385       42.530       40.630       49.771     1808.781     1650.796     2477.189        0.931        0.297      111.538       23.548        0.045      345.390       22.888      865.280
08/17/2014  09:39:00      138.310       94.518       14.593       38.951       32.232       35.958     1517.213     1038.934     1293.014        1.606        0.192      167.521       22.139        0.017      345.047       22.299      865.272
08/17/2014  09:40:00      116.794       83.658        7.650       36.985       32.968       27.940     1367.862     1086.890      780.616        1.197        0.162      143.664       18.161        0.016      344.933       22.104      865.281
08/17/2014  09:41:00       56.091       42.213       17.845       41.156       37.817       30.971     1693.778     1430.153      959.199        0.466        0.204       70.201       16.503        0.055      345.349       22.817      865.280
08/17/2014  09:42:00       30.073       53.043       16.215       39.321       44.173       32.717     1546.180     1951.283     1070.412        0.427        0.228       60.975       23.587        0.150      345.710       23.435      865.287
08/17/2014  09:43:00        0.217      100.378       -1.642       23.567       48.275       28.401      555.407     2330.447      806.591        0.688        0.185      100.378       25.208        0.063      345.528       23.125      865.288
08/17/2014  09:44:00       33.367       37.359       18.560       27.888       35.645       28.029      777.764     1270.564      785.652        0.284        0.142       50.091       16.814        0.113      346.021       23.969      865.297
08/17/2014  09:45:00       30.523       35.290       35.321       27.501       39.007       20.635      756.311     1521.538      425.785        0.306        0.135       46.659       17.573        0.142      346.014       23.957      865.286
08/17/2014  09:46:00       17.741       53.939       80.901       45.307       62.528       34.770     2052.684     3909.736     1208.979        0.847        0.359       56.782       39.172        0.476      346.052       24.022      865.284
08/17/2014  09:47:00       18.469       89.700       95.700       38.032       49.500       28.425     1446.418     2450.267      808.009        1.112        0.235       91.581       30.635        0.112      345.799       23.587      865.275
08/17/2014  09:48:00       36.609        3.750       58.492       46.036       70.680       43.618     2119.283     4995.669     1902.551        0.689        0.451       36.800       48.880        1.764      345.777       23.549      865.266
08/17/2014  09:49:00       20.545       21.835       37.736       36.038       44.157       40.482     1298.727     1949.815     1638.755        0.360        0.244       29.981       39.935        1.774      345.764       23.530      865.252
08/17/2014  09:50:00      -26.319        0.581       17.067       27.799       23.930       25.773      772.811      572.639      664.268        0.150        0.100       26.326       19.068        0.525      345.898       23.759      865.240
08/17/2014  09:51:00       -8.895       13.217       19.200       22.908       29.665       18.972      524.796      879.996      359.940        0.119        0.088       15.931        4.057        0.065      346.121       24.142      865.242
08/17/2014  09:52:00       27.556       37.004       21.853       28.279       38.715       22.386      799.685     1498.859      501.115        0.270        0.140       46.137       18.535        0.161      346.192       24.263      865.233
08/17/2014  09:53:00      -12.618      -18.913       11.248       18.548       33.158       24.600      344.036     1099.484      605.163        0.135        0.102       22.736       22.938        1.018      346.293       24.438      865.231
08/17/2014  09:54:00      -41.427        1.862       18.474       30.677       25.040       24.394      941.101      627.004      595.079        0.211        0.108       41.469       22.596        0.297      346.044       24.010      865.219
08/17/2014  09:55:00      -27.907       14.742       43.458       22.061       23.756       25.763      486.666      564.335      663.743        0.230        0.086       31.561       22.662        0.516      346.143       24.179      865.193
08/17/2014  09:56:00      -15.819        2.131       16.454       16.116       19.394       22.015      259.712      376.109      484.670        0.082        0.056       15.962       16.638        1.086      346.201       24.279      865.181
08/17/2014  09:57:00       -2.995        1.200       38.020       22.991       38.295       38.376      528.595     1466.494     1472.726        0.246        0.173        3.226       35.636      122.005      346.573       24.917      865.166
08/17/2014  09:58:00      -13.513       13.431       61.894       14.513       21.831       17.570      210.618      476.605      308.689        0.259        0.050       19.052       13.594        0.509      347.145       25.902      865.160
08/17/2014  09:59:00       60.976       77.525       14.936       38.802       30.473       41.186     1505.598      928.585     1696.320        0.704        0.207       98.632       31.955        0.105      345.704       23.424      865.158
08/17/2014  10:00:00       78.131       56.285        0.434       32.518       37.764       34.392     1057.404     1426.129     1182.784        0.647        0.183       96.293       16.643        0.030      345.796       23.582      865.156
08/17/2014  10:01:00       43.916       22.486       19.842       55.817       30.345       38.652     3115.496      920.842     1493.951        0.418        0.277       49.338       37.362        0.573      346.372       24.572      865.149
08/17/2014  10:02:00       43.783       12.402       79.417       53.130       48.169       37.085     2822.805     2320.246     1375.304        0.745        0.326       45.506       28.622        0.396      346.166       24.217      865.147
08/17/2014  10:03:00       34.264       90.849      103.661       66.062       67.753       44.736     4364.237     4590.401     2001.294        1.556        0.548       97.096       41.628        0.184      346.199       24.274      865.142
08/17/2014  10:04:00       65.630       66.291       52.056       64.286       48.329       49.381     4132.651     2335.715     2438.462        1.016        0.445       93.283       39.188        0.176      346.158       24.206      865.136
08/17/2014  10:05:00       45.669       82.866       57.643       51.367       39.453       48.316     2638.566     1556.578     2334.415        0.940        0.326       94.617       36.622        0.150      346.247       24.358      865.149
08/17/2014  10:06:00       42.988       39.713       -4.730       43.996       29.993       21.928     1935.656      899.555      480.840        0.338        0.166       58.524       20.720        0.125      345.652       23.336      865.148
08/17/2014  10:07:00      105.897       88.962       61.704       43.616       38.331       37.895     1902.340     1469.234     1435.996        1.387        0.240      138.305       19.371        0.020      345.735       23.478      865.157
08/17/2014  10:08:00       32.018        5.296       19.478       48.905       73.544       30.539     2391.674     5408.727      932.611        0.508        0.437       32.453       25.723        0.628      345.819       23.623      865.152
08/17/2014  10:09:00       53.782      -47.839        4.006       42.181       48.840       34.404     1779.238     2385.385     1183.608        0.527        0.267       71.980       29.270        0.165      345.967       23.876      865.143
08/17/2014  10:10:00      -28.277      -23.493      -12.510       47.420       35.679       22.341     2248.627     1273.027      499.116        0.276        0.201       36.763       13.761        0.140      345.691       23.403      865.134
08/17/2014  10:11:00      -27.503        6.686        8.401       24.391       14.775       18.331      594.911      218.307      336.037        0.101        0.057       28.304       14.539        0.264      346.099       24.104      865.124
08/17/2014  10:12:00        5.442       30.460       24.595       36.352       34.078       24.130     1321.447     1161.295      582.273        0.231        0.153       30.943       15.777        0.260      346.871       25.431      865.115
08/17/2014  10:13:00       61.625       56.600       21.843       44.554       32.882       28.227     1985.077     1081.231      796.739        0.567        0.193       83.673       25.258        0.091      346.478       24.754      865.099
08/17/2014  10:14:00       37.100       56.803       16.977       53.491       40.112       37.873     2861.299     1608.941     1434.374        0.540        0.295       67.845       25.163        0.138      346.531       24.846      865.095
08/17/2014  10:15:00      133.121       80.775        4.566       46.600       25.300       28.648     2171.571      640.090      820.681        1.395        0.182      155.710       13.209        0.007      345.758       23.517      865.096
08/17/2014  10:16:00       75.070       90.808        4.111       47.285       38.896       29.452     2235.829     1512.886      867.394        0.926        0.231      117.820       26.454        0.050      346.003       23.938      865.096
08/17/2014  10:17:00       64.298       60.110       21.357       56.106       43.660       40.873     3147.829     1906.172     1670.574        0.746        0.336       88.020       33.352        0.144      346.250       24.364      865.086
08/17/2014  10:18:00       30.001       42.400       22.564       51.561       42.165       29.485     2658.548     1777.871      869.354        0.426        0.265       51.940       26.795        0.266      346.701       25.137      865.088
08/17/2014  10:19:00      113.832       98.770       38.660       57.494       37.373       36.470     3305.507     1396.741     1330.032        1.512        0.302      150.709       32.433        0.046      346.246       24.354      865.073
08/17/2014  10:20:00       62.646       45.904       25.275       64.558       40.684       33.008     4167.775     1655.222     1089.518        0.679        0.346       77.664       22.214        0.082      346.359       24.551      865.086
08/17/2014  10:21:00        5.746       46.554       52.343       32.397       41.402       29.171     1049.535     1714.138      850.968        0.428        0.181       46.908       21.761        0.215      346.930       25.532      865.075
08/17/2014  10:22:00       94.446       56.422       14.075       34.415       28.370       35.412     1184.414      804.845     1253.995        0.777        0.162      110.016       10.694        0.009      346.057       24.031      865.080
08/17/2014  10:23:00       39.186       16.331        7.986       22.762       28.717       23.097      518.106      824.677      533.454        0.187        0.094       42.453       14.620        0.119      346.051       24.020      865.085
08/17/2014  10:24:00       -3.880       61.963       -9.877       34.778       31.187       24.771     1209.489      972.633      613.610        0.337        0.140       62.085        9.191        0.022      346.259       24.378      865.077
08/17/2014  10:25:00      -27.224       35.811       11.857       25.472       24.290       21.232      648.846      590.025      450.802        0.193        0.084       44.984       13.856        0.095      346.553       24.884      865.078
08/17/2014  10:26:00       22.507       20.931       17.664       29.192       24.795       21.741      852.164      614.791      472.658        0.160        0.097       30.735       18.311        0.355      346.979       25.616      865.075
08/17/2014  10:27:00       -4.309       53.968       -5.402       49.427       42.305       29.429     2442.998     1789.754      866.073        0.403        0.255       54.140       23.205        0.184      346.335       24.509      865.087
08/17/2014  10:28:00      -37.496       43.237        1.742       25.171       25.605       29.064      633.577      655.628      844.702        0.271        0.107       57.231       17.173        0.090      346.471       24.743      865.081
08/17/2014  10:29:00      -26.874        3.678        1.312       11.182       16.683       12.938      125.046      278.317      167.399        0.065        0.029       27.124        5.595        0.043      346.287       24.427      865.077
08/17/2014  10:30:00      -11.300        8.090       27.131       16.996       24.333       21.228      288.861      592.107      450.632        0.113        0.067       13.897       18.490        1.770      347.338       26.236      865.074
08/17/2014  10:31:00        3.131       46.273       53.443       29.948       41.423       37.725      896.895     1715.881     1423.207        0.452        0.202       46.379       23.053        0.247      347.484       26.487      865.066
08/17/2014  10:32:00       13.221       38.136       66.932       49.694       44.949       33.789     2469.466     2020.422     1141.713        0.587        0.282       40.362       30.623        0.576      347.284       26.142      865.061
08/17/2014  10:33:00       62.914       57.973       33.023       38.629       35.739       37.182     1492.211     1277.275     1382.505        0.628        0.208       85.552       13.131        0.024      346.904       25.486      865.053
08/17/2014  10:34:00       55.588       64.945      -14.291       54.616       34.118       29.792     2982.876     1164.028      887.546        0.627        0.252       85.486       24.244        0.080      346.456       24.716      865.065
08/17/2014  10:35:00       25.196       15.453       31.520       34.021       43.647       24.995     1157.451     1905.062      624.733        0.278        0.184       29.557       27.281        0.852      346.957       25.580      865.052
08/17/2014  10:36:00       20.488       43.339       38.688       34.881       30.826       33.397     1216.658      950.268     1115.373        0.354        0.164       47.938       19.578        0.167      347.390       26.325      865.050
08/17/2014  10:37:00       45.667       50.186       11.107       59.114       38.811       36.284     3494.410     1506.288     1316.542        0.552        0.316       67.853       25.595        0.142      346.691       25.120      865.042
08/17/2014  10:38:00       -6.583       44.001       16.480       18.946       33.005       27.382      358.944     1089.315      749.781        0.222        0.110       44.491       13.465        0.092      347.209       26.013      865.042
08/17/2014  10:39:00      -42.627        6.797      -11.088       21.794       30.546       17.139      474.972      933.048      293.747        0.184        0.085       43.165       13.768        0.102      346.548       24.875      865.050
08/17/2014  10:40:00      -42.783      -19.345      -12.568       23.719       14.802       28.043      562.574      219.109      786.438        0.197        0.078       46.953       19.550        0.173      346.309       24.463      865.038
08/17/2014  10:41:00      -18.871       -8.842       -0.231       18.838       12.387       14.159      354.857      153.430      200.468        0.057        0.035       20.840        6.671        0.102      346.535       24.853      865.032
08/17/2014  10:42:00      -14.905       27.512      -10.778       29.315       19.899       17.969      859.394      395.968      322.884        0.134        0.079       31.290       18.750        0.359      346.439       24.688      865.014
08/17/2014  10:43:00       21.798       -1.073       10.566       32.384       20.577       27.662     1048.718      423.417      765.213        0.141        0.112       21.825       14.753        0.457      346.923       25.520      865.008
08/17/2014  10:44:00       -0.738       46.949       56.824       27.573       34.838       34.345      760.291     1213.652     1179.553        0.429        0.158       46.955       26.375        0.316      347.544       26.591      864.986
08/17/2014  10:45:00      -20.942        9.798       55.214       25.836       39.481       27.706      667.525     1558.782      767.616        0.329        0.150       23.121       22.684        0.963      347.545       26.593      864.976
08/17/2014  10:46:00       -9.527       21.941       60.104       31.877       36.080       26.202     1016.172     1301.788      686.533        0.359        0.150       23.920       19.766        0.683      347.588       26.667      864.961
08/17/2014  10:47:00      -17.260       47.520       80.611       18.193       36.902       25.300      330.997     1361.730      640.086        0.569        0.117       50.558       17.003        0.113      347.586       26.662      864.948
08/17/2014  10:48:00       -9.917        0.041       31.193       23.577       33.312       23.933      555.863     1109.685      572.780        0.165        0.112        9.917       24.200        5.954      347.797       27.026      864.939
08/17/2014  10:49:00      -37.587       38.876       10.185       29.315       30.939       31.022      859.386      957.251      962.345        0.290        0.139       54.075       20.238        0.140      347.322       26.208      864.916
08/17/2014  10:50:00      -57.840       13.393        0.723       24.486       18.205       22.414      599.554      331.426      502.373        0.248        0.072       59.371       13.840        0.054      346.954       25.574      864.898
08/17/2014  10:51:00      -37.355       30.861       15.978       32.240       24.282       32.609     1039.428      589.633     1063.357        0.265        0.135       48.454       28.419        0.344      347.439       26.409      864.881
08/17/2014  10:52:00        8.623       18.721       47.436       22.147       23.845       14.086      490.469      568.607      198.408        0.197        0.063       20.611        8.517        0.171      347.780       26.998      864.862
08/17/2014  10:53:00       33.050       54.907       53.400       35.933       28.018       26.070     1291.157      785.036      679.649        0.486        0.138       64.087       24.622        0.148      347.226       26.043      864.841
08/17/2014  10:54:00      153.084       84.245        2.468       52.987       43.422       41.595     2807.628     1885.434     1730.115        1.848        0.321      174.734       24.253        0.019      346.907       25.493      864.824
08/17/2014  10:55:00       79.783       80.012       18.511       57.869       41.800       40.581     3348.845     1747.199     1646.807        0.993        0.337      112.992       18.600        0.027      347.263       26.106      864.822
08/17/2014  10:56:00       47.351       26.513        0.024       48.138       41.860       33.807     2317.297     1752.295     1142.937        0.408        0.261       54.268       21.556        0.158      347.478       26.476      864.812
08/17/2014  10:57:00       23.194      -27.437        8.577       23.472       51.601       29.334      550.953     2662.681      860.455        0.272        0.204       35.927       23.798        0.439      347.806       27.043      864.810
08/17/2014  10:58:00       37.789       -8.076       30.826       42.948       50.928       41.169     1844.543     2593.650     1694.851        0.429        0.307       38.642       31.795        0.677      347.846       27.112      864.795
08/17/2014  10:59:00       53.430      -36.566        7.337       33.982       57.881       24.625     1154.790     3350.231      606.385        0.468        0.256       64.744       12.840        0.039      347.420       26.377      864.787
08/17/2014  11:00:00       26.078      -44.670        1.917       32.712       74.549       30.042     1070.070     5557.591      902.546        0.510        0.377       51.725       31.738        0.377      347.468       26.459      864.772
08/17/2014  11:01:00       21.272        5.627       62.111       32.250       61.308       34.217     1040.073     3758.729     1170.781        0.515        0.298       22.003       37.481        2.902      347.595       26.677      864.761
08/17/2014  11:02:00       19.142       72.680       77.647       35.125       32.921       27.114     1233.791     1083.812      735.148        0.736        0.153       75.159       21.985        0.086      347.313       26.192      864.747
08/17/2014  11:03:00       40.068       77.320       14.457       38.452       61.173       34.944     1478.562     3742.076     1221.114        0.712        0.322       87.085       31.410        0.130      347.352       26.259      864.737
08/17/2014  11:04:00       47.444      132.007       -8.072       42.511       62.940       38.995     1807.184     3961.485     1520.588        1.351        0.364      140.274       33.143        0.056      347.313       26.192      864.723
08/17/2014  11:05:00       47.882      114.921       12.918       71.691       60.813       42.794     5139.554     3698.182     1831.317        1.317        0.533      124.497       34.360        0.076      347.466       26.456      864.719
08/17/2014  11:06:00       -5.725      165.728       -3.774       35.875       79.088       35.524     1287.039     6254.834     1261.976        1.816        0.440      165.827       42.448        0.066      347.240       26.065      864.720
08/17/2014  11:07:00        6.369       90.235        4.717       28.307       53.973       33.634      801.299     2913.113     1131.266        0.652        0.242       90.460       29.092        0.103      347.528       26.563      864.728
08/17/2014  11:08:00      -23.391       32.495       12.801       20.226       34.319       25.811      409.086     1177.808      666.224        0.201        0.113       40.039       19.947        0.248      347.828       27.081      864.726
08/17/2014  11:09:00      -13.566       52.828        8.029       18.017       38.050       25.819      324.628     1447.831      666.637        0.274        0.122       54.542       21.639        0.157      347.776       26.993      864.724
08/17/2014  11:10:00       14.856       36.077       25.032       27.209       28.026       26.904      740.329      785.439      723.833        0.220        0.112       39.016       11.025        0.080      347.613       26.709      864.716
08/17/2014  11:11:00        7.821       65.063        4.207       31.125       46.467       27.715      968.784     2159.228      768.107        0.410        0.195       65.531       27.349        0.174      347.335       26.231      864.710
08/17/2014  11:12:00      -13.837       39.795       -1.513       20.575       52.901       21.460      423.320     2798.541      460.550        0.273        0.184       42.132       19.062        0.205      347.294       26.160      864.704
08/17/2014  11:13:00      -15.188       27.213       -1.232       20.927       37.061       21.118      437.951     1373.498      445.972        0.161        0.113       31.165       17.156        0.303      347.602       26.692      864.701
08/17/2014  11:14:00      -58.914      -14.915      -12.172       11.591       20.015       12.179      134.341      400.610      148.324        0.226        0.034       60.772        3.141        0.003      346.905       25.488      864.691
08/17/2014  11:15:00      -42.465      -56.816      -17.864       20.550       27.966       20.700      422.282      782.090      428.470        0.349        0.082       70.932       14.123        0.040      346.908       25.493      864.683
08/17/2014  11:16:00      -31.479      -65.824        0.398       20.691       13.483       17.779      428.126      181.778      316.078        0.312        0.046       72.964       11.243        0.024      346.881       25.450      864.678
08/17/2014  11:17:00        0.191      -39.616       12.643       38.085       35.408       27.421     1450.484     1253.761      751.919        0.259        0.173       39.616       25.640        0.419      347.342       26.243      864.673
08/17/2014  11:18:00       34.089       16.029        4.765       58.302       52.702       37.530     3399.082     2777.459     1408.488        0.451        0.379       37.669       32.806        0.758      347.461       26.447      864.676
08/17/2014  11:19:00       41.618       27.377        0.540       49.642       53.207       29.020     2464.309     2830.995      842.150        0.431        0.307       49.815       38.210        0.588      347.144       25.900      864.687
08/17/2014  11:20:00      -97.114       12.746      -16.967       16.655       31.285       19.372      277.401      978.758      375.289        0.576        0.082       97.947       13.032        0.018      346.994       25.642      864.677
08/17/2014  11:21:00      -15.741       17.728       11.072       43.467       37.858       31.024     1889.361     1433.219      962.480        0.248        0.214       23.708       25.373        1.145      347.941       27.278      864.664
08/17/2014  11:22:00       -8.267      -62.679       18.735       44.627       43.814       36.652     1991.570     1919.647     1343.358        0.480        0.263       63.222       13.868        0.048      347.819       27.063      864.655
08/17/2014  11:23:00       39.171      -40.721        8.467       28.326       38.386       29.494      802.352     1473.466      869.873        0.320        0.157       56.503       21.840        0.149      347.791       27.018      864.636
08/17/2014  11:24:00      -14.204       -1.106       26.567       28.795       30.141       23.863      829.164      908.509      569.435        0.161        0.115       14.247       24.331        2.917      348.108       27.565      864.618
08/17/2014  11:25:00      -19.279       11.542       34.266       19.908       18.474       21.627      396.336      341.271      467.714        0.144        0.060       22.470       13.770        0.376      348.694       28.579      864.603
08/17/2014  11:26:00      -11.356      -17.687       40.580       22.132       47.219       25.496      489.839     2229.596      650.056        0.273        0.168       21.018       20.573        0.958      348.599       28.413      864.593
08/17/2014  11:27:00       45.081       28.312       40.089       62.847       44.746       37.109     3949.728     2002.184     1377.053        0.588        0.366       53.234       20.330        0.146      348.220       27.759      864.578
08/17/2014  11:28:00       48.793       70.233       66.272       60.412       95.926       47.988     3649.662     9201.703     2302.893        1.343        0.758       85.519       51.992        0.370      347.757       26.958      864.566
08/17/2014  11:29:00       83.892      -88.529        0.280       65.590      110.169       55.015     4302.032    12137.152     3026.633        1.717        0.973      121.964       68.844        0.319      348.025       27.418      864.561
08/17/2014  11:30:00       44.991       34.136       36.369       50.199       56.341       37.249     2519.929     3174.264     1387.524        0.580        0.354       56.475       21.055        0.139      348.258       27.824      864.569
08/17/2014  11:31:00       36.667       28.087       29.178       39.620       65.176       28.908     1569.744     4247.962      835.665        0.482        0.333       46.188       10.458        0.051      348.065       27.490      864.571
08/17/2014  11:32:00       84.529       43.364       26.769       51.023       38.628       36.264     2603.362     1492.107     1315.102        0.758        0.271       95.004       24.855        0.068      348.018       27.408      864.567
08/17/2014  11:33:00       89.385       86.780      106.910       86.833       74.703       63.235     7539.959     5580.603     3998.618        2.203        0.856      124.581       47.828        0.147      347.995       27.369      864.568
08/17/2014  11:34:00       24.648       16.493       48.952       70.241       86.469       51.643     4933.806     7476.965     2666.956        0.917        0.754       29.657       32.528        1.203      348.009       27.392      864.560
08/17/2014  11:35:00       76.475       80.845      102.853       92.930       71.586       49.060     8635.974     5124.551     2406.853        1.956        0.808      111.285       57.265        0.265      347.959       27.305      864.575
08/17/2014  11:36:00      108.220       77.340       79.779       72.185       74.870       59.300     5210.652     5605.591     3516.454        1.919        0.717      133.015       53.856        0.164      347.632       26.742      864.571
08/17/2014  11:37:00       98.868      -14.155        9.836       65.676      116.913       46.042     4313.275    13668.711     2119.826        1.508        1.005       99.876       51.733        0.268      347.496       26.507      864.561
08/17/2014  11:38:00       93.975      -88.746       13.955       62.710       91.671       48.403     3932.565     8403.612     2342.854        1.579        0.734      129.256       49.769        0.148      348.032       27.431      864.542
08/17/2014  11:39:00       89.401       55.611       40.497       59.919       60.725       53.426     3590.312     3687.485     2854.387        1.143        0.507      105.286       43.586        0.171      347.692       26.844      864.548
08/17/2014  11:40:00       86.155       52.057       20.094       34.789       24.836       32.642     1210.266      616.829     1065.481        0.671        0.145      100.661       17.764        0.031      347.388       26.320      864.525
08/17/2014  11:41:00       20.542       32.987       46.578       41.782       65.508       50.985     1745.772     4291.337     2599.505        0.616        0.432       38.860       50.401        1.682      347.851       27.120      864.509
08/17/2014  11:42:00        3.029      -19.359       65.818       72.878      142.423       80.194     5311.236    20284.249     6431.063        1.836        1.601       19.594       93.058       22.556      348.184       27.692      864.475
08/17/2014  11:43:00      123.266      -43.845       58.552       84.741      185.438       91.480     7180.987    34387.260     8368.578        3.523        2.497      130.831      119.093        0.829      347.865       27.142      864.490
08/17/2014  11:44:00       77.263     -103.334       31.934       63.855      102.864       60.394     4077.427    10580.909     3647.409        1.798        0.915      129.025       64.621        0.251      348.392       28.052      864.485
08/17/2014  11:45:00       47.867      -46.267       35.226       61.891      102.233       50.525     3830.529    10451.601     2552.806        1.125        0.842       66.572       62.728        0.888      348.153       27.641      864.496
08/17/2014  11:46:00       31.704      -46.726        6.275       34.175       57.954       40.674     1167.923     3358.617     1654.363        0.470        0.309       56.467       40.167        0.506      347.905       27.213      864.502
08/17/2014  11:47:00        3.270      -53.328       -8.060       49.348       43.943       25.365     2435.228     1931.010      643.389        0.396        0.250       53.428       22.935        0.184      347.853       27.124      864.475
08/17/2014  11:48:00      -39.683      -45.037       -8.875       54.725       51.742       21.373     2994.835     2677.272      456.793        0.490        0.306       60.025       13.706        0.052      348.139       27.617      864.455
08/17/2014  11:49:00      -57.434      -65.275       -5.292       60.432       43.566       33.807     3652.067     1898.005     1142.921        0.714        0.335       86.945       15.670        0.032      347.914       27.229      864.440
08/17/2014  11:50:00      -14.299      -18.640       18.534       25.868       38.682       25.945      669.128     1496.322      673.153        0.187        0.142       23.493       15.800        0.452      348.601       28.419      864.427
08/17/2014  11:51:00       65.992       27.158       48.696       80.504       44.301       41.068     6480.861     1962.609     1686.583        0.879        0.507       71.362       50.916        0.509      348.605       28.424      864.422
08/17/2014  11:52:00       32.755       22.112       11.312       56.068       36.516       36.024     3143.671     1333.438     1297.753        0.373        0.289       39.520        9.618        0.059      348.209       27.739      864.418
08/17/2014  11:53:00       17.016       26.581       38.244       65.584       48.632       40.506     4301.279     2365.043     1640.728        0.538        0.415       31.562       20.084        0.405      348.449       28.154      864.396
08/17/2014  11:54:00        4.692      -30.349       49.131       40.509       61.760       42.797     1640.962     3814.284     1831.612        0.532        0.364       30.709       18.387        0.359      348.706       28.598      864.368
08/17/2014  11:55:00       41.225       40.576       60.412       60.547       65.649       46.675     3665.923     4309.813     2178.581        0.857        0.508       57.843       42.064        0.529      348.297       27.891      864.361
08/17/2014  11:56:00      -11.147       30.037        4.471       29.375       77.819       26.451      862.874     6055.827      699.671        0.433        0.381       32.039       35.638        1.237      348.174       27.679      864.340
08/17/2014  11:57:00       -2.114       93.251        7.142       56.935       74.493       45.793     3241.606     5549.259     2096.989        0.982        0.544       93.275       44.118        0.224      348.489       28.224      864.313
08/17/2014  11:58:00       96.920      114.035        1.052       64.575       54.183       48.820     4169.871     2935.846     2383.402        1.594        0.474      149.657       39.457        0.070      348.235       27.781      864.314
08/17/2014  11:59:00      -19.488      179.461      -12.590       49.795       94.123       43.606     2479.548     8859.224     1901.470        2.299        0.662      180.516       41.428        0.053      348.175       27.676      864.312
08/17/2014  12:00:00      -21.867      199.859      -20.917       31.124       99.931       33.328      968.716     9986.169     1110.723        2.646        0.603      201.051       47.157        0.055      347.955       27.298      864.309
08/17/2014  12:01:00      -22.389       66.813        8.859       24.918       41.947       29.267      620.924     1759.537      856.560        0.414        0.162       70.465       23.435        0.111      348.694       28.579      864.300
08/17/2014  12:02:00      -10.253       30.680       15.871       20.495       41.907       24.698      420.061     1756.183      609.984        0.204        0.139       32.349       25.323        0.613      348.654       28.510      864.281
08/17/2014  12:03:00      -19.633       84.152        8.225       28.502       74.700       30.637      812.392     5580.067      938.637        0.743        0.367       86.412       42.973        0.247      348.372       28.021      864.252
08/17/2014  12:04:00      -11.992       56.641        4.934       21.791       40.290       27.555      474.855     1623.288      759.292        0.312        0.143       57.896       26.963        0.217      348.731       28.644      864.234
08/17/2014  12:05:00      -36.681      155.330       -9.409       29.893       66.550       32.631      893.615     4428.965     1064.790        1.597        0.319      159.602       37.612        0.056      348.079       27.513      864.213
08/17/2014  12:06:00      -39.076       82.104        1.434       35.271       61.496       32.367     1244.058     3781.743     1047.599        0.717        0.304       90.929       28.372        0.097      348.344       27.973      864.176
08/17/2014  12:07:00      -16.413       13.144       18.486       19.437       38.971       22.302      377.784     1518.707      497.373        0.159        0.120       21.027       20.798        0.978      348.571       28.365      864.157
08/17/2014  12:08:00      -50.477      -37.571       -2.122       40.917       32.063       19.804     1674.198     1028.063      392.192        0.353        0.155       62.924        6.632        0.011      347.982       27.346      864.122
08/17/2014  12:09:00       10.809       37.774       12.840       27.218       57.239       31.952      740.845     3276.354     1020.960        0.337        0.252       39.290       25.375        0.417      348.687       28.564      864.099
08/17/2014  12:10:00       43.056       90.361       10.262       75.725       49.051       41.590     5734.204     2406.012     1729.716        1.000        0.493      100.094       34.116        0.116      348.528       28.290      864.093
08/17/2014  12:11:00       96.711       89.475       13.168       76.530       44.205       38.864     5856.813     1954.048     1510.399        1.342        0.466      131.753       23.299        0.031      348.367       28.011      864.061
08/17/2014  12:12:00       40.695       52.077       14.108       40.280       42.164       33.436     1622.496     1777.779     1117.942        0.454        0.226       66.091       26.716        0.163      348.896       28.927      864.044
08/17/2014  12:13:00       32.776       72.756       63.896       48.550       41.672       49.166     2357.115     1736.551     2417.279        0.848        0.326       79.798       34.877        0.191      348.724       28.629      864.018
08/17/2014  12:14:00       32.662       10.490       10.849       53.412       45.236       34.708     2852.885     2046.272     1204.615        0.370        0.305       34.305       16.836        0.241      348.692       28.574      864.005
08/17/2014  12:15:00       26.920      -26.917       45.916       37.180       94.356       57.470     1382.380     8902.992     3302.829        0.857        0.679       38.068       69.535        3.336      348.296       27.888      863.982
08/17/2014  12:16:00       82.377      -31.250       24.839       53.256       57.332       45.212     2836.175     3286.924     2044.117        0.827        0.408       88.105       48.442        0.302      348.472       28.195      863.951
08/17/2014  12:17:00        3.782       64.654       84.892       30.427       40.461       36.266      925.804     1637.086     1315.199        0.764        0.194       64.764       17.234        0.071      348.840       28.831      863.925
08/17/2014  12:18:00       25.974       21.938       62.112       42.097       59.725       44.077     1772.190     3567.129     1942.775        0.615        0.364       33.999       44.124        1.684      348.827       28.808      863.909
08/17/2014  12:19:00        0.584      -35.067       41.517       30.820       55.646       39.531      949.875     3096.515     1562.733        0.428        0.280       35.071       11.331        0.104      349.019       29.140      863.896
08/17/2014  12:20:00      -39.493      -11.358        3.982       20.999       40.347       16.735      440.964     1627.919      280.045        0.203        0.117       41.094        8.145        0.039      348.847       28.843      863.882
08/17/2014  12:21:00       41.200      -94.795       -5.193       89.247       51.693       39.216     7964.964     2672.174     1537.906        1.144        0.609      103.361       38.843        0.141      348.746       28.666      863.869
08/17/2014  12:22:00       11.411     -150.000      -21.715       51.249       55.117       32.720     2626.450     3037.843     1070.581        1.492        0.337      150.433       31.004        0.042      348.323       27.934      863.847
08/17/2014  12:23:00       42.595     -111.285      -13.921       53.089       49.306       27.189     2818.495     2431.117      739.257        1.019        0.299      119.159       27.107        0.052      348.354       27.989      863.840
08/17/2014  12:24:00      -17.720      -53.247        1.108       62.516       57.986       36.166     3908.292     3362.348     1307.991        0.586        0.429       56.118       41.951        0.559      348.878       28.896      863.832
08/17/2014  12:25:00      -72.539      -20.707       12.594       35.454       32.579       20.807     1256.977     1061.368      432.944        0.430        0.138       75.437       16.836        0.050      348.713       28.609      863.823
08/17/2014  12:26:00      -64.768       -1.892       13.958       70.649       39.328       25.451     4991.285     1546.679      647.748        0.579        0.359       64.796       26.227        0.164      349.025       29.151      863.815
08/17/2014  12:27:00       89.724       74.032        5.700       71.323       46.267       43.787     5086.932     2140.609     1917.328        1.135        0.457      116.323       22.954        0.039      348.499       28.241      863.797
08/17/2014  12:28:00      130.579       93.149       24.106       92.938       69.803       44.803     8637.504     4872.392     2007.313        2.091        0.776      160.398       35.821        0.050      348.504       28.248      863.781
08/17/2014  12:29:00      212.369      164.282       24.774       88.195       71.574       59.996     7778.422     5122.790     3599.560        4.460        0.825      268.494       45.711        0.029      348.558       28.337      863.741
08/17/2014  12:30:00      166.089       95.944       11.525      112.508       79.232       46.952    12657.992     6277.705     2204.485        2.903        1.057      191.810       30.761        0.026      348.693       28.573      863.730
08/17/2014  12:31:00       99.044       94.406       -8.045       64.202       61.520       44.254     4121.850     3784.722     1958.405        1.432        0.493      136.829       36.803        0.072      348.505       28.250      863.730
08/17/2014  12:32:00       49.781       57.983       17.911       54.652       46.259       43.046     2986.818     2139.864     1852.988        0.657        0.349       76.421       31.399        0.169      348.949       29.018      863.713
08/17/2014  12:33:00       32.265       81.473      119.190       76.517       85.162       72.638     5854.855     7252.572     5276.243        2.013        0.919       87.629       73.277        0.699      348.785       28.735      863.702
08/17/2014  12:34:00       83.499       57.643      106.510       76.116       56.815       54.092     5793.614     3227.902     2925.911        1.679        0.597      101.463       40.469        0.159      348.647       28.495      863.699
08/17/2014  12:35:00      156.013       75.015       56.534       87.736       62.177       61.851     7697.536     3865.985     3825.565        2.427        0.769      173.110       51.756        0.089      348.534       28.299      863.690
08/17/2014  12:36:00      136.861       71.463       34.046       64.635       52.153       58.028     4177.688     2719.932     3367.267        1.763        0.513      154.395       44.330        0.082      348.534       28.300      863.693
08/17/2014  12:37:00       37.455       -8.081       44.378       33.381       45.153       32.454     1114.303     2038.800     1053.241        0.382        0.210       38.317       28.622        0.558      348.729       28.638      863.680
08/17/2014  12:38:00       -3.494       -1.851       18.167       16.460       27.948       23.142      270.928      781.071      535.537        0.097        0.079        3.954       14.744       13.905      348.738       28.653      863.665
08/17/2014  12:39:00      -11.527        2.172       15.500       21.460       32.776       25.700      460.538     1074.293      660.488        0.129        0.110       11.730       11.236        0.917      349.159       29.384      863.638
08/17/2014  12:40:00      -18.849        4.795        5.919       16.491       25.724       18.348      271.952      661.718      336.659        0.084        0.064       19.450        9.048        0.216      349.227       29.501      863.636
08/17/2014  12:41:00       32.528       37.175       17.812       37.339       56.725       29.550     1394.228     3217.749      873.203        0.412        0.274       49.397       22.739        0.212      349.366       29.743      863.636
08/17/2014  12:42:00       31.932       62.343       -2.220       32.094       37.817       28.148     1030.002     1430.092      792.285        0.408        0.163       70.045       19.982        0.081      348.577       28.376      863.615
08/17/2014  12:43:00       35.246        9.804       46.950       39.708       30.476       23.426     1576.752      928.763      548.779        0.330        0.153       36.584       17.004        0.216      348.949       29.019      863.597
08/17/2014  12:44:00       56.842       24.029       29.362       34.548       30.536       29.914     1193.552      932.428      894.861        0.385        0.151       61.712       22.082        0.128      348.641       28.486      863.583
08/17/2014  12:45:00      -56.760      -13.310       19.381       50.975       31.003       22.790     2598.486      961.167      519.404        0.393        0.204       58.300       26.944        0.214      349.168       29.399      863.562
08/17/2014  12:46:00      -11.775       33.318       30.000       48.792       37.674       31.624     2380.702     1419.344     1000.073        0.347        0.240       35.338       26.539        0.564      349.314       29.651      863.566
08/17/2014  12:47:00      -63.899       61.363       -0.041       45.729       62.337       35.131     2091.160     3885.865     1234.182        0.753        0.361       88.591       27.121        0.094      348.924       28.974      863.557
08/17/2014  12:48:00      -30.957      103.700        5.943       27.424       82.375       29.894      752.084     6785.597      893.658        1.009        0.422      108.222       32.501        0.090      349.156       29.377      863.542
08/17/2014  12:49:00       -4.129       82.682       11.240       23.701       64.157       31.602      561.727     4116.178      998.662        0.633        0.284       82.785       32.069        0.150      349.264       29.565      863.542
08/17/2014  12:50:00      -15.128       51.828       32.292       44.313       52.376       30.939     1963.658     2743.243      957.191        0.481        0.283       53.991       30.702        0.323      349.291       29.611      863.528
08/17/2014  12:51:00     -145.882      -69.688       -2.052       67.287       65.385       33.855     4527.605     4275.138     1146.183        1.804        0.497      161.672       30.284        0.035      348.727       28.632      863.519
08/17/2014  12:52:00     -123.882      -65.794      -16.334       57.563       43.899       35.271     3313.503     1927.152     1244.023        1.321        0.324      140.269       27.620        0.039      348.674       28.543      863.505
08/17/2014  12:53:00     -189.949      -82.167      -23.428      126.736       64.949       44.275    16061.914     4218.425     1960.279        3.281        1.112      206.959       40.069        0.037      348.562       28.348      863.479
08/17/2014  12:54:00     -221.852       10.092      -17.685       81.408       64.190       41.655     6627.190     4120.310     1735.143        3.106        0.624      222.082       40.769        0.034      348.699       28.582      863.478
08/17/2014  12:55:00      -88.071       81.744      -11.028       65.925       53.612       40.501     4346.081     2874.232     1640.313        1.171        0.443      120.161       40.352        0.113      348.771       28.710      863.474
08/17/2014  12:56:00      -83.630      169.772       -0.970       61.817       86.713       49.901     3821.328     7519.214     2490.131        2.482        0.692      189.252       42.539        0.051      348.945       29.012      863.461
08/17/2014  12:57:00      -64.489       44.304       -1.239       56.132       57.835       31.633     3150.787     3344.876     1000.645        0.681        0.375       78.241       37.642        0.231      348.939       29.000      863.448
08/17/2014  12:58:00     -140.437      -24.236       -3.649       61.688       63.576       39.079     3805.423     4041.884     1527.200        1.485        0.469      142.513       25.942        0.033      348.908       28.946      863.425
08/17/2014  12:59:00     -104.961        3.601       -0.996       54.794       48.769       29.486     3002.343     2378.461      869.436        0.864        0.313      105.022       32.151        0.094      348.991       29.092      863.413
08/17/2014  13:00:00     -169.927      -21.600       -8.605      104.041       76.101       38.856    10824.433     5791.360     1509.769        2.377        0.906      171.294       38.793        0.051      349.124       29.319      863.392
08/17/2014  13:01:00     -245.189        8.996      -28.859       48.599       92.754       35.601     2361.829     8603.222     1267.445        3.663        0.612      245.354       33.797        0.019      348.456       28.159      863.405
08/17/2014  13:02:00     -101.869       31.325       -9.343       65.959       45.621       33.617     4350.575     2081.266     1130.102        0.950        0.378      106.576       27.600        0.067      348.895       28.925      863.399
08/17/2014  13:03:00     -119.701       29.918       -8.172       61.014       79.701       38.781     3722.751     6352.196     1503.979        1.343        0.579      123.383       25.320        0.042      349.337       29.690      863.379
08/17/2014  13:04:00     -176.963       45.079      -21.243       69.219       52.210       28.843     4791.209     2725.891      831.917        2.107        0.417      182.614       26.638        0.021      348.870       28.881      863.380
08/17/2014  13:05:00      -92.939       99.895       -1.320       66.725       70.154       45.888     4452.258     4921.631     2105.710        1.505        0.574      136.443       44.202        0.105      349.118       29.312      863.374
08/17/2014  13:06:00     -225.204       54.474      -21.962       81.453       70.505       41.177     6634.666     4970.931     1695.512        3.373        0.665      231.698       37.130        0.026      348.924       28.972      863.372
08/17/2014  13:07:00     -189.314       21.582      -15.488       71.612       56.522       38.051     5128.232     3194.778     1447.903        2.316        0.489      190.540       21.553        0.013      348.665       28.524      863.374
08/17/2014  13:08:00      -27.265       40.464       22.293       33.979       40.481       33.627     1154.595     1638.723     1130.745        0.340        0.196       48.792       21.239        0.189      349.521       30.011      863.344
08/17/2014  13:09:00      -98.092       66.188      -12.931       68.924       98.572       36.829     4750.562     9716.415     1356.394        1.499        0.791      118.334       39.616        0.112      349.100       29.280      863.340
08/17/2014  13:10:00      -56.212       94.720        4.946       52.405       66.051       34.678     2746.252     4362.670     1202.534        1.023        0.416      110.144       28.317        0.066      349.398       29.796      863.330
08/17/2014  13:11:00      -45.260       57.028        5.705       54.409       51.039       36.063     2960.372     2605.030     1300.505        0.610        0.343       72.805       29.628        0.166      349.139       29.349      863.325
08/17/2014  13:12:00      -93.280       96.242      -15.403       62.333       63.389       33.934     3885.414     4018.153     1151.510        1.363        0.453      134.029       39.635        0.087      348.977       29.067      863.335
08/17/2014  13:13:00      -59.736       97.320       -0.455       47.259       54.592       44.109     2233.406     2980.267     1945.566        1.010        0.358      114.191       37.375        0.107      349.079       29.244      863.326
08/17/2014  13:14:00      -35.799       60.955        5.934       46.114       63.474       31.280     2126.529     4028.893      978.446        0.608        0.357       70.690       31.900        0.204      349.324       29.670      863.325
08/17/2014  13:15:00       22.322      177.330      -18.241       60.803       65.068       42.421     3696.970     4233.785     1799.557        2.100        0.487      178.730       36.524        0.042      348.832       28.814      863.308
08/17/2014  13:16:00       95.843       86.846      -10.795       38.565       64.465       38.081     1487.271     4155.799     1450.198        1.197        0.355      129.337       18.703        0.021      348.651       28.503      863.307
08/17/2014  13:17:00      101.803       52.068       25.759       63.933       54.495       37.176     4087.366     2969.736     1382.043        1.109        0.422      114.345       30.143        0.069      348.805       28.769      863.290
08/17/2014  13:18:00       79.121       62.062       29.067       55.982       44.393       46.282     3133.973     1970.696     2142.024        0.910        0.362      100.558       33.408        0.110      349.315       29.652      863.254
08/17/2014  13:19:00      126.543       81.375        7.189       61.130       48.444       42.440     3736.884     2346.848     1801.158        1.528        0.394      150.450       21.103        0.020      348.879       28.896      863.249
08/17/2014  13:20:00      122.430      121.599       83.365       93.589       84.250       80.247     8758.890     7098.101     6439.649        2.951        1.115      172.556       71.795        0.173      348.955       29.026      863.221
08/17/2014  13:21:00      102.143      102.459      113.524       92.397       85.819       61.707     8537.158     7364.843     3807.779        2.676        0.985      144.676       57.159        0.156      348.912       28.952      863.206
08/17/2014  13:22:00      136.564       91.667       62.316       63.447       45.616       44.803     4025.570     2080.781     2007.352        1.952        0.406      164.476       32.463        0.039      348.803       28.764      863.214
08/17/2014  13:23:00       56.614       52.778        2.390       63.930       53.522       32.467     4087.106     2864.627     1054.118        0.700        0.400       77.399       29.463        0.145      348.771       28.710      863.211
08/17/2014  13:24:00       67.505       30.104       26.235       68.652       53.599       35.482     4713.091     2872.817     1258.974        0.750        0.442       73.913       21.115        0.082      349.244       29.529      863.183
08/17/2014  13:25:00       58.947       95.372      109.444       73.925       66.106       60.257     5464.920     4369.981     3630.859        1.900        0.673      112.119       47.054        0.176      349.276       29.584      863.164
08/17/2014  13:26:00       61.856       70.634       49.959       49.902       42.858       56.902     2490.249     1836.782     3237.828        0.944        0.378       93.890       31.097        0.110      349.214       29.478      863.157
08/17/2014  13:27:00        9.613       47.194        8.625       27.208       41.915       22.479      740.280     1756.895      505.305        0.270        0.150       48.164       21.474        0.199      349.751       30.409      863.149
08/17/2014  13:28:00       22.987      102.440      -13.512       50.474       75.511       35.980     2547.583     5701.870     1294.547        1.037        0.477      104.987       30.327        0.083      349.254       29.546      863.143
08/17/2014  13:29:00       -1.871       85.620        5.616       22.980       52.223       31.384      528.099     2727.234      984.986        0.580        0.212       85.640       31.180        0.133      349.380       29.766      863.137
08/17/2014  13:30:00        6.056       94.292        5.410       45.772       66.783       37.839     2095.072     4459.961     1431.814        0.847        0.399       94.486       33.684        0.127      349.311       29.645      863.112
08/17/2014  13:31:00       13.411       32.539       50.651       45.857       68.646       38.078     2102.841     4712.277     1449.909        0.603        0.413       35.194       33.069        0.883      349.511       29.993      863.092
08/17/2014  13:32:00       30.418       27.431       39.641       44.580       45.012       34.014     1987.391     2026.111     1156.985        0.421        0.259       40.960       31.640        0.597      349.542       30.046      863.067
08/17/2014  13:33:00       40.263       63.038        6.007       52.390       72.470       40.475     2744.679     5251.884     1638.252        0.763        0.482       74.799       35.153        0.221      349.582       30.115      863.044
08/17/2014  13:34:00      108.877      146.793        6.604      120.832       78.149       58.585    14600.299     6107.246     3432.238        2.879        1.207      182.763       43.020        0.055      349.640       30.213      863.011
08/17/2014  13:35:00       80.107      134.977      -18.400       65.376       79.246       42.840     4274.077     6279.889     1835.258        1.868        0.619      156.959       45.776        0.085      349.282       29.596      863.024
08/17/2014  13:36:00       80.886      165.424      -16.430       69.332       77.667       53.772     4806.875     6032.225     2891.459        2.395        0.687      184.140       51.428        0.078      348.962       29.039      863.018
08/17/2014  13:37:00       15.526      159.284      -16.410       43.528       65.313       37.533     1894.730     4265.746     1408.746        1.672        0.378      160.039       41.287        0.067      349.057       29.204      863.013
08/17/2014  13:38:00       62.588       77.159       16.430       69.406       41.458       30.223     4817.207     1718.730      913.456        0.879        0.372       99.352       24.292        0.060      349.214       29.479      863.007
08/17/2014  13:39:00       44.209      147.858      -12.542       36.539       53.375       43.858     1335.125     2848.870     1923.559        1.504        0.305      154.326       36.127        0.055      349.034       29.166      862.999
08/17/2014  13:40:00      -42.027      171.246      -25.926       41.311       58.725       40.097     1706.630     3448.568     1607.754        1.926        0.338      176.328       31.302        0.032      349.006       29.116      862.979
08/17/2014  13:41:00       -1.638      142.343      -20.636       38.307       52.237       25.891     1467.425     2728.722      670.332        1.278        0.243      142.352       21.505        0.023      349.093       29.268      862.962
08/17/2014  13:42:00        8.500       80.809       13.088       58.304       69.854       41.070     3399.414     4879.598     1686.746        0.837        0.498       81.255       37.356        0.211      349.418       29.831      862.927
08/17/2014  13:43:00       73.016       66.413       10.365       95.629       40.247       31.470     9144.907     1619.789      990.375        1.080        0.588       98.701       24.901        0.064      349.451       29.886      862.898
08/17/2014  13:44:00       93.651      119.831        4.663       62.499       83.534       44.812     3906.129     6978.003     2008.151        1.802        0.645      152.085       41.984        0.076      349.226       29.496      862.882
08/17/2014  13:45:00       63.861      151.615       -6.482       84.642      106.684       70.792     7164.289    11381.554     5011.447        2.533        1.178      164.515       63.621        0.150      349.359       29.726      862.879
08/17/2014  13:46:00       46.258      147.306       22.469       78.008       92.042       73.882     6085.178     8471.667     5458.515        2.218        1.001      154.398       54.007        0.122      349.286       29.602      862.881
08/17/2014  13:47:00       95.979       62.626      117.650       82.335      149.983       92.961     6779.023    22494.941     8641.691        3.244        1.896      114.603      107.110        0.874      349.159       29.380      862.877
08/17/2014  13:48:00       70.181      -46.950       29.940       59.307       53.168       38.430     3517.355     2826.816     1476.864        0.792        0.391       84.438       35.527        0.177      349.387       29.776      862.861
08/17/2014  13:49:00       78.309       70.341       31.305       78.673       65.145       51.495     6189.373     4243.910     2651.750        1.257        0.654      105.263       42.940        0.166      349.698       30.317      862.842
08/17/2014  13:50:00       83.352       71.206       39.236       72.493       79.365       45.552     5255.248     6298.836     2074.997        1.359        0.681      109.626       28.087        0.066      349.644       30.224      862.823
08/17/2014  13:51:00      135.132       52.899       19.728       62.296       60.911       50.036     3880.836     3710.203     2503.637        1.577        0.505      145.117       26.714        0.034      349.551       30.062      862.802
08/17/2014  13:52:00      132.867      102.317       24.245      118.004       67.868       61.031    13924.971     4606.072     3724.808        2.548        1.113      167.698       38.085        0.052      349.517       30.002      862.802
08/17/2014  13:53:00      159.236      107.129       41.800       99.078       77.393       73.769     9816.487     5989.751     5441.864        2.991        1.062      191.918       38.870        0.041      349.236       29.515      862.767
08/17/2014  13:54:00      285.522      168.964       40.845      125.541       84.207       65.610    15760.564     7090.736     4304.643        6.944        1.358      331.771       49.366        0.022      349.301       29.626      862.745
08/17/2014  13:55:00      342.428      165.227       34.738      116.965      106.475       82.131    13680.849    11336.846     6745.559        8.876        1.588      380.206       67.266        0.031      349.138       29.343      862.728
08/17/2014  13:56:00      248.558      137.963       31.257      126.563       84.717       74.892    16018.166     7176.941     5608.757        5.529        1.440      284.280       43.674        0.024      349.270       29.573      862.718
08/17/2014  13:57:00      268.507      143.705       37.676      131.012      120.267       78.472    17164.138    14464.268     6157.828        6.597        1.889      304.544       47.997        0.025      349.399       29.794      862.690
08/17/2014  13:58:00      287.371      127.133       39.038      145.131       98.043       79.048    21062.872     9612.517     6248.594        6.859        1.846      314.237       50.224        0.026      349.261       29.556      862.685
08/17/2014  13:59:00      302.041      211.078       58.040      135.397       92.748       75.158    18332.278     8602.249     5648.678        8.586        1.629      368.487       43.618        0.014      349.268       29.568      862.678
08/17/2014  14:00:00      290.845      156.051       60.865      131.396      124.994       83.470    17264.876    15623.390     6967.232        7.624        1.993      330.065       50.463        0.023      349.379       29.760      862.659
08/17/2014  14:01:00      189.414      131.752       83.141      141.501       91.337       95.626    20022.573     8342.419     9144.358        4.882        1.875      230.729       86.737        0.141      349.576       30.102      862.662
08/17/2014  14:02:00       79.561       49.176       51.101       73.684       53.372       40.213     5429.393     2848.526     1617.119        1.063        0.495       93.533       22.507        0.058      349.602       30.148      862.640
08/17/2014  14:03:00      136.040       63.799       18.926       61.297       57.153       43.920     3757.377     3266.520     1928.992        1.594        0.448      150.257       15.975        0.011      349.763       30.429      862.603
08/17/2014  14:04:00      273.901      147.597       81.046      146.593      117.992      108.790    21489.424    13922.081    11835.182        7.530        2.362      311.137       84.944        0.075      349.706       30.327      862.560
08/17/2014  14:05:00      205.706      139.229       23.176      109.544       80.143       73.441    11999.989     6422.883     5393.559        4.302        1.191      248.394       52.620        0.045      349.762       30.425      862.582
08/17/2014  14:06:00      167.027      108.677       19.432       95.790       78.266       53.366     9175.734     6125.570     2847.902        2.911        0.907      199.270       21.481        0.012      349.517       30.001      862.614
08/17/2014  14:07:00       55.204       56.860        7.742       57.930       48.490       39.530     3355.881     2351.253     1562.614        0.680        0.363       79.250       25.090        0.100      349.718       30.351      862.612
08/17/2014  14:08:00      174.742      106.309       18.719      102.215       74.597       53.493    10447.887     5564.668     2861.457        3.053        0.944      204.539       38.635        0.036      349.471       29.922      862.620
08/17/2014  14:09:00      123.904       86.903        8.179       80.766       94.635       59.426     6523.095     8955.769     3531.397        2.099        0.951      151.342       57.342        0.144      349.706       30.330      862.617
08/17/2014  14:10:00      200.976      139.092       19.102      103.708       77.093       63.607    10755.307     5943.374     4045.836        4.042        1.037      244.413       43.605        0.032      349.601       30.146      862.609
08/17/2014  14:11:00      107.300       80.087       18.866       65.485       56.398       39.487     4288.241     3180.755     1559.230        1.365        0.451      133.893       26.837        0.040      349.564       30.083      862.610
08/17/2014  14:12:00       33.871      121.057      -12.639       57.350       82.174       39.181     3289.040     6752.639     1535.147        1.377        0.579      125.707       43.861        0.122      349.803       30.497      862.591
08/17/2014  14:13:00       30.909      231.638      -23.885       69.742      102.308       53.322     4863.904    10466.835     2843.259        3.667        0.909      233.691       55.326        0.056      349.493       29.958      862.567
08/17/2014  14:14:00        6.587      219.376      -15.849       44.947      127.125       44.724     2020.238    16160.795     2000.266        3.430        1.009      219.475       63.162        0.083      349.578       30.108      862.538
08/17/2014  14:15:00       77.624       42.803       12.839       58.682       63.021       54.858     3443.525     3971.699     3009.362        0.922        0.521       88.643       32.085        0.131      350.047       30.923      862.529
08/17/2014  14:16:00       32.041      -26.643       60.339       60.605       71.391       49.380     3672.955     5096.653     2438.378        0.829        0.560       41.671       42.637        1.047      350.110       31.032      862.515
08/17/2014  14:17:00      -13.387      -41.789       26.347       43.993       84.501       37.965     1935.385     7140.482     1441.372        0.657        0.526       43.881       25.387        0.335      350.207       31.200      862.499
08/17/2014  14:18:00      142.210       38.750       29.187      101.189       85.704       54.175    10239.253     7345.122     2934.962        2.154        1.026      147.395       37.163        0.064      349.863       30.601      862.508
08/17/2014  14:19:00      140.521       81.546       63.392      100.329       76.980       56.368    10065.871     5925.878     3177.359        2.479        0.958      162.468       35.762        0.048      349.879       30.629      862.493
08/17/2014  14:20:00      197.541       95.294       92.755      134.953       90.595       81.378    18212.325     8207.501     6622.369        4.487        1.652      219.325       74.952        0.117      349.654       30.238      862.486
08/17/2014  14:21:00      153.303      137.234       80.622      104.766       72.387       56.211    10975.964     5239.914     3159.646        3.410        0.969      205.755       40.667        0.039      349.593       30.131      862.496
08/17/2014  14:22:00      118.987       67.424       39.819       73.117       70.334       60.039     5346.071     4946.842     3604.632        1.709        0.695      136.762       38.650        0.080      349.731       30.372      862.515
08/17/2014  14:23:00       82.801       18.979       35.017       82.248       58.239       55.319     6764.688     3391.771     3060.154        1.083        0.661       84.948       48.882        0.331      349.816       30.522      862.504
08/17/2014  14:24:00       66.335       55.176       52.983       52.707       60.831       45.312     2778.063     3700.389     2053.147        0.939        0.427       86.283       35.987        0.174      349.837       30.557      862.504
08/17/2014  14:25:00      153.190      133.606       98.137       97.803       75.863       75.326     9565.429     5755.228     5674.073        3.597        1.050      203.268       54.662        0.072      349.474       29.924      862.507
08/17/2014  14:26:00      104.070       57.258      -11.943       81.229       53.128       41.733     6598.173     2822.582     1741.634        1.270        0.558      118.782       24.548        0.043      349.251       29.540      862.516
08/17/2014  14:27:00       56.230       63.346      -12.186       51.420       83.184       42.563     2644.064     6919.566     1811.576        0.935        0.569       84.702       28.546        0.114      349.585       30.120      862.501
08/17/2014  14:28:00      111.487      177.666       -5.702       90.389       63.503       51.723     8170.159     4032.635     2675.300        2.945        0.744      209.749       44.571        0.045      349.351       29.711      862.501
08/17/2014  14:29:00        2.490      115.654       -0.703       42.761       80.789       37.436     1828.519     6526.893     1401.481        1.157        0.488      115.681       41.924        0.131      349.462       29.907      862.492
08/17/2014  14:30:00       18.942       82.441        1.462       46.890       71.164       34.355     2198.680     5064.310     1180.264        0.780        0.422       84.589       38.061        0.202      349.580       30.112      862.460
08/17/2014  14:31:00      -40.738       27.607        2.928       44.859       36.136       26.811     2012.362     1305.780      718.804        0.323        0.202       49.211       31.457        0.409      349.959       30.770      862.433
08/17/2014  14:32:00       11.919       31.676       -4.351       37.390       27.021       26.603     1397.983      730.156      707.697        0.200        0.142       33.844       24.589        0.528      349.661       30.253      862.418
08/17/2014  14:33:00      -34.128       26.356        8.532       71.210       28.297       24.533     5070.825      800.724      601.847        0.420        0.324       43.121       32.766        0.577      349.899       30.666      862.407
08/17/2014  14:34:00     -131.873       16.346       -1.270       86.901       77.912       32.262     7551.811     6070.327     1040.855        1.616        0.733      132.882       33.560        0.064      349.987       30.818      862.392
08/17/2014  14:35:00      -95.871       87.278       -9.129      110.318       80.830       53.588    12169.988     6533.529     2871.660        1.923        1.079      129.649       70.106        0.292      350.118       31.047      862.376
08/17/2014  14:36:00      -73.384      106.096      -37.890       55.830       64.083       27.355     3116.973     4106.617      748.290        1.302        0.399      129.002       27.907        0.047      349.256       29.549      862.393
08/17/2014  14:37:00      -34.504       27.774        4.355       26.355       34.658       28.028      694.590     1201.179      785.552        0.233        0.134       44.294       20.388        0.212      349.698       30.316      862.366
08/17/2014  14:38:00      -67.135       -0.020        0.163       75.317       45.219       34.027     5672.696     2044.768     1157.838        0.669        0.444       67.135       42.288        0.397      349.992       30.827      862.361
08/17/2014  14:39:00        3.029       65.171       11.761       74.406       45.559       34.157     5536.270     2075.601     1166.727        0.658        0.439       65.241       36.378        0.311      349.767       30.438      862.366
08/17/2014  14:40:00       -9.526       40.678       -3.483       33.113       34.184       33.720     1096.481     1168.568     1137.045        0.258        0.170       41.778       23.865        0.326      349.678       30.282      862.352
08/17/2014  14:41:00      -10.757       75.343       -5.946       44.149       64.829       33.071     1949.137     4202.755     1093.712        0.654        0.362       76.107       36.235        0.227      349.642       30.219      862.334
08/17/2014  14:42:00        7.586      121.849        0.815       47.989      121.508       40.529     2302.989    14764.269     1642.563        1.680        0.935      122.085       54.711        0.201      350.024       30.881      862.312
08/17/2014  14:43:00      118.928      167.119      -14.233       88.084       83.938       60.195     7758.780     7045.558     3623.475        3.035        0.921      205.116       54.640        0.071      349.593       30.131      862.304
08/17/2014  14:44:00      159.854       93.571       53.983      104.133       93.403       62.018    10843.649     8724.117     3846.202        3.031        1.171      185.226       63.431        0.117      349.612       30.166      862.271
08/17/2014  14:45:00      172.255       93.158       19.138       98.182       62.005       51.806     9639.667     3844.595     2683.876        2.744        0.808      195.832       42.130        0.046      349.828       30.540      862.240
08/17/2014  14:46:00       76.063       62.182       -1.678       58.616       56.951       32.570     3435.888     3243.424     1060.805        0.870        0.387       98.246       21.908        0.050      349.914       30.690      862.220
08/17/2014  14:47:00       64.455       21.208       30.046       58.289       46.789       37.251     3397.566     2189.244     1387.646        0.624        0.349       67.854       22.089        0.106      350.079       30.979      862.226
08/17/2014  14:48:00      -83.442      -41.558        0.230      100.052       52.440       28.160    10010.357     2749.990      792.981        1.112        0.678       93.218       34.151        0.134      350.165       31.129      862.222
08/17/2014  14:49:00      -39.338      -57.429       18.865       78.547       52.324       37.835     6169.555     2737.774     1431.503        0.777        0.517       69.610       37.976        0.298      350.356       31.460      862.214
08/17/2014  14:50:00     -172.956     -142.928       -6.993      112.033       76.804       50.272    12551.501     5898.890     2527.257        3.568        1.049      224.371       53.310        0.056      350.064       30.948      862.209
08/17/2014  14:51:00      -57.650      -49.282       12.154       88.939       43.024       45.248     7910.073     1851.090     2047.350        0.885        0.590       75.844       54.995        0.526      349.890       30.651      862.197
08/17/2014  14:52:00     -212.096     -101.965       -2.833      119.621       86.740       52.701    14309.288     7523.792     2777.392        4.000        1.231      235.333       54.087        0.053      349.873       30.617      862.177
08/17/2014  14:53:00     -226.055     -114.094       -8.050       88.121      105.948       41.054     7765.261    11224.946     1685.440        4.243        1.034      253.216       24.931        0.010      350.029       30.888      862.184
08/17/2014  14:54:00     -125.589      -13.762        5.528      121.784       65.164       40.958    14831.257     4246.377     1677.592        1.837        1.038      126.341       49.790        0.155      350.260       31.292      862.165
08/17/2014  14:55:00     -301.447     -234.548        0.775      227.102      121.933       76.342    51575.201    14867.585     5828.140       10.906        3.614      381.947       84.760        0.049      350.024       30.880      862.157
08/17/2014  14:56:00     -405.753     -217.231      -28.345      184.457      156.858       75.441    34024.403    24604.473     5691.418       13.846        3.216      460.245       83.127        0.033      349.748       30.401      862.138
08/17/2014  14:57:00     -252.476       34.565      -19.004      101.557       85.547       53.153    10313.797     7318.257     2825.195        4.287        1.023      254.831       50.756        0.040      349.906       30.675      862.154
08/17/2014  14:58:00      -18.369     -131.174        7.206       51.343       77.454       25.728     2636.080     5999.053      661.945        1.344        0.465      132.454       28.801        0.047      349.746       30.400      862.115
08/17/2014  14:59:00     -268.939       15.953      -23.745      196.761      111.056       58.828    38714.847    12333.383     3460.683        6.382        2.725      269.412       87.127        0.105      350.058       30.938      862.088
08/17/2014  15:00:00     -521.241      -20.206      -52.596      123.170      135.694       66.564    15170.948    18412.746     4430.720       15.643        1.901      521.632       56.140        0.012      349.872       30.616      862.046
08/17/2014  15:01:00     -306.283     -190.427      -14.707      195.885      109.498       71.654    38371.070    11989.914     5134.256        9.288        2.775      360.654       69.035        0.037      350.025       30.881      862.024
08/17/2014  15:02:00     -110.520     -139.648        5.670      130.923      152.279       55.830    17140.919    23189.002     3116.995        3.759        2.172      178.090       43.868        0.061      350.113       31.036      862.033
08/17/2014  15:03:00     -397.708     -239.736       -2.888      137.292      122.090       70.988    18849.083    14905.892     5039.340       12.722        1.940      464.376       74.674        0.026      349.774       30.444      861.996
08/17/2014  15:04:00     -312.797      -84.632      -15.132      116.625       85.478       46.912    13601.332     7306.506     2200.756        6.417        1.155      324.044       58.234        0.032      349.967       30.780      861.994
08/17/2014  15:05:00     -176.968     -183.214       23.705      143.904      156.905       84.443    20708.221    24619.076     7130.600        5.894        2.623      254.725       93.691        0.135      350.120       31.046      861.987
08/17/2014  15:06:00     -211.856     -158.859      -10.719      155.832      106.626       66.060    24283.657    11369.156     4363.877        5.512        2.001      264.800       75.245        0.081      350.017       30.867      862.010
08/17/2014  15:07:00     -243.672      -90.773       -7.509      150.425      150.277       62.407    22627.688    22583.100     3894.612        5.838        2.455      260.030       68.857        0.070      350.002       30.841      861.986
08/17/2014  15:08:00     -405.287      -97.980        1.032      210.554      144.700       59.172    44333.005    20937.955     3501.300       12.130        3.439      416.963       73.570        0.031      349.945       30.743      861.961
08/17/2014  15:09:00     -124.696      -62.312        7.374      104.149       99.845       48.193    10847.030     9969.081     2322.530        2.131        1.157      139.398       43.806        0.099      350.241       31.259      861.950
08/17/2014  15:10:00     -189.388     -173.634       -2.737      131.383      112.972       76.536    17261.431    12762.605     5857.695        5.095        1.794      256.937       64.463        0.063      350.051       30.925      861.940
08/17/2014  15:11:00     -122.780     -116.173        1.233       84.843       81.365       40.388     7198.338     6620.254     1631.162        2.201        0.772      169.030       29.164        0.030      350.065       30.951      861.910
08/17/2014  15:12:00     -108.868      -96.249        1.546       89.445       75.042       41.969     8000.353     5631.305     1761.420        1.825        0.770      145.314       37.135        0.065      350.235       31.248      861.894
08/17/2014  15:13:00     -238.589     -133.242        9.562      158.755      135.082       64.137    25203.150    18247.277     4113.518        6.116        2.378      273.273       88.184        0.104      350.229       31.235      861.879
08/17/2014  15:14:00     -123.704     -112.096       14.085      124.007       86.282       59.453    15377.663     7444.519     3534.691        2.721        1.318      166.938       67.238        0.162      350.264       31.298      861.884
08/17/2014  15:15:00     -165.598      -58.868       -3.234      146.416      103.386       60.897    21437.719    10688.684     3708.483        3.336        1.792      175.750       69.304        0.155      350.575       31.839      861.876
08/17/2014  15:16:00     -306.075     -163.504      -21.766      110.719       88.516       67.559    12258.694     7835.049     4564.164        7.277        1.233      347.009       59.075        0.029      349.868       30.607      861.858
08/17/2014  15:17:00     -203.222      -25.499       -7.127      142.869      117.592       58.353    20411.664    13827.850     3405.028        3.981        1.882      204.816       62.830        0.094      350.030       30.892      861.842
08/17/2014  15:18:00     -166.253      -10.485       -8.920       91.116       65.005       35.553     8302.148     4225.640     1264.012        2.081        0.690      166.583       37.802        0.051      349.957       30.766      861.826
08/17/2014  15:19:00     -224.465        4.652        0.864       97.143       98.871       35.610     9436.855     9775.445     1268.073        3.544        1.024      224.513       34.825        0.024      350.111       31.032      861.803
08/17/2014  15:20:00     -325.185     -152.473       -6.627      148.741      156.480       68.470    22123.781    24486.020     4688.077        9.016        2.565      359.156       54.543        0.023      350.221       31.222      861.812
08/17/2014  15:21:00     -239.641     -215.149       -5.186      127.521      100.107       71.419    16261.602    10021.408     5100.642        6.756        1.569      322.051       77.444        0.058      349.777       30.451      861.807
08/17/2014  15:22:00     -271.360     -147.327      -11.120      141.643       87.778       57.557    20062.640     7705.027     3312.822        6.327        1.554      308.774       55.681        0.033      350.080       30.977      861.765
08/17/2014  15:23:00      -59.500      -28.142       22.076      110.066       88.595       61.285    12114.494     7848.999     3755.862        1.426        1.186       65.820       67.209        1.043      350.388       31.514      861.740
08/17/2014  15:24:00     -118.065       47.444       -8.452       90.307       94.206       53.561     8155.321     8874.759     2868.813        1.808        0.995      127.241       43.738        0.118      350.474       31.664      861.740
08/17/2014  15:25:00     -163.240      -40.227       15.434      144.479       95.520       51.460    20874.170     9124.001     2648.106        3.057        1.632      168.123       63.724        0.144      350.577       31.843      861.745
08/17/2014  15:26:00     -263.601      -50.601        3.550      130.258       97.865       53.996    16967.052     9577.637     2915.562        5.075        1.473      268.414       61.807        0.053      350.474       31.661      861.739
08/17/2014  15:27:00     -117.230      -92.756       17.332      153.185       87.246       64.186    23465.785     7611.903     4119.836        2.892        1.760      149.487       75.105        0.252      350.378       31.497      861.722
08/17/2014  15:28:00     -268.471      -93.509       -8.574      146.373       88.270       55.787    21425.102     7791.650     3112.241        5.661        1.616      284.289       63.328        0.050      350.266       31.301      861.711
08/17/2014  15:29:00     -273.802     -217.224        1.745      141.727      109.650       66.538    20086.565    12023.165     4427.244        7.934        1.827      349.505       64.865        0.034      350.005       30.847      861.695
08/17/2014  15:30:00     -171.604      -78.130       -1.932       92.303       83.963       50.305     8519.781     7049.851     2530.562        2.682        0.905      188.553       40.735        0.047      350.084       30.985      861.676
08/17/2014  15:31:00     -131.043     -233.990      -12.081       79.064       64.537       46.018     6251.053     4165.082     2117.672        4.230        0.627      268.185       39.135        0.021      350.104       31.017      861.645
08/17/2014  15:32:00     -234.491      -85.817       -8.927       96.760       55.618       38.626     9362.470     3093.404     1491.941        3.819        0.697      249.700       41.234        0.027      350.427       31.580      861.656
08/17/2014  15:33:00     -134.887      -25.986       13.352      139.514       77.829       45.465    19464.233     6057.358     2067.104        2.331        1.379      137.367       62.810        0.209      350.417       31.565      861.631
08/17/2014  15:34:00      -70.122      -26.738        5.006       87.346       66.058       43.924     7629.333     4363.616     1929.285        0.979        0.696       75.047       47.803        0.406      350.612       31.904      861.621
08/17/2014  15:35:00     -175.610     -102.511       -2.875      107.928       69.474       46.129    11648.446     4826.582     2127.839        2.998        0.930      203.341       28.684        0.020      350.373       31.489      861.614
08/17/2014  15:36:00     -292.038      -17.437       -0.018      236.095      149.237       86.453    55741.012    22271.639     7474.048        8.552        4.274      292.558      113.881        0.152      350.276       31.318      861.594
08/17/2014  15:37:00     -363.495      -43.183       -4.589      175.914      167.612       76.884    30945.778    28093.831     5911.168        9.947        3.248      366.051       79.000        0.047      350.389       31.513      861.589
08/17/2014  15:38:00     -211.091     -103.157        7.861      140.946      125.910       69.491    19865.905    15853.407     4829.042        4.790        2.027      234.948       81.853        0.121      350.549       31.794      861.608
08/17/2014  15:39:00     -332.076      -57.213      -32.093      183.929       89.715       63.170    33829.743     8048.799     3990.415        8.021        2.293      336.968       84.903        0.063      350.162       31.119      861.592
08/17/2014  15:40:00     -167.494      -74.939       -9.882      115.011       86.630       44.461    13227.619     7504.776     1976.763        2.823        1.135      183.494       31.295        0.029      350.432       31.590      861.595
08/17/2014  15:41:00     -348.509      -54.785      -29.368      167.371      145.957       52.121    28013.149    21303.445     2716.577        8.867        2.602      352.788       58.150        0.027      350.487       31.685      861.590
08/17/2014  15:42:00     -376.305      -86.358      -11.428      164.904      140.532       63.402    27193.322    19749.380     4019.779       10.007        2.548      386.087       65.874        0.029      350.433       31.590      861.561
08/17/2014  15:43:00     -465.198     -125.064      -30.663      180.472      141.818       89.996    32570.217    20112.343     8099.211       14.687        3.039      481.716       87.724        0.033      350.022       30.875      861.547
08/17/2014  15:44:00     -458.889      -53.238      -34.139      139.824      124.498       62.368    19550.748    15499.801     3889.803       12.675        1.947      461.967       59.647        0.017      350.043       30.913      861.552
08/17/2014  15:45:00     -434.882       -8.395      -25.129      152.400      111.707       75.764    23225.710    12478.511     5740.146       11.563        2.072      434.963       89.299        0.042      350.219       31.219      861.553
08/17/2014  15:46:00     -200.037     -144.078        7.338      174.872      125.293       61.621    30580.262    15698.310     3797.119        5.544        2.504      246.522       65.745        0.071      350.065       30.952      861.558
08/17/2014  15:47:00     -110.330      -23.621       -4.308       81.203       73.771       44.953     6593.956     5442.161     2020.766        1.340        0.703      112.830       24.747        0.048      350.468       31.656      861.548
08/17/2014  15:48:00     -292.710      -92.249      -15.787      105.909       87.903       48.425    11216.780     7726.997     2344.974        5.786        1.064      306.903       47.375        0.024      350.053       30.930      861.539
08/17/2014  15:49:00     -242.035      -99.926        0.862      127.558      113.585       54.812    16271.046    12901.451     3004.361        5.037        1.609      261.851       59.430        0.052      350.291       31.343      861.537
08/17/2014  15:50:00     -266.376     -192.293      -17.299      144.839      108.928       68.128    20978.428    11865.354     4641.407        7.285        1.874      328.531       67.350        0.042      350.289       31.340      861.533
08/17/2014  15:51:00     -239.380      -58.910      -17.899      129.123      108.697       63.337    16672.789    11814.956     4011.535        4.679        1.625      246.522       65.441        0.070      350.368       31.479      861.516
08/17/2014  15:52:00     -153.147       45.351       -8.035      109.964       54.121       44.906    12091.979     2929.067     2016.554        2.130        0.852      159.721       33.743        0.045      350.627       31.931      861.518
08/17/2014  15:53:00     -239.221       28.370      -18.067       99.720       70.749       49.430     9944.119     5005.388     2443.327        3.787        0.870      240.897       51.011        0.045      350.230       31.237      861.520
08/17/2014  15:54:00     -245.125       61.665      -21.490      112.977       85.361       55.079    12763.870     7286.506     3033.656        4.371        1.154      252.763       55.729        0.049      350.330       31.412      861.495
08/17/2014  15:55:00     -310.181       67.043      -41.888       90.927      112.289       55.391     8267.741    12608.914     3068.133        6.320        1.197      317.343       48.315        0.023      350.226       31.230      861.486
08/17/2014  15:56:00     -463.943       60.279      -40.297       97.557       93.668       55.900     9517.433     8773.685     3124.798       12.095        1.071      467.842       42.019        0.008      350.072       30.963      861.458
08/17/2014  15:57:00     -251.019       54.705      -26.978      104.063       79.653       47.979    10829.054     6344.546     2302.023        4.310        0.974      256.910       41.699        0.026      350.225       31.231      861.460
08/17/2014  15:58:00     -132.939      -31.876      -10.337      110.213      108.145       41.189    12146.868    11695.439     1696.493        2.216        1.277      136.707       39.108        0.082      350.237       31.252      861.425
08/17/2014  15:59:00     -135.261      -60.092        2.058       77.286       68.226       31.273     5973.149     4654.724      978.001        1.676        0.580      148.009       27.222        0.034      350.239       31.255      861.409
08/17/2014  16:00:00     -333.769     -104.881      -14.560      145.822      123.911       61.686    21264.161    15353.993     3805.134        8.151        2.021      349.860       55.565        0.025      350.276       31.318      861.404
08/17/2014  16:01:00     -278.222     -188.839       -6.638      196.985      138.703       75.770    38802.925    19238.502     5741.047        8.843        3.189      336.255       88.355        0.069      350.275       31.315      861.408
08/17/2014  16:02:00     -366.790     -174.398      -27.936      158.240      128.293       65.898    25039.775    16459.090     4342.547       10.578        2.292      406.140       72.780        0.032      350.260       31.290      861.421
08/17/2014  16:03:00     -273.068      -77.427      -13.966      147.686      107.075       66.080    21811.239    11465.082     4366.602        5.919        1.882      283.833       76.549        0.073      350.466       31.649      861.426
08/17/2014  16:04:00     -252.231     -137.305       -2.706      167.409      146.382       70.019    28025.662    21427.772     4902.605        6.841        2.718      287.181       78.255        0.074      350.323       31.400      861.410
08/17/2014  16:05:00     -122.746      -85.162       12.058      152.074      116.494       74.021    23126.367    13570.860     5479.182        3.231        2.109      149.396       68.073        0.208      350.382       31.503      861.388
08/17/2014  16:06:00     -285.748     -165.183        0.970      179.648      141.485       84.414    32273.573    20017.920     7125.671        8.417        2.971      330.057       97.972        0.088      350.163       31.120      861.388
08/17/2014  16:07:00     -354.841     -300.631       -9.758      188.759      169.550       89.041    35630.043    28747.075     7928.281       14.433        3.615      465.071       97.928        0.044      350.229       31.236      861.381
08/17/2014  16:08:00     -320.421     -237.720        9.346      221.212      145.926       93.838    48934.955    21294.523     8805.557       11.914        3.952      398.974      109.891        0.076      350.093       31.000      861.382
08/17/2014  16:09:00     -416.723     -315.915       -1.335      201.302      206.805      104.354    40522.609    42768.179    10889.672       18.380        4.709      522.934      103.880        0.039      350.005       30.846      861.385
08/17/2014  16:10:00     -310.189     -320.234      -11.604      171.636      160.589       78.725    29458.761    25788.811     6197.699       13.016        3.072      445.833       70.977        0.025      349.961       30.770      861.423
08/17/2014  16:11:00     -349.766     -169.953      -14.592      161.025      142.864       66.708    25929.140    20410.147     4449.899       10.110        2.539      388.870       72.568        0.035      349.938       30.729      861.429
08/17/2014  16:12:00     -276.363     -107.769        9.258      236.765      171.724       79.375    56057.799    29489.049     6300.418        8.994        4.592      296.632       85.356        0.083      350.198       31.183      861.402
08/17/2014  16:13:00     -336.023     -267.729      -22.306      138.493      134.038       63.844    19180.439    17966.114     4076.039       11.315        2.061      429.640       58.837        0.019      349.860       30.595      861.462
08/17/2014  16:14:00     -310.811     -131.727      -11.367      144.283       87.433       59.510    20817.646     7644.600     3541.459        7.304        1.600      337.573       58.732        0.030      350.107       31.025      861.472
08/17/2014  16:15:00     -222.240     -205.043        1.417      218.813      100.377       56.617    47879.294    10075.633     3205.519        7.629        3.058      302.379       74.007        0.060      349.844       30.568      861.471
08/17/2014  16:16:00     -244.065     -271.702       -2.272      210.176      153.821       84.912    44173.923    23660.938     7210.075       10.421        3.752      365.226       98.718        0.073      350.065       30.951      861.418
08/17/2014  16:17:00     -237.949     -151.140       23.307      215.691      199.178       99.652    46522.431    39671.864     9930.609        8.805        4.806      281.892      122.187        0.188      350.131       31.065      861.410
08/17/2014  16:18:00     -139.323     -146.049       15.907      144.420      113.190       77.921    20857.030    12812.038     6071.688        4.036        1.987      201.844       70.393        0.122      350.171       31.136      861.445
08/17/2014  16:19:00     -189.443     -149.215        8.347      157.838      111.055       69.136    24912.882    12333.160     4779.748        5.012        2.101      241.151       81.146        0.113      350.053       30.931      861.419
08/17/2014  16:20:00     -131.028      -27.424        7.972      114.510      112.540       52.610    13112.646    12665.198     2767.862        2.326        1.427      133.867       57.666        0.186      350.255       31.283      861.421
08/17/2014  16:21:00     -244.532      -45.351      -16.010       90.831       93.171       46.442     8250.225     8680.777     2156.825        4.059        0.954      248.702       46.261        0.035      350.009       30.854      861.424
08/17/2014  16:22:00     -423.726     -117.941      -24.180      140.307       85.055       48.611    19686.028     7234.273     2363.005       11.165        1.464      439.834       34.880        0.006      349.972       30.788      861.414
08/17/2014  16:23:00     -264.807      -48.217       -7.804       88.252       70.877       41.128     7788.414     5023.604     1691.541        4.350        0.725      269.161       33.800        0.016      350.327       31.405      861.425
08/17/2014  16:24:00     -115.089      -41.683        7.745       97.248       84.269       39.148     9457.236     7101.193     1532.595        1.656        0.905      122.405       40.536        0.110      350.450       31.623      861.427
08/17/2014  16:25:00     -239.683       17.083      -20.177       98.101       65.388       46.893     9623.808     4275.576     2198.911        3.712        0.805      240.291       49.264        0.042      350.312       31.380      861.412
08/17/2014  16:26:00     -435.888      -68.308      -31.732      150.606      170.684       80.647    22682.250    29132.991     6503.934       12.698        2.916      441.208       83.855        0.036      350.225       31.231      861.366
08/17/2014  16:27:00     -448.559      -76.101      -22.605      198.972      139.671       84.615    39589.869    19507.853     7159.701       13.687        3.313      454.969       89.275        0.039      350.307       31.371      861.325
08/17/2014  16:28:00     -315.693      -54.575       -0.271      235.121      182.147       94.351    55281.865    33177.428     8902.095        9.998        4.868      320.375      103.571        0.105      350.353       31.452      861.322
08/17/2014  16:29:00     -215.129     -139.085        6.480      202.069      150.416       79.757    40831.747    22624.948     6361.250        6.773        3.491      256.174       92.760        0.131      350.331       31.414      861.354
08/17/2014  16:30:00     -191.186      -28.601        8.806      157.823      110.443       82.694    24908.101    12197.617     6838.358        4.069        2.197      193.313       79.717        0.170      350.321       31.396      861.335
08/17/2014  16:31:00     -307.302       -6.565       -5.820      174.160      131.722       66.871    30331.821    17350.689     4471.729        7.332        2.608      307.372       72.240        0.055      350.369       31.480      861.347
08/17/2014  16:32:00     -205.342     -130.385        1.474      135.042      125.378       67.045    18236.331    15719.560     4494.966        4.880        1.923      243.240       73.152        0.090      350.187       31.161      861.335
08/17/2014  16:33:00     -312.134      -40.675      -10.791      133.363      122.365       64.810    17785.805    14973.301     4200.392        6.807        1.848      314.773       70.006        0.049      350.230       31.237      861.324
08/17/2014  16:34:00     -251.077     -102.063      -15.193      120.777       93.822       58.502    14586.967     8802.510     3422.476        5.024        1.341      271.029       58.834        0.047      350.245       31.264      861.326
08/17/2014  16:35:00     -205.388     -134.455       17.221      126.102      109.534       70.089    15901.741    11997.625     4912.404        4.668        1.641      245.484       73.039        0.089      350.260       31.290      861.303
08/17/2014  16:36:00     -251.282     -133.363        8.044      157.077       86.150       66.969    24673.181     7421.745     4484.897        5.878        1.829      284.480       76.310        0.072      350.301       31.360      861.300
08/17/2014  16:37:00     -303.709     -210.640        2.989      180.080      138.801       76.755    32428.720    19265.854     5891.355        9.709        2.879      369.606       86.555        0.055      350.158       31.113      861.297
08/17/2014  16:38:00     -359.416     -202.078      -10.591      201.281      163.598       95.278    40514.238    26764.380     9077.967       12.323        3.818      412.329       92.070        0.050      350.060       30.941      861.292
08/17/2014  16:39:00     -329.439     -245.432      -20.848      165.943      128.621       73.548    27537.042    16543.349     5409.328       10.934        2.474      410.812       68.943        0.028      350.006       30.848      861.303
08/17/2014  16:40:00     -360.071     -212.171       -8.457      166.479      128.108       75.462    27715.409    16411.768     5694.486       11.227        2.491      417.933       68.831        0.027      349.994       30.826      861.306
08/17/2014  16:41:00     -326.643     -250.026       -4.183      156.222      126.500       74.065    24405.366    16002.155     5485.575       10.755        2.295      411.350       76.088        0.034      349.903       30.670      861.285
08/17/2014  16:42:00     -238.033      -19.146       -8.512      102.384      122.606       48.288    10482.582    15032.257     2331.697        4.247        1.392      238.802       53.811        0.051      350.196       31.176      861.300
08/17/2014  16:43:00     -145.484      -41.805        9.455      132.741       94.143       66.466    17620.217     8862.961     4417.769        2.695        1.545      151.371       68.780        0.206      350.430       31.585      861.270
08/17/2014  16:44:00     -204.359      -94.542      -16.454      120.837       92.038       55.351    14601.622     8470.930     3063.711        3.855        1.307      225.168       54.097        0.058      350.356       31.456      861.290
08/17/2014  16:45:00     -157.897     -100.829       -8.182      114.448      111.653       49.286    13098.358    12466.332     2429.061        3.157        1.400      187.344       52.245        0.078      350.143       31.086      861.280
08/17/2014  16:46:00     -184.155      -55.069       12.338      147.220      135.748       71.125    21673.757    18427.597     5058.800        4.112        2.258      192.213       77.283        0.162      350.355       31.458      861.255
08/17/2014  16:47:00     -288.024      -41.133       -8.605      201.095      114.029       64.340    40439.230    13002.520     4139.603        7.114        2.879      290.947       84.161        0.084      350.114       31.035      861.260
08/17/2014  16:48:00     -369.578      -50.053        0.565      162.504      119.898       71.466    26407.678    14375.497     5107.346        9.248        2.295      372.952       79.529        0.045      350.132       31.067      861.241
08/17/2014  16:49:00     -230.367     -195.608       15.059      182.436      108.728       78.130    33282.956    11821.789     6104.287        7.137        2.560      302.211       90.612        0.090      350.209       31.201      861.248
08/17/2014  16:50:00     -467.261     -166.518       -5.923      179.215      158.387       88.750    32117.936    25086.313     7876.478       15.558        3.254      496.046       96.135        0.038      350.117       31.041      861.248
08/17/2014  16:51:00     -287.796      -77.509        5.472      173.922      131.873       66.776    30248.713    17390.537     4459.049        7.047        2.605      298.050       71.529        0.058      350.299       31.358      861.264
08/17/2014  16:52:00     -252.385      -66.300       -8.945      153.806      119.885       71.044    23656.212    14372.397     5047.211        5.562        2.154      260.948       78.344        0.090      350.304       31.366      861.258
08/17/2014  16:53:00     -154.114      -64.489       17.835      118.661       80.445       57.288    14080.546     6471.383     3281.922        2.603        1.192      167.063       56.179        0.113      350.115       31.041      861.255
08/17/2014  16:54:00     -413.161       10.564      -20.728      250.953      143.050       74.621    62977.502    20463.161     5568.336       13.011        4.450      413.296       88.523        0.046      350.200       31.185      861.211
08/17/2014  16:55:00     -323.625      -56.861      -16.714      158.878      109.140       71.463    25242.103    11911.538     5106.901        7.524        2.113      328.583       79.113        0.058      349.957       30.764      861.212
08/17/2014  16:56:00     -130.548      -16.333       17.483      103.198       84.431       48.214    10649.807     7128.526     2324.604        1.886        1.005      131.565       54.794        0.173      350.204       31.195      861.185
08/17/2014  16:57:00     -342.245        2.341      -14.854      135.393       98.849       55.133    18331.174     9771.030     3039.672        7.424        1.557      342.253       53.406        0.024      350.197       31.178      861.174
08/17/2014  16:58:00     -512.889     -105.668      -26.883      136.355      102.499       63.360    18592.737    10506.060     4014.552       15.402        1.656      523.661       62.187        0.014      349.945       30.742      861.150
08/17/2014  16:59:00     -305.468      -86.830      -13.986      213.311      119.032       75.168    45501.772    14168.577     5650.268        8.317        3.266      317.569       92.908        0.086      350.032       30.893      861.147
08/17/2014  17:00:00     -402.298     -175.326       -8.234      216.975      148.653       88.319    47078.229    22097.833     7800.225       13.480        3.849      438.842       99.580        0.051      350.134       31.071      861.117
08/17/2014  17:01:00     -219.996      -59.216        4.819      146.704      129.284       73.184    21522.141    16714.407     5355.877        4.775        2.180      227.826       79.828        0.123      350.283       31.329      861.132
08/17/2014  17:02:00     -534.399      -18.931      -39.267      172.144      157.538       77.391    29633.426    24818.234     5989.295       17.395        3.022      534.735       89.497        0.028      349.988       30.817      861.132
08/17/2014  17:03:00     -154.172      -83.407        1.792      130.576       99.088       48.320    17050.097     9818.353     2334.796        2.996        1.460      175.287       47.734        0.074      350.087       30.990      861.122
08/17/2014  17:04:00     -212.621      -93.689      -15.040       95.019       98.705       53.598     9028.623     9742.771     2872.743        3.792        1.082      232.347       55.492        0.057      350.261       31.292      861.115
08/17/2014  17:05:00     -336.717     -118.278      -31.346      121.661      108.992       66.973    14801.497    11879.289     4485.390        7.975        1.558      356.886       33.784        0.009      350.014       30.861      861.107
08/17/2014  17:06:00     -411.268      -88.686      -13.501      206.327      147.510       83.293    42570.668    21759.300     6937.737       12.421        3.563      420.721      102.565        0.059      350.027       30.884      861.099
08/17/2014  17:07:00     -504.814       20.847      -34.537      208.836      125.492       87.812    43612.635    15748.306     7710.945       16.175        3.354      505.244       98.106        0.038      349.999       30.836      861.083
08/17/2014  17:08:00     -509.881      -95.317      -36.515      129.907      137.302       75.204    16875.812    18851.851     5655.662       15.588        2.069      518.713       64.401        0.015      349.948       30.746      861.083
08/17/2014  17:09:00     -323.520     -135.913      -18.532      167.846      117.951       73.558    28172.279    13912.373     5410.816        8.548        2.375      350.909       75.037        0.046      350.033       30.896      861.066
08/17/2014  17:10:00     -415.205      -64.186      -33.696      176.853      142.930       73.806    31276.976    20428.914     5447.307       11.739        2.858      420.137       86.177        0.042      350.090       30.994      861.083
08/17/2014  17:11:00     -274.197     -147.354      -10.973      181.557      135.165       76.491    32963.030    18269.660     5850.803        7.704        2.854      311.284       83.783        0.072      349.999       30.837      861.074
08/17/2014  17:12:00     -181.881      -59.256      -14.732      121.771      123.342       50.395    14828.231    15213.364     2539.688        3.469        1.629      191.291       43.363        0.051      350.139       31.080      861.060
08/17/2014  17:13:00     -233.835     -121.923       10.921      130.517      122.769       67.807    17034.645    15072.134     4597.787        5.318        1.835      263.712       67.178        0.065      350.098       31.008      861.050
08/17/2014  17:14:00     -207.496     -175.220        2.011      124.129      150.324       68.699    15408.053    22597.234     4719.508        5.823        2.136      271.582       66.383        0.060      350.016       30.867      861.059
08/17/2014  17:15:00     -226.809     -127.624       22.864      176.320      132.377       78.838    31088.825    17523.774     6215.392        6.153        2.741      260.250       93.343        0.129      349.986       30.814      861.039
08/17/2014  17:16:00     -148.155      -60.926        8.658      145.623      107.173       70.199    21205.990    11486.101     4927.968        3.167        1.881      160.193       80.974        0.256      350.119       31.045      861.022
08/17/2014  17:17:00     -344.703       42.066      -22.163      256.069      121.590       73.774    65571.490    14784.156     5442.551       10.342        4.290      347.260      102.097        0.086      350.137       31.077      861.022
08/17/2014  17:18:00     -399.697      -77.413      -14.311      182.254      147.983       76.405    33216.572    21898.972     5837.780       11.344        3.048      407.125       75.596        0.034      350.148       31.096      861.006
08/17/2014  17:19:00     -264.982     -107.001       18.203      181.379      140.387       81.666    32898.344    19708.419     6669.323        7.062        2.964      285.770      100.400        0.123      350.103       31.018      861.005
08/17/2014  17:20:00     -285.504     -168.787      -16.733      167.766      151.702       78.905    28145.509    23013.483     6225.964        8.382        2.869      331.665       74.406        0.050      350.093       31.000      861.025
08/17/2014  17:21:00     -361.320      -47.319       -8.394      228.331      148.290       87.455    52134.924    21989.957     7648.458       10.730        4.089      364.405      101.393        0.077      350.028       30.887      861.027
08/17/2014  17:22:00     -134.375      -62.276       12.682      149.299       88.515       61.434    22290.211     7834.987     3774.079        2.799        1.695      148.104       75.415        0.259      350.088       30.991      861.052
08/17/2014  17:23:00     -103.857      -94.329        6.400       92.135       77.296       45.758     8488.842     5974.711     2093.818        1.814        0.828      140.300       47.231        0.113      350.040       30.909      861.036
08/17/2014  17:24:00     -277.910     -218.524       -9.315      126.453      159.225       76.853    15990.403    25352.502     5906.414        8.615        2.362      353.534       75.984        0.046      349.909       30.680      861.020
08/17/2014  17:25:00     -232.878      -96.225        1.303       81.268       99.415       47.695     6604.527     9883.348     2274.791        4.112        0.938      251.975       45.799        0.033      350.038       30.904      861.026
08/17/2014  17:26:00     -305.045     -122.573        2.197      167.817      124.085       60.530    28162.503    15397.204     3663.894        7.764        2.361      328.750       77.674        0.056      350.072       30.963      861.026
08/17/2014  17:27:00     -128.304      -78.925       25.294      107.759      101.768       55.450    11612.038    10356.763     3074.735        2.418        1.252      150.635       58.153        0.149      350.220       31.223      861.026
08/17/2014  17:28:00     -243.676      -43.936       -8.113      170.104      106.786       62.212    28935.250    11403.262     3870.369        5.278        2.210      247.605       84.001        0.115      350.136       31.075      861.022
08/17/2014  17:29:00     -218.575     -123.410        6.828      175.891      126.093       81.551    30937.692    15899.446     6650.501        5.826        2.674      251.008       94.913        0.143      350.142       31.084      861.016
08/17/2014  17:30:00     -176.435     -131.088       -5.601      116.783      106.339       66.618    13638.168    11307.987     4437.976        3.886        1.469      219.804       61.613        0.079      350.215       31.211      861.011
08/17/2014  17:31:00     -286.628     -192.047       -0.958      154.225      138.027       79.872    23785.212    19051.530     6379.555        8.412        2.461      345.018       84.117        0.059      349.951       30.752      861.007
08/17/2014  17:32:00     -412.694     -160.781       -7.473      148.093      106.689       70.441    21931.684    11382.570     4961.891       11.724        1.914      442.908       75.010        0.029      349.944       30.739      861.007
08/17/2014  17:33:00     -265.366      -84.465       15.052      201.640      127.339       74.292    40658.849    16215.329     5519.340        7.007        3.120      278.485       81.196        0.085      350.014       30.862      861.003
08/17/2014  17:34:00     -369.606     -199.494       -1.937      276.408      171.687      106.371    76401.636    29476.300    11314.791       14.678        5.860      420.007      138.678        0.109      349.809       30.505      860.972
08/17/2014  17:35:00     -327.252     -196.977        2.780      237.029      229.684      106.336    56182.556    52754.638    11307.295       13.305        6.012      381.960      130.236        0.116      349.790       30.474      860.941
08/17/2014  17:36:00     -222.632     -101.798      -15.979      143.185       99.646       55.611    20502.058     9929.307     3092.556        4.685        1.676      244.801       56.340        0.053      350.024       30.881      860.956
08/17/2014  17:37:00     -379.180      -44.998      -17.417       95.618      108.689       58.571     9142.879    11813.269     3430.519        8.524        1.219      381.841       50.642        0.018      349.990       30.822      860.962
08/17/2014  17:38:00     -193.756     -106.934       -2.771      120.885      135.202       62.079    14613.244    18279.451     3853.755        4.286        1.837      221.306       73.545        0.110      350.038       30.903      860.964
08/17/2014  17:39:00     -295.712     -113.203       -8.965      132.665      100.501       69.475    17600.081    10100.414     4826.726        6.643        1.626      316.639       58.932        0.035      350.054       30.930      860.971
08/17/2014  17:40:00     -410.799      -93.666      -32.157      159.085      114.200       67.111    25308.188    13041.650     4503.859       11.070        2.143      421.343       76.294        0.033      349.916       30.690      860.969
08/17/2014  17:41:00     -259.626      -17.248       -0.477      129.981       89.667       64.280    16895.069     8040.088     4131.901        4.838        1.453      260.198       68.147        0.069      349.920       30.700      860.958
08/17/2014  17:42:00     -140.526      -28.247        9.763      139.756      106.121       65.711    19531.645    11261.729     4317.872        2.787        1.756      143.337       71.942        0.252      349.966       30.778      860.922
08/17/2014  17:43:00     -322.846      -98.379      -10.899      207.905      156.206       78.105    43224.658    24400.304     6100.323        9.386        3.686      337.503       85.983        0.065      349.876       30.622      860.918
08/17/2014  17:44:00     -349.686     -236.949       -7.437      169.568      129.688       83.791    28753.188    16818.996     7020.935       11.553        2.630      422.404       91.835        0.047      349.760       30.420      860.903
08/17/2014  17:45:00     -210.936     -130.027       -4.250      136.765      104.069       74.794    18704.783    10830.373     5594.184        4.827        1.756      247.793       71.396        0.083      349.911       30.682      860.911
08/17/2014  17:46:00     -346.153     -152.407      -14.433      139.876      150.126       74.818    19565.298    22537.877     5597.703        9.547        2.385      378.219       68.077        0.032      349.807       30.503      860.909
08/17/2014  17:47:00     -250.196      -27.290      -13.828      202.649      101.714       73.500    41066.567    10345.729     5402.274        6.016        2.841      251.680       86.275        0.118      349.914       30.688      860.900
08/17/2014  17:48:00     -412.617     -222.052      -12.902      202.585      165.527       86.472    41040.788    27399.119     7477.417       14.781        3.796      468.572      111.022        0.056      349.747       30.398      860.894
08/17/2014  17:49:00     -502.736     -187.802      -23.074      142.110      121.922       70.639    20195.304    14864.869     4989.935       16.429        2.003      536.668       75.717        0.020      349.652       30.234      860.889
08/17/2014  17:50:00     -410.301     -178.725      -13.925      159.936      133.834       72.869    25579.372    17911.504     5309.821       12.463        2.440      447.537       82.487        0.034      349.703       30.323      860.873
08/17/2014  17:51:00     -263.400     -164.255       -4.473      168.968      159.757       75.423    28550.075    25522.273     5688.653        7.806        2.988      310.418       79.972        0.066      349.744       30.393      860.879
08/17/2014  17:52:00     -341.156     -242.163        6.308      224.931      155.651       93.383    50594.147    24227.323     8720.300       12.929        4.177      418.367      107.632        0.066      349.603       30.149      860.834
08/17/2014  17:53:00     -132.812     -106.243       20.948      134.634      115.522       78.700    18126.265    13345.243     6193.705        3.351        1.883      170.078       71.797        0.178      349.738       30.385      860.850
08/17/2014  17:54:00     -179.606      -95.269        4.867      157.589      135.801       76.145    24834.279    18442.035     5798.003        4.521        2.454      203.309       84.454        0.173      349.696       30.310      860.845
08/17/2014  17:55:00     -147.129     -106.671        1.938      111.958       79.430       53.740    12534.685     6309.106     2888.014        2.738        1.087      181.730       62.225        0.117      349.763       30.427      860.829
08/17/2014  17:56:00     -328.978     -195.328      -11.442      162.047       80.402       70.770    26259.080     6464.447     5008.330        9.211        1.887      382.596       77.595        0.041      349.711       30.335      860.831
08/17/2014  17:57:00     -168.735      -36.560        6.892      131.260      105.709       50.867    17229.100    11174.310     2587.441        3.042        1.550      172.650       62.958        0.133      349.899       30.665      860.831
08/17/2014  17:58:00     -265.021      -92.148       -9.397      171.774      120.901       55.483    29506.412    14616.996     3078.361        6.300        2.360      280.584       64.688        0.053      349.981       30.807      860.825
08/17/2014  17:59:00     -213.404     -132.148        9.245      136.635      120.117       62.780    18668.991    14428.091     3941.313        5.006        1.852      251.006       70.558        0.079      349.883       30.636      860.843
08/17/2014  18:00:00     -271.101        8.239      -11.586      145.423      101.731       55.630    21147.840    10349.241     3094.671        5.414        1.730      271.226       61.697        0.052      349.902       30.669      860.829
08/17/2014  18:01:00     -491.167     -166.150      -12.195      191.242      139.226       84.791    36573.587    19384.015     7189.515       16.606        3.157      518.508       82.380        0.025      349.688       30.296      860.799
08/17/2014  18:02:00     -482.999      -53.077      -24.454      161.774      114.648       84.449    26170.882    13144.146     7131.680       14.157        2.322      485.906       87.747        0.033      349.690       30.299      860.836
08/17/2014  18:03:00     -411.613     -119.317      -10.294      161.597      131.355       74.081    26113.582    17254.047     5487.923       11.630        2.443      428.558       80.588        0.035      349.689       30.297      860.820
08/17/2014  18:04:00     -155.733      -15.935       11.116      143.800      108.991       55.075    20678.416    11878.951     3033.207        3.010        1.780      156.546       64.135        0.168      349.775       30.448      860.827
08/17/2014  18:05:00     -132.022      -39.615       26.721      181.859      106.366       80.543    33072.661    11313.747     6487.144        3.528        2.544      137.837       88.775        0.415      349.787       30.471      860.825
08/17/2014  18:06:00     -444.944     -204.491      -34.547      146.964      174.546       74.169    21598.451    30466.383     5501.111       14.926        2.878      489.685       67.626        0.019      349.579       30.107      860.793
08/17/2014  18:07:00     -391.366     -138.657       -4.566      153.743      131.090       75.356    23637.004    17184.625     5678.530       10.945        2.325      415.202       79.725        0.037      349.633       30.201      860.771
08/17/2014  18:08:00     -276.762      -64.550       -3.804      143.634      119.186       66.041    20630.827    14205.203     4361.407        5.998        1.960      284.190       71.372        0.063      349.699       30.314      860.759
08/17/2014  18:09:00     -224.922      -11.153       -5.523      156.568       83.813       67.490    24513.656     7024.549     4554.845        4.341        1.805      225.199       75.434        0.112      349.773       30.445      860.755
08/17/2014  18:10:00     -419.959       26.286      -32.038      223.451      135.798       71.274    49930.213    18441.120     5079.957       12.575        3.673      420.781       88.619        0.044      349.692       30.302      860.765
08/17/2014  18:11:00     -439.025     -135.415      -23.009      163.744      166.979       76.982    26812.195    27882.151     5926.215       13.610        3.031      459.434       75.297        0.027      349.632       30.197      860.728
08/17/2014  18:12:00     -320.816      -75.622       -2.423      205.194      136.487       76.188    42104.512    18628.707     5804.657        8.758        3.327      329.608       84.351        0.065      349.614       30.167      860.707
08/17/2014  18:13:00     -270.855     -151.886       11.981      217.230      141.535       95.613    47188.784    20032.132     9141.794        8.645        3.818      310.535      118.816        0.146      349.581       30.113      860.711
08/17/2014  18:14:00     -178.384      -23.497        5.055      182.519      139.300       92.946    33313.284    19404.480     8638.875        4.687        3.068      179.925      102.532        0.325      349.670       30.266      860.711
08/17/2014  18:15:00     -151.278      -33.369      -10.412      157.702      109.983       64.148    24869.958    12096.171     4114.992        3.259        2.054      154.915       65.399        0.178      349.662       30.253      860.727
08/17/2014  18:16:00     -332.145      -86.644      -11.746      102.137       86.838       55.114    10431.953     7540.891     3037.522        6.948        1.051      343.260       50.605        0.022      349.566       30.084      860.724
08/17/2014  18:17:00     -340.592     -101.253      -44.313      136.108      114.960       57.019    18525.403    13215.835     3251.171        8.160        1.750      355.324       56.073        0.025      349.624       30.185      860.709
08/17/2014  18:18:00     -293.478      -63.852       -5.802      149.083       92.951       56.354    22225.649     8639.857     3175.782        6.213        1.702      300.343       48.172        0.026      349.681       30.284      860.708
08/17/2014  18:19:00     -325.101      -40.143      -13.875      232.139      126.923       93.170    53888.678    16109.373     8680.607        9.307        3.934      327.570      117.372        0.128      349.542       30.044      860.698
08/17/2014  18:20:00     -282.747      -62.460      -11.242      116.766      110.586       58.522    13634.229    12229.318     3424.844        5.663        1.464      289.564       47.181        0.027      349.581       30.111      860.704
08/17/2014  18:21:00     -284.603      -97.001       -8.470      139.301       86.260       56.734    19404.889     7440.702     3218.714        6.027        1.503      300.679       60.078        0.040      349.563       30.078      860.697
08/17/2014  18:22:00     -273.275      -30.417      -11.171      149.848       94.104       71.535    22454.457     8855.551     5117.205        5.607        1.821      274.962       78.277        0.081      349.594       30.134      860.684
08/17/2014  18:23:00     -182.515      -56.395       13.519      142.953      124.768       61.921    20435.562    15567.159     3834.186        3.825        1.992      191.029       69.527        0.132      349.565       30.085      860.681
08/17/2014  18:24:00     -145.935      -80.322        8.178      112.404      105.120       57.791    12634.713    11050.118     3339.822        2.741        1.351      166.580       50.549        0.092      349.591       30.127      860.688
08/17/2014  18:25:00     -146.370      -38.490        6.628      162.890      104.255       72.499    26533.284    10869.005     5256.099        3.280        2.133      151.346       79.936        0.279      349.613       30.169      860.684
08/17/2014  18:26:00     -258.527      -49.017        2.797      186.516      142.180       68.769    34788.098    20215.112     4729.129        6.448        2.987      263.133       76.386        0.084      349.535       30.030      860.676
08/17/2014  18:27:00     -322.663      -75.682       -6.485      182.146      137.176       89.163    33177.170    18817.320     7949.985        8.490        2.997      331.420       99.632        0.090      349.451       29.885      860.701
08/17/2014  18:28:00     -185.867      -56.856        0.139      136.645      104.401       67.409    18671.860    10899.625     4543.961        3.594        1.706      194.368       67.632        0.121      349.526       30.015      860.672
08/17/2014  18:29:00     -221.429      -95.059       -4.554      101.716       90.669       49.641    10346.086     8220.906     2464.214        3.956        1.052      240.971       53.964        0.050      349.528       30.020      860.669
08/17/2014  18:30:00     -305.130      -89.692       -0.129      192.717      142.144       77.547    37139.900    20204.783     6013.460        8.224        3.168      318.039       93.544        0.087      349.519       30.003      860.668
08/17/2014  18:31:00     -344.196     -110.559      -13.958      128.283      120.716       65.181    16456.462    14572.374     4248.594        8.308        1.764      361.517       69.023        0.036      349.454       29.891      860.656
08/17/2014  18:32:00     -397.871      -43.327       -7.261      150.411      176.695       76.285    22623.428    31221.071     5819.356       10.994        2.983      400.223       72.904        0.033      349.415       29.823      860.667
08/17/2014  18:33:00     -312.498       -9.456      -13.993      174.261      134.601       59.567    30367.055    18117.317     3548.253        7.498        2.602      312.641       73.750        0.056      349.480       29.936      860.653
08/17/2014  18:34:00     -503.893     -185.763      -34.114      199.016      199.115       99.746    39607.314    39646.875     9949.345       18.937        4.460      537.044       98.549        0.034      349.410       29.813      860.625
08/17/2014  18:35:00     -503.386      -85.755      -27.829      188.017      120.171       76.215    35350.310    14441.175     5808.792       15.855        2.780      510.638       89.065        0.030      349.365       29.736      860.622
08/17/2014  18:36:00     -470.980      -94.996      -12.782      186.242      144.014       79.526    34686.085    20740.057     6324.453       14.637        3.088      480.465       71.315        0.022      349.368       29.740      860.623
08/17/2014  18:37:00     -407.220     -111.336       -9.290      192.910      163.332       74.618    37214.128    26677.451     5567.880       12.387        3.473      422.165       72.155        0.029      349.382       29.766      860.623
08/17/2014  18:38:00     -291.170     -129.139      -14.720      161.379      164.520       84.202    26043.162    27066.828     7089.913        8.092        3.010      318.523       90.983        0.082      349.346       29.704      860.623
08/17/2014  18:39:00     -383.073      -50.589      -23.914      133.108      136.348       69.141    17717.681    18590.869     4780.512        9.547        2.054      386.399       70.845        0.034      349.352       29.714      860.622
08/17/2014  18:40:00     -395.219      -31.953      -18.040      155.577      130.835       90.168    24204.187    17117.867     8130.270       10.349        2.473      396.509       84.582        0.046      349.313       29.645      860.618
08/17/2014  18:41:00     -251.226     -105.521       16.345      196.049      143.649       92.644    38435.116    20635.170     8582.821        7.107        3.383      272.487      117.408        0.186      349.313       29.648      860.601
08/17/2014  18:42:00     -228.070      -77.350      -16.370      159.022      120.987       65.040    25287.976    14637.738     4230.228        5.120        2.208      240.829       68.868        0.082      349.362       29.732      860.605
08/17/2014  18:43:00     -390.223     -115.811      -18.004      176.709      143.756       77.907    31226.178    20665.747     6069.514       11.197        2.898      407.046       82.456        0.041      349.308       29.638      860.599
08/17/2014  18:44:00     -495.661      -83.224      -39.496      148.547      148.122       78.167    22066.078    21940.107     6110.026       15.213        2.506      502.599       67.265        0.018      349.245       29.528      860.585
08/17/2014  18:45:00     -341.356      -45.251      -16.815      178.124      104.337       67.647    31728.321    10886.114     4576.107        8.301        2.360      344.342       82.976        0.058      349.257       29.550      860.601
08/17/2014  18:46:00     -340.112     -105.039      -21.968      128.950      128.199       75.446    16627.993    16435.092     5692.024        8.297        1.938      355.963       62.491        0.031      349.282       29.593      860.599
08/17/2014  18:47:00     -358.940      -90.334      -19.466      117.774      108.053       64.722    13870.825    11675.428     4188.974        8.355        1.487      370.132       65.498        0.031      349.258       29.550      860.590
08/17/2014  18:48:00     -295.255     -119.437       -7.933      172.144      138.304       63.332    29633.518    19128.010     4010.973        7.713        2.639      318.498       82.572        0.067      349.278       29.585      860.584
08/17/2014  18:49:00     -321.977      -72.505      -13.179      127.888       97.429       54.707    16355.467     9492.449     2992.850        6.896        1.442      330.039       52.976        0.026      349.253       29.543      860.583
08/17/2014  18:50:00     -360.742     -127.297      -12.212      183.655      121.731       63.025    33729.117    14818.545     3972.165        9.949        2.626      382.543       72.311        0.036      349.238       29.517      860.569
08/17/2014  18:51:00     -495.414      -59.169      -33.059      154.979      168.255       77.808    24018.527    28309.873     6054.131       15.419        2.919      498.935       86.577        0.030      349.183       29.419      860.569
08/17/2014  18:52:00     -402.754        0.658      -19.484      188.157      143.361       81.596    35403.184    20552.279     6657.986       11.259        3.131      402.754       90.256        0.050      349.190       29.432      860.570
08/17/2014  18:53:00     -436.283     -100.631       -1.770      310.669      172.521      110.731    96515.240    29763.457    12261.354       16.948        6.927      447.738      157.272        0.123      349.129       29.327      860.559
08/17/2014  18:54:00     -319.792      -75.719        2.643      219.326      162.915       86.721    48104.014    26541.193     7520.521        9.507        4.108      328.634      105.492        0.103      349.144       29.354      860.548
08/17/2014  18:55:00     -345.192       -7.954      -20.885      137.907      135.759       66.977    19018.218    18430.635     4485.900        8.079        2.097      345.283       63.774        0.034      349.158       29.377      860.555
08/17/2014  18:56:00     -579.225      -97.323      -22.032      186.646      146.299       88.585    34836.904    21403.346     7847.378       20.476        3.204      587.344       93.286        0.025      349.105       29.282      860.547
08/17/2014  18:57:00     -379.965      -77.106        4.269      254.773      137.255       85.945    64909.167    18838.875     7386.470       12.072        4.557      387.709      106.632        0.076      349.117       29.307      860.580
08/17/2014  18:58:00     -299.064     -166.689       -8.925      163.404      121.866       70.037    26700.838    14851.373     4905.156        8.187        2.323      342.381       64.466        0.035      349.104       29.284      860.575
08/17/2014  18:59:00     -394.640      -64.666       -0.418      221.666      136.861      101.150    49135.785    18730.799    10231.275       11.899        3.905      399.903       92.383        0.053      349.093       29.264      860.568
08/17/2014  19:00:00     -271.465      -99.948       -0.472      191.419      153.148       86.077    36641.422    23454.248     7409.256        7.558        3.375      289.280      111.353        0.148      349.046       29.183      860.589
08/17/2014  19:01:00     -280.237       -9.545        2.942      153.138      129.409       78.791    23451.196    16746.729     6207.991        6.251        2.320      280.400       75.922        0.073      349.074       29.230      860.603
08/17/2014  19:02:00     -377.221      -13.316      -10.579      194.631      187.854       71.644    37881.306    35289.220     5132.866       11.043        3.915      377.456       76.051        0.041      349.033       29.161      860.598
08/17/2014  19:03:00     -307.535      -73.131       -3.929      174.326      122.868       71.117    30389.429    15096.616     5057.581        7.523        2.527      316.111       82.509        0.068      349.037       29.167      860.606
08/17/2014  19:04:00     -269.805      -85.271       -9.924      115.072      106.460       58.964    13241.532    11333.680     3476.737        5.410        1.403      282.959       64.243        0.052      349.022       29.142      860.593
08/17/2014  19:05:00     -188.078      -85.622      -12.601      112.666      104.102       52.427    12693.597    10837.124     2748.608        3.457        1.314      206.651       53.145        0.066      349.036       29.168      860.606
08/17/2014  19:06:00     -184.063      -42.441       19.994      195.503      102.746       66.314    38221.335    10556.646     4397.509        4.462        2.659      188.893       98.154        0.270      349.011       29.122      860.601
08/17/2014  19:07:00     -256.520      -26.331       -2.857      111.645       92.139       55.686    12464.680     8489.542     3100.895        4.527        1.203      257.868       58.053        0.051      348.982       29.071      860.614
08/17/2014  19:08:00     -294.845     -114.618      -13.421      139.772      115.239       70.530    19536.280    13280.103     4974.466        6.901        1.890      316.340       62.013        0.038      348.918       28.960      860.604
08/17/2014  19:09:00     -158.437      -50.246        9.404      131.084       71.387       55.036    17183.099     5096.070     3028.941        2.651        1.265      166.214       67.717        0.166      348.930       28.984      860.614
08/17/2014  19:10:00     -250.962      -25.414      -20.216       86.104       93.658       39.821     7413.983     8771.871     1585.719        4.090        0.889      252.245       40.537        0.026      348.948       29.015      860.622
08/17/2014  19:11:00     -221.151      -57.469       -1.931      104.426       94.619       58.892    10904.791     8952.695     3468.233        3.777        1.166      228.496       50.383        0.049      348.920       28.964      860.623
08/17/2014  19:12:00     -338.200     -100.547      -12.538      164.421      131.382       72.224    27034.249    17261.242     5216.336        8.707        2.476      352.830       74.855        0.045      348.852       28.846      860.632
08/17/2014  19:13:00     -294.286      -78.893       -2.977      160.213      118.908       74.503    25668.104    14139.193     5550.643        6.909        2.268      304.677       78.813        0.067      348.823       28.798      860.635
08/17/2014  19:14:00     -483.794     -147.116      -38.126      236.058      166.155       80.649    55723.565    27607.522     6504.321       17.348        4.492      505.667       97.517        0.037      348.798       28.753      860.630
08/17/2014  19:15:00     -311.047      -30.041       -4.943      168.774      117.478       69.507    28484.533    13801.155     4831.196        7.239        2.356      312.494       62.004        0.039      348.837       28.821      860.640
08/17/2014  19:16:00     -428.086      -64.151      -18.208      192.907      139.035       74.187    37213.205    19330.739     5503.775       12.486        3.102      432.866       83.110        0.037      348.800       28.757      860.626
08/17/2014  19:17:00     -439.441       -4.114      -33.061      191.628      121.123       79.898    36721.472    14670.787     6383.666       12.599        2.889      439.460       88.085        0.040      348.783       28.728      860.635
08/17/2014  19:18:00     -315.631       25.011       -6.002      205.124      142.116       74.569    42075.910    20196.891     5560.560        8.405        3.392      316.620       95.649        0.091      348.745       28.663      860.649
08/17/2014  19:19:00     -430.464     -100.510      -15.005      174.318      125.202       82.382    30386.888    15675.460     6786.734       12.423        2.642      442.043       86.131        0.038      348.716       28.613      860.644
08/17/2014  19:20:00     -354.962      -39.196      -18.225      166.251      142.320       78.570    27639.517    20255.103     6173.224        9.096        2.703      357.120       74.238        0.043      348.727       28.631      860.657
08/17/2014  19:21:00     -494.549      -55.451        0.643      199.908      161.732       82.038    39963.354    26157.192     6730.271       16.024        3.643      497.648       79.555        0.026      348.681       28.552      860.660
08/17/2014  19:22:00     -374.156      -53.799      -22.516      263.790      144.755       79.801    69585.166    20953.887     6368.163       12.013        4.845      378.004      104.521        0.076      348.674       28.540      860.676
08/17/2014  19:23:00     -340.427      -38.909      -18.902      140.661       93.568       59.582    19785.399     8754.980     3550.053        7.492        1.605      342.643       63.336        0.034      348.665       28.524      860.697
08/17/2014  19:24:00     -209.196     -136.270       35.336      264.039      156.228      106.229    69716.411    24407.049    11284.688        8.447        5.270      249.665      128.901        0.267      348.631       28.464      860.681
08/17/2014  19:25:00     -312.046      -40.353        3.884      242.983      159.286       81.372    59040.818    25372.187     6621.379        9.501        4.552      314.645       81.805        0.068      348.635       28.472      860.693
08/17/2014  19:26:00     -233.125      -57.438       -7.089      185.098      133.160       79.378    34261.255    17731.527     6300.903        5.798        2.915      240.096       87.740        0.134      348.646       28.490      860.680
08/17/2014  19:27:00     -315.621        2.130       -2.404      144.451      118.818       76.816    20865.991    14117.705     5900.648        7.025        2.044      315.628       76.255        0.058      348.577       28.368      860.712
08/17/2014  19:28:00     -337.671      -64.376      -10.032      141.083      116.921       68.822    19904.537    13670.440     4736.439        7.828        1.916      343.752       64.155        0.035      348.539       28.304      860.709
08/17/2014  19:29:00     -367.665      -47.322      -15.638      164.008      114.930       78.020    26898.471    13208.855     6087.153        9.192        2.310      370.698       85.859        0.054      348.547       28.318      860.703
08/17/2014  19:30:00     -492.110     -123.589      -14.749      226.453      139.631       86.739    51280.854    19496.865     7523.618       16.797        3.915      507.392       97.773        0.037      348.511       28.255      860.721
08/17/2014  19:31:00     -487.991        6.260      -22.925      203.935      144.657       80.889    41589.373    20925.667     6542.986       15.387        3.453      488.031       90.419        0.034      348.474       28.192      860.715
08/17/2014  19:32:00     -479.278      -38.798      -18.426      172.366      150.476       84.735    29709.944    22642.940     7179.941       14.553        2.977      480.846       91.839        0.036      348.460       28.169      860.727
08/17/2014  19:33:00     -251.483     -109.173       -2.086      161.945      133.036       70.980    26226.219    17698.529     5038.220        6.206        2.448      274.158       79.158        0.083      348.451       28.153      860.722
08/17/2014  19:34:00     -427.912      -27.416      -26.598      141.310      130.583       79.222    19968.604    17052.048     6276.050       11.392        2.165      428.789       71.100        0.027      348.427       28.113      860.729
08/17/2014  19:35:00     -396.427     -117.154      -28.292      144.713      122.169       68.774    20941.715    14925.150     4729.834       10.613        2.030      413.376       67.242        0.026      348.420       28.101      860.732
08/17/2014  19:36:00     -436.307      -57.890      -25.318      131.356      146.171       68.761    17254.361    21365.847     4728.088       11.884        2.167      440.131       61.497        0.020      348.429       28.115      860.710
08/17/2014  19:37:00     -276.754      -92.763       -3.764      151.332      132.979       68.309    22901.340    17683.379     4666.127        6.522        2.263      291.886       76.742        0.069      348.377       28.025      860.728
08/17/2014  19:38:00     -410.129     -157.960      -32.906      158.017      180.585       72.826    24969.222    32610.957     5303.675       12.855        3.144      439.497       75.924        0.030      348.368       28.008      860.739
08/17/2014  19:39:00     -322.442     -107.316       10.192      179.142      151.295       74.136    32091.739    22890.216     5496.148        8.802        3.024      339.832       80.584        0.056      348.377       28.026      860.718
08/17/2014  19:40:00     -152.843      -25.005       38.632      158.277      143.826       77.194    25051.671    20685.827     5958.951        3.858        2.585      154.875       82.360        0.283      348.348       27.976      860.735
08/17/2014  19:41:00     -357.486     -111.888      -12.299      176.435      150.755       82.849    31129.153    22727.097     6863.973       10.058        3.036      374.587       99.285        0.070      348.332       27.948      860.742
08/17/2014  19:42:00     -326.136     -120.542       -8.321      230.475      140.759       74.284    53118.740    19813.204     5518.065        9.969        3.923      347.699       82.400        0.056      348.328       27.941      860.731
08/17/2014  19:43:00     -370.272     -156.800      -16.958      153.395      126.397       74.369    23530.071    15976.266     5530.743       10.350        2.252      402.104       67.043        0.028      348.294       27.879      860.736
08/17/2014  19:44:00     -374.729      -52.785      -27.636      175.263      143.879       64.924    30717.175    20701.301     4215.067        9.979        2.782      378.428       78.260        0.043      348.291       27.875      860.746
08/17/2014  19:45:00     -467.760     -105.883      -25.457      180.423      151.432       87.151    32552.588    22931.507     7595.251       14.686        3.154      479.594       95.430        0.040      348.241       27.789      860.736
08/17/2014  19:46:00     -382.639      -54.621      -12.511      257.087      121.447       93.719    66093.677    14749.491     8783.338       11.957        4.481      386.518      124.710        0.104      348.263       27.826      860.747
08/17/2014  19:47:00     -370.428     -155.418      -32.617      171.415      120.785       67.214    29383.270    14588.998     4517.665       10.545        2.424      401.711       59.149        0.022      348.258       27.818      860.769
08/17/2014  19:48:00     -178.797      -88.274        9.248      131.013      100.762       63.570    17164.433    10153.041     4041.127        3.560        1.568      199.401       67.345        0.114      348.191       27.704      860.783
08/17/2014  19:49:00     -187.248      -37.196       12.417      171.741      115.140       57.144    29494.834    13257.328     3265.436        4.130        2.301      190.907       61.262        0.103      348.156       27.645      860.780
08/17/2014  19:50:00     -367.952      -63.657       -8.992      221.858      117.993       73.908    49221.059    13922.386     5462.440       10.405        3.430      373.418       95.807        0.066      348.134       27.605      860.768
08/17/2014  19:51:00     -313.341      -86.293      -16.553      165.338      121.024       72.284    27336.493    14646.788     5224.913        7.655        2.360      325.006       88.188        0.074      348.118       27.578      860.792
08/17/2014  19:52:00     -296.974     -102.544       -1.771      214.257      177.561       73.829    45906.190    31528.062     5450.725        9.078        4.144      314.180       94.950        0.091      348.130       27.598      860.780
08/17/2014  19:53:00     -238.928      -50.902       17.342      226.471      173.419       83.611    51288.960    30074.144     6990.740        7.415        4.418      244.290      108.456        0.197      348.121       27.584      860.790
08/17/2014  19:54:00     -195.710     -117.295       -6.985      128.525      127.966       73.099    16518.734    16375.384     5343.423        4.517        1.912      228.168       59.595        0.068      348.147       27.627      860.798
08/17/2014  19:55:00     -186.838      -54.762       -0.965      136.051       88.339       64.911    18510.000     7803.744     4213.418        3.421        1.526      194.698       70.278        0.130      348.116       27.574      860.825
08/17/2014  19:56:00     -359.652     -116.898      -18.670      119.437      113.949       65.581    14265.215    12984.471     4300.906        8.745        1.578      378.173       56.832        0.023      348.114       27.571      860.831
08/17/2014  19:57:00     -162.491        8.492        9.284      158.896       81.497       62.218    25247.795     6641.757     3871.136        3.115        1.788      162.713       74.368        0.209      348.027       27.421      860.836
08/17/2014  19:58:00     -288.509     -114.037       -3.689      147.818      149.722       64.744    21850.046    22416.581     4191.754        7.235        2.423      310.229       68.902        0.049      348.045       27.451      860.833
08/17/2014  19:59:00     -337.827      -76.423      -21.664      149.575      151.683       75.424    22372.596    23007.843     5688.763        8.574        2.553      346.364       76.986        0.049      348.038       27.438      860.827
08/17/2014  20:00:00     -417.212     -101.793      -27.067      165.089      119.048       66.407    27254.301    14172.464     4409.943       11.549        2.292      429.451       73.859        0.030      348.013       27.397      860.835
08/17/2014  20:01:00     -355.954      -25.643       -8.812      151.755      104.506       72.122    23029.487    10921.549     5201.531        8.329        1.958      356.877       70.441        0.039      347.973       27.329      860.824
08/17/2014  20:02:00     -210.865      -26.815       16.931      149.809      118.921       65.928    22442.825    14142.256     4346.519        4.319        2.047      212.563       81.333        0.146      347.928       27.253      860.818
08/17/2014  20:03:00     -450.671      -83.360      -27.743      199.575      135.332       75.067    39830.238    18314.618     5635.038       13.729        3.189      458.315       84.999        0.034      347.984       27.345      860.815
08/17/2014  20:04:00     -310.746     -115.678      -10.022      167.395      135.761       71.540    28021.118    18431.162     5118.035        8.080        2.579      331.578       72.653        0.048      347.925       27.244      860.797
08/17/2014  20:05:00     -454.120      -26.254      -28.913      145.845      121.068       67.538    21270.765    14657.539     4561.398       12.411        2.024      454.879       66.583        0.021      347.933       27.257      860.787
08/17/2014  20:06:00     -393.097     -128.625       -9.862      235.148      189.802       95.466    55294.663    36024.837     9113.706       13.578        5.022      413.606      107.839        0.068      347.898       27.197      860.777
08/17/2014  20:07:00     -251.586      -92.652        2.300      195.252      136.095       80.690    38123.403    18521.819     6510.856        6.751        3.158      268.104       99.278        0.137      347.896       27.195      860.778
08/17/2014  20:08:00     -338.179      -68.724        5.309      228.718      125.542       78.831    52311.978    15760.901     6214.383        9.669        3.714      345.092      100.890        0.085      347.894       27.191      860.806
08/17/2014  20:09:00     -343.475      -67.659       -9.408      147.600      167.460       73.882    21785.907    28042.715     5458.599        8.895        2.764      350.075       65.919        0.035      347.894       27.190      860.810
08/17/2014  20:10:00     -295.788      -88.348        3.406      204.018      131.982       72.970    41623.467    17419.290     5324.653        7.982        3.218      308.701       90.546        0.086      347.846       27.108      860.765
08/17/2014  20:11:00     -299.043      -73.774       -9.551      152.797      162.202       78.037    23347.050    26309.392     6089.786        7.534        2.787      308.008       80.214        0.068      347.809       27.043      860.769
08/17/2014  20:12:00     -349.126      -95.547      -22.349      130.502      124.530       71.453    17030.861    15507.642     5105.527        8.457        1.882      361.964       72.750        0.040      347.782       26.998      860.796
08/17/2014  20:13:00     -391.928      -75.071      -31.945      256.866      172.564       88.939    65980.299    29778.473     7910.072       13.195        5.183      399.053      100.523        0.063      347.829       27.077      860.802
08/17/2014  20:14:00     -356.110      -40.772       -1.475      187.759      137.883       80.766    35253.599    19011.677     6523.203        9.462        3.039      358.437       81.487        0.052      347.834       27.085      860.813
08/17/2014  20:15:00     -439.005     -122.313       -9.960      182.945      150.133       77.274    33468.881    22539.885     5971.253       13.487        3.099      455.726       69.376        0.023      347.821       27.063      860.815
08/17/2014  20:16:00     -369.320      -43.917      -17.630      125.007      122.805       72.014    15626.727    15081.012     5186.080        8.726        1.795      371.922       67.397        0.033      347.804       27.035      860.850
08/17/2014  20:17:00     -273.725      -30.401      -32.888      134.884      101.882       60.652    18193.815    10379.932     3678.659        5.459        1.613      275.408       71.558        0.068      347.804       27.035      860.877
08/17/2014  20:18:00     -230.782      -12.374       -6.055      184.484      131.792       70.379    34034.345    17369.249     4953.231        5.489        2.818      231.114       93.305        0.163      347.757       26.955      860.818
08/17/2014  20:19:00     -290.028       35.769      -22.170      118.923       90.900       55.970    14142.748     8262.804     3132.647        5.571        1.277      292.226       56.960        0.038      347.771       26.979      860.793
08/17/2014  20:20:00     -297.350     -112.490       -9.901      149.888      133.327       66.614    22466.544    17776.023     4437.361        7.292        2.234      317.917       66.080        0.043      347.730       26.908      860.807
08/17/2014  20:21:00     -311.014     -101.585        0.900      159.278      144.648       80.502    25369.356    20923.100     6480.514        7.990        2.639      327.184       78.834        0.058      347.724       26.897      860.812
08/17/2014  20:22:00     -256.814     -116.033        1.666      177.832      130.735       70.652    31624.293    17091.531     4991.753        6.655        2.685      281.810       78.417        0.077      347.717       26.886      860.831
08/17/2014  20:23:00     -222.310      -67.495       -9.494      108.710       92.204       54.880    11817.774     8501.600     3011.810        3.869        1.167      232.330       48.583        0.044      347.740       26.925      860.846
08/17/2014  20:24:00     -160.703      -82.126       26.073      183.471      110.686       86.577    33661.469    12251.363     7495.609        4.332        2.670      180.472      106.456        0.348      347.697       26.850      860.858
08/17/2014  20:25:00     -199.228      -58.536        4.909      129.747      109.230       54.951    16834.392    11931.255     3019.662        3.746        1.589      207.650       54.709        0.069      347.660       26.789      860.899
08/17/2014  20:26:00     -220.812      -73.467        2.552      259.186      109.856       86.652    67177.482    12068.425     7508.495        7.044        4.338      232.713      100.347        0.186      347.689       26.838      860.884
08/17/2014  20:27:00     -177.047      -30.666        8.701      168.761      111.717       65.111    28480.156    12480.683     4239.454        3.877        2.260      179.684       76.488        0.181      347.636       26.746      860.912
08/17/2014  20:28:00     -186.421     -118.966       -3.001      187.274      104.940       55.779    35071.557    11012.379     3111.296        4.905        2.460      221.147       55.092        0.062      347.704       26.864      860.853
08/17/2014  20:29:00     -502.222      -46.933      -29.834      254.329      135.587       84.274    64683.110    18383.922     7102.154       17.273        4.508      504.410      116.783        0.054      347.692       26.844      860.889
08/17/2014  20:30:00     -326.499      -36.261       -9.570      136.846      106.100       73.442    18726.894    11257.263     5393.757        7.169        1.769      328.506       71.757        0.048      347.625       26.726      860.925
08/17/2014  20:31:00     -283.115      -21.392      -15.927      191.571      104.579       62.610    36699.353    10936.830     3920.053        6.620        2.578      283.922       75.325        0.070      347.663       26.793      860.933
08/17/2014  20:32:00     -437.946      -99.550      -10.402      178.890      138.327       88.409    32001.689    19134.410     7816.164       13.037        2.948      449.117       95.420        0.045      347.633       26.740      860.927
08/17/2014  20:33:00     -419.908      -91.261      -19.642      198.728      111.096       74.745    39492.630    12342.353     5586.784       12.122        2.871      429.710       88.703        0.043      347.648       26.767      860.942
08/17/2014  20:34:00     -314.401      -91.961      -23.288      207.353      125.118       78.037    42995.149    15654.508     6089.795        8.628        3.237      327.574       92.655        0.080      347.660       26.787      860.948
08/17/2014  20:35:00     -281.461     -100.301      -12.068      137.420      121.566       67.283    18884.303    14778.203     4527.033        6.380        1.909      298.798       73.892        0.061      347.628       26.733      860.954
08/17/2014  20:36:00     -293.754      -86.071      -17.529      162.103      131.415       71.651    26277.520    17269.795     5133.928        7.133        2.434      306.104       88.657        0.084      347.626       26.727      860.958
08/17/2014  20:37:00     -271.055     -140.758       10.698      230.754      149.699       93.881    53247.500    22409.679     8813.609        8.892        4.224      305.423       94.500        0.096      347.631       26.737      860.944
08/17/2014  20:38:00     -423.640     -176.790      -20.374      168.084      157.240       75.131    28252.396    24724.337     5644.733       13.487        2.931      459.048       65.960        0.021      347.695       26.846      860.945
08/17/2014  20:39:00     -251.721      -96.062        6.792      136.348      126.417       67.192    18590.903    15981.253     4514.809        5.585        1.954      269.428       67.061        0.062      347.628       26.731      860.943
08/17/2014  20:40:00     -388.906     -132.679      -13.486      221.202      173.874       92.146    48930.445    30231.996     8490.833       12.833        4.383      410.916      107.136        0.068      347.665       26.796      860.960
08/17/2014  20:41:00     -322.793      -96.766        4.791      221.922      128.716       91.646    49249.463    16567.922     8398.946        9.388        3.711      336.985      106.018        0.099      347.645       26.762      860.956
08/17/2014  20:42:00     -246.130     -210.599       -4.484      160.788      152.706       89.026    25852.675    23319.079     7925.543        8.101        2.855      323.932       97.817        0.091      347.650       26.770      860.974
08/17/2014  20:43:00     -300.508      -99.521        7.426      182.992      138.791       77.647    33485.902    19263.046     6028.988        7.951        2.939      316.559       88.098        0.077      347.619       26.716      860.996
08/17/2014  20:44:00     -197.138        8.078       -8.330      196.808      136.292       81.752    38733.497    18575.632     6683.406        5.148        3.200      197.303       89.377        0.205      347.597       26.679      861.000
08/17/2014  20:45:00     -268.902      -22.779       -3.487      161.858      124.184       79.386    26198.067    15421.719     6302.197        6.037        2.396      269.865       69.198        0.066      347.605       26.691      860.994
08/17/2014  20:46:00     -266.675      -39.072        0.811      157.969      115.702       72.716    24954.089    13386.849     5287.670        5.813        2.181      269.523       84.578        0.098      347.548       26.596      861.004
08/17/2014  20:47:00     -343.852      -64.543       -2.772      201.132      135.933       75.372    40454.232    18477.649     5680.978        9.350        3.231      349.857       87.914        0.063      347.547       26.592      861.011
08/17/2014  20:48:00     -234.226      -61.291       -0.480      149.250      115.396       65.551    22275.535    13316.333     4296.977        4.925        1.994      242.112       77.749        0.103      347.531       26.566      861.023
08/17/2014  20:49:00     -312.415      -53.939       10.670      253.301      173.390       87.158    64161.393    30064.264     7596.597       10.120        5.091      317.037      106.634        0.113      347.538       26.577      861.025
08/17/2014  20:50:00     -246.105      -57.892       22.552      190.825      192.288       87.209    36414.145    36974.838     7605.492        7.269        4.050      252.822       97.038        0.147      347.525       26.555      861.028
08/17/2014  20:51:00     -338.153      -82.918      -18.865      167.424      130.130       65.440    28030.932    16933.926     4282.374        8.540        2.462      348.171       72.650        0.044      347.564       26.621      861.095
08/17/2014  20:52:00     -359.022     -233.312       -4.739      198.001      142.219       79.238    39204.510    20226.319     6278.600       12.452        3.285      428.172       82.699        0.037      347.581       26.650      861.089
08/17/2014  20:53:00     -313.626      -51.421      -19.149      139.280      116.886       72.145    19399.032    13662.258     5204.882        6.981        1.913      317.814       57.372        0.033      347.628       26.733      861.072
08/17/2014  20:54:00     -182.941      -62.214       -0.542      148.685      104.286       74.225    22107.109    10875.650     5509.313        3.791        1.925      193.231       72.833        0.142      347.559       26.613      861.032
08/17/2014  20:55:00     -115.557      -52.880        8.635      137.672       87.044       48.893    18953.600     7576.645     2390.498        2.257        1.446      127.081       65.945        0.269      347.498       26.511      861.050
08/17/2014  20:56:00     -172.841      -84.011      -10.873      118.697       86.025       40.097    14088.953     7400.290     1607.786        3.007        1.155      192.177       31.751        0.027      347.464       26.450      861.054
08/17/2014  20:57:00     -250.765      -74.397       -1.999      161.722      118.706       71.991    26153.923    14091.161     5182.685        5.692        2.271      261.568       89.685        0.118      347.455       26.434      861.067
08/17/2014  20:58:00     -296.815     -135.668      -21.351      166.971      151.520       85.325    27879.273    22958.459     7280.321        8.253        2.906      326.351       86.836        0.071      347.442       26.410      861.080
08/17/2014  20:59:00     -311.992     -136.564       -5.510      135.172      116.275       74.721    18271.344    13519.958     5583.271        7.669        1.869      340.571       66.624        0.038      347.464       26.448      861.120
08/17/2014  21:00:00     -193.599      -92.170        4.917      122.874       86.818       56.176    15098.141     7537.294     3155.693        3.589        1.290      214.420       60.825        0.080      347.445       26.416      861.148
08/17/2014  21:01:00     -139.865      -56.758        5.539      126.706      119.852       65.053    16054.360    14364.410     4231.946        2.873        1.733      150.942       66.178        0.192      347.407       26.350      861.163
08/17/2014  21:02:00     -349.766      -32.374      -29.840      222.695      131.320       86.585    49593.201    17245.020     7496.950        9.929        3.717      351.261      112.746        0.103      347.465       26.448      861.169
08/17/2014  21:03:00     -294.762      -41.792      -17.177      128.103      108.901       59.039    16410.270    11859.514     3485.587        6.033        1.588      297.710       61.490        0.043      347.462       26.445      861.183
08/17/2014  21:04:00     -267.852      -10.677      -29.233       90.629       60.982       40.649     8213.533     3718.801     1652.316        4.315        0.679      268.065       40.157        0.022      347.449       26.422      861.185
08/17/2014  21:05:00     -252.236      -89.057       -1.415      158.970      100.311       60.271    25271.364    10062.275     3632.616        5.525        1.948      267.496       75.835        0.080      347.403       26.344      861.209
08/17/2014  21:06:00     -239.142     -126.628      -12.597      150.502      105.846       64.794    22650.985    11203.371     4198.202        5.571        1.903      270.599       64.077        0.056      347.377       26.298      861.230
08/17/2014  21:07:00     -287.054      -94.218        7.614      101.141       89.646       59.661    10229.541     8036.422     3559.377        5.658        1.091      302.121       48.337        0.026      347.331       26.218      861.246
08/17/2014  21:08:00     -333.487      -61.167      -13.053      145.913      130.033       69.991    21290.663    16908.528     4898.782        7.910        2.155      339.050       67.407        0.040      347.376       26.296      861.267
08/17/2014  21:09:00     -383.257      -43.033      -23.872      178.646      120.690       83.656    31914.333    14565.963     6998.295       10.138        2.674      385.665       98.135        0.065      347.322       26.204      861.270
08/17/2014  21:10:00     -282.279      -39.785        1.158      154.508      129.357       67.591    23872.663    16733.177     4568.586        6.321        2.259      285.069       85.811        0.091      347.370       26.288      861.284
08/17/2014  21:11:00     -248.764     -112.791      -20.602      183.969       99.508       46.808    33844.727     9901.790     2190.973        6.047        2.297      273.139       46.685        0.029      347.361       26.271      861.306
08/17/2014  21:12:00     -198.445     -112.757       -5.725       87.832      106.957       53.754     7714.537    11439.878     2889.450        3.708        1.102      228.242       47.765        0.044      347.320       26.202      861.306
08/17/2014  21:13:00     -143.914      -76.460       26.671      153.816      111.043       75.504    23659.340    12330.637     5700.862        3.447        2.085      162.964       89.497        0.302      347.270       26.114      861.330
08/17/2014  21:14:00     -170.394      -76.516        4.241      140.057       83.817       58.680    19616.084     7025.283     3443.351        3.249        1.504      186.785       58.413        0.098      347.277       26.127      861.347
08/17/2014  21:15:00     -238.302      -64.132      -20.087      126.631       65.363       47.865    16035.501     4272.384     2291.028        4.195        1.130      246.781       48.575        0.039      347.284       26.138      861.367
08/17/2014  21:16:00     -195.637      -78.643       -1.009      119.116      114.974       56.845    14188.582    13219.060     3231.393        3.754        1.532      210.851       49.273        0.055      347.246       26.072      861.377
08/17/2014  21:17:00     -244.099      -71.734      -21.249      109.421       76.254       42.955    11973.061     5814.674     1845.151        4.240        0.982      254.421       52.958        0.043      347.261       26.099      861.401
08/17/2014  21:18:00     -181.035      -71.557        2.151      107.688       73.151       49.962    11596.611     5351.062     2496.166        2.867        0.972      194.664       55.042        0.080      347.187       25.972      861.415
08/17/2014  21:19:00     -261.690      -86.024      -20.135      113.056      116.823       61.112    12781.752    13647.665     3734.637        5.322        1.508      275.466       48.863        0.031      347.302       26.170      861.423
08/17/2014  21:20:00     -233.952      -21.846       -0.930      117.785       79.980       50.845    13873.263     6396.758     2585.204        3.903        1.143      234.969       56.927        0.059      347.244       26.069      861.449
08/17/2014  21:21:00     -173.131     -138.560       12.536      158.724       88.827       73.064    25193.216     7890.287     5338.367        4.387        1.921      221.750       91.123        0.169      347.315       26.192      861.441
08/17/2014  21:22:00     -102.943      -56.970       -6.703       88.165       58.129       34.053     7773.149     3379.009     1159.626        1.310        0.616      117.656       13.861        0.014      347.271       26.118      861.441
08/17/2014  21:23:00     -297.184     -114.718       -5.075      181.533      104.246       57.523    32954.405    10867.331     3308.848        7.431        2.357      318.557       74.699        0.055      347.250       26.080      861.442
08/17/2014  21:24:00     -327.069      -77.554      -10.207      125.492       96.512       56.247    15748.170     9314.619     3163.779        7.065        1.411      336.138       53.087        0.025      347.275       26.122      861.430
08/17/2014  21:25:00     -294.452      -63.949      -24.336      156.970      123.556       69.400    24639.540    15266.138     4816.333        6.804        2.236      301.316       81.739        0.074      347.187       25.971      861.418
08/17/2014  21:26:00     -410.961      -21.715      -20.168      162.363      131.256       63.239    26361.628    17228.236     3999.217       10.867        2.379      411.535       68.733        0.028      347.182       25.962      861.420
08/17/2014  21:27:00     -294.214      -13.717      -18.839      125.329      101.491       64.676    15707.288    10300.324     4182.955        5.864        1.510      294.534       54.186        0.034      347.129       25.873      861.415
08/17/2014  21:28:00     -368.345      -81.949      -24.065      124.091      113.272       68.443    15398.495    12830.645     4684.475        8.794        1.646      377.351       64.193        0.029      347.191       25.979      861.409
08/17/2014  21:29:00     -225.842      -90.283       -0.766      145.429      109.383       60.301    21149.511    11964.602     3636.249        4.795        1.838      243.220       69.138        0.081      347.123       25.863      861.426
08/17/2014  21:30:00     -233.487      -75.719       -8.289       97.628       71.471       48.763     9531.207     5108.049     2377.866        3.866        0.851      245.458       52.925        0.046      347.124       25.863      861.431
08/17/2014  21:31:00     -153.059      -67.444        0.022       96.798       74.217       45.852     9369.869     5508.136     2102.409        2.247        0.849      167.260       44.609        0.071      347.050       25.736      861.447
08/17/2014  21:32:00     -174.085      -72.112       -8.012       87.071       84.646       52.106     7581.422     7164.894     2714.996        2.651        0.873      188.430       47.779        0.064      347.137       25.886      861.463
08/17/2014  21:33:00      -83.784      -53.211        7.445       71.904       58.817       37.663     5170.156     3459.432     1418.523        0.998        0.502       99.253       21.433        0.047      347.062       25.760      861.456
08/17/2014  21:34:00     -184.208      -71.375       -1.015       98.767       90.101       50.526     9754.832     8118.278     2552.867        2.972        1.021      197.552       51.505        0.068      347.082       25.791      861.487
08/17/2014  21:35:00     -231.839      -20.307      -22.081      131.934      110.741       51.497    17406.690    12263.620     2651.974        4.348        1.616      232.726       39.622        0.029      347.099       25.821      861.473
08/17/2014  21:36:00     -277.331     -126.307      -10.296       91.367       87.591       57.284     8347.952     7672.186     3281.454        5.613        0.965      304.739       51.841        0.029      347.124       25.862      861.468
08/17/2014  21:37:00     -174.720       -7.940        1.042      133.540       83.201       52.407    17832.970     6922.374     2746.523        2.904        1.375      174.901       67.391        0.148      346.956       25.576      861.469
08/17/2014  21:38:00     -163.002      -78.449       -6.673       59.647       90.513       39.196     3557.785     8192.531     1536.358        2.302        0.664      180.898       25.901        0.021      347.047       25.731      861.463
08/17/2014  21:39:00     -143.554     -100.062        1.044      124.881       85.129       52.134    15595.362     7246.951     2717.903        2.809        1.278      174.986       59.808        0.117      347.037       25.715      861.471
08/17/2014  21:40:00     -116.018      -39.269       15.199      136.702       88.511       55.372    18687.498     7834.250     3066.061        2.240        1.479      122.483       68.466        0.312      346.954       25.572      861.481
08/17/2014  21:41:00     -220.758      -89.844      -14.240      126.573      119.954       60.007    16020.627    14389.043     3600.789        4.550        1.701      238.340       54.973        0.053      347.036       25.711      861.495
08/17/2014  21:42:00     -315.156     -107.339      -16.055      129.384       93.842       59.512    16740.159     8806.305     3541.643        7.009        1.454      332.934       73.517        0.049      347.086       25.798      861.524
08/17/2014  21:43:00     -237.756      -77.222       -1.643       93.579       84.480       40.552     8756.963     7136.857     1644.476        4.001        0.877      249.983       41.106        0.027      347.082       25.790      861.541
08/17/2014  21:44:00     -320.530      -81.626       -6.466      119.928       92.174       50.274    14382.700     8495.971     2527.494        6.742        1.270      330.760       49.370        0.022      347.078       25.782      861.550
08/17/2014  21:45:00     -238.099      -28.918      -10.491       97.291       80.711       48.078     9465.602     6514.186     2311.508        3.796        0.915      239.849       52.348        0.048      347.035       25.708      861.574
08/17/2014  21:46:00      -67.863      -50.400       20.257      111.559       60.712       49.390    12445.496     3685.914     2439.409        1.306        0.929       84.531       49.512        0.343      346.945       25.559      861.558
08/17/2014  21:47:00     -249.176      -83.164       -7.679       88.001       59.280       43.891     7744.234     3514.118     1926.427        4.112        0.659      262.688       43.769        0.028      347.001       25.651      861.542
08/17/2014  21:48:00     -179.963      -70.245        5.328      107.187       86.056       49.028    11488.948     7405.568     2403.733        2.932        1.065      193.186       51.051        0.070      346.901       25.478      861.582
08/17/2014  21:49:00     -163.600      -40.507       -4.837       97.743       85.396       46.273     9553.695     7292.474     2141.144        2.370        0.949      168.540       49.583        0.087      346.940       25.546      861.585
08/17/2014  21:50:00     -178.102      -25.982      -11.907       52.517       73.065       29.942     2758.042     5338.426      896.503        2.076        0.450      179.987       20.669        0.013      346.980       25.615      861.590
08/17/2014  21:51:00     -184.221      -55.013       -0.171       69.260       53.083       32.853     4796.979     2817.800     1079.323        2.283        0.435      192.259       28.436        0.022      346.962       25.583      861.595
08/17/2014  21:52:00     -147.127      -67.747       -6.465      107.760       67.055       43.411    11612.261     4496.388     1884.526        2.213        0.900      161.975       48.561        0.090      346.911       25.496      861.609
08/17/2014  21:53:00      -72.559      -19.383        7.037       73.044       43.849       29.051     5335.421     1922.724      843.937        0.689        0.405       75.103       36.166        0.232      346.795       25.299      861.614
08/17/2014  21:54:00      -78.890      -87.941        7.560       60.721       41.219       33.063     3687.073     1699.008     1093.167        1.025        0.324      118.141       34.567        0.086      346.898       25.476      861.622
08/17/2014  21:55:00     -230.667      -72.608       -9.224      112.984       70.374       45.568    12765.454     4952.548     2076.427        3.918        0.990      241.824       41.767        0.030      346.959       25.578      861.629
08/17/2014  21:56:00      -57.157      -90.242        1.791       73.845       66.710       40.517     5453.096     4450.234     1641.656        1.148        0.577      106.820       39.988        0.140      346.972       25.604      861.631
08/17/2014  21:57:00      -93.383      -93.750       12.753      130.693       94.849       39.904    17080.601     8996.275     1592.313        2.267        1.383      132.323       23.239        0.031      346.999       25.650      861.633
08/17/2014  21:58:00      -73.276      -71.693       10.732       80.534       65.875       42.600     6485.712     4339.540     1814.721        1.163        0.632      102.514       46.600        0.207      347.004       25.659      861.659
08/17/2014  21:59:00      -29.457       17.455        5.733       77.640       54.785       20.939     6027.951     3001.451      438.448        0.533        0.473       34.241       13.483        0.155      346.786       25.285      861.670
08/17/2014  22:00:00      -26.012      -15.538       -3.469       67.718       35.733       24.552     4585.713     1276.840      602.820        0.370        0.323       30.300       32.533        1.153      346.801       25.310      861.671
08/17/2014  22:01:00       14.206        7.512       32.288       56.345       36.473       29.935     3174.798     1330.308      896.124        0.335        0.270       16.070       30.140        3.518      346.778       25.269      861.679
08/17/2014  22:02:00     -136.776      -32.326       -4.662       53.924       46.065       44.832     2907.813     2121.961     2009.915        1.341        0.352      140.544       26.391        0.035      347.000       25.651      861.690
08/17/2014  22:03:00      -51.089       -1.835       -1.123       70.961       74.018       45.685     5035.468     5478.674     2087.077        0.761        0.630       51.122       44.501        0.758      346.959       25.582      861.679
08/17/2014  22:04:00       11.926       43.486       -8.692       44.385       67.719       33.621     1970.039     4585.892     1130.366        0.490        0.384       45.091       23.240        0.266      346.803       25.312      861.667
08/17/2014  22:05:00      -67.119      128.056       12.387       57.316       98.162       45.626     3285.079     9635.868     2081.703        1.803        0.750      144.580       35.043        0.059      346.806       25.316      861.670
08/17/2014  22:06:00      -10.406       -2.664       10.464       64.421       79.680       28.837     4150.123     6348.924      831.599        0.578        0.567       10.742       31.315        8.499      346.741       25.207      861.665
08/17/2014  22:07:00     -147.327       16.064      -18.455      101.624       76.360       51.621    10327.346     5830.837     2664.750        2.056        0.941      148.201       45.385        0.094      346.941       25.550      861.675
08/17/2014  22:08:00       24.198       64.207       -3.787       40.657       30.974       22.610     1652.959      959.396      511.197        0.392        0.156       68.616       17.389        0.064      346.809       25.323      861.692
08/17/2014  22:09:00      -12.880       23.002       14.364       38.404       29.847       32.487     1474.847      890.850     1055.423        0.216        0.171       26.363       28.502        1.169      346.733       25.192      861.697
08/17/2014  22:10:00      -22.233       22.507      -12.446       55.524       36.436       19.496     3082.863     1327.570      380.085        0.297        0.240       31.637       15.413        0.237      346.883       25.451      861.711
08/17/2014  22:11:00       88.050       26.687       31.267       42.565       37.985       23.372     1811.773     1442.860      546.259        0.662        0.190       92.005       15.282        0.028      346.787       25.285      861.730
08/17/2014  22:12:00       36.859       11.624        3.800       21.273       22.912       19.104      452.519      524.974      364.969        0.143        0.067       38.649       17.282        0.200      346.819       25.341      861.751
08/17/2014  22:13:00        6.443      -27.249       18.752       18.004       36.735       23.373      324.151     1349.496      546.303        0.168        0.111       28.000       23.859        0.726      346.732       25.192      861.753
08/17/2014  22:14:00       20.184      110.359       -3.454       18.424       50.077       29.310      339.449     2507.662      859.068        0.815        0.185      112.190       35.157        0.098      346.554       24.885      861.765
08/17/2014  22:15:00       40.210       81.699      -17.346       17.770       42.949       17.973      315.783     1844.606      323.033        0.554        0.124       91.059       20.803        0.052      346.274       24.403      861.767
08/17/2014  22:16:00       87.264       40.748        8.002       29.598       25.928       16.817      876.070      672.261      282.798        0.558        0.092       96.309       11.315        0.014      346.337       24.511      861.757
08/17/2014  22:17:00       56.603       38.245       30.444       37.780       25.444       20.228     1427.366      647.387      409.173        0.404        0.124       68.312       14.199        0.043      346.441       24.690      861.760
08/17/2014  22:18:00       41.667        8.485       14.679       19.483       19.476       12.328      379.604      379.301      151.991        0.147        0.046       42.522        7.193        0.029      346.496       24.785      861.772
08/17/2014  22:19:00       30.878       32.621       39.627       33.384       27.846       21.860     1114.518      775.381      477.844        0.298        0.118       44.918       18.243        0.165      346.350       24.534      861.760
08/17/2014  22:20:00       15.482        9.442       17.377       23.447       18.205       15.155      549.741      331.437      229.667        0.087        0.056       18.134       10.608        0.342      346.385       24.595      861.747
08/17/2014  22:21:00        6.077       13.794       24.511       10.736       19.188       12.877      115.261      368.168      165.814        0.074        0.032       15.073       13.926        0.854      346.241       24.347      861.737
08/17/2014  22:22:00        1.277       -0.636        8.019        7.189       10.944       11.747       51.681      119.780      138.000        0.019        0.015        1.427        6.657       21.767      346.216       24.305      861.730
08/17/2014  22:23:00       37.742       13.666       11.146       23.031       19.205       14.451      530.406      368.844      208.828        0.142        0.055       40.140       11.484        0.082      346.377       24.579      861.716
08/17/2014  22:24:00       12.278       18.606       24.748       14.962       26.644       13.659      223.862      709.911      186.578        0.111        0.056       22.292        4.045        0.033      346.316       24.476      861.713
08/17/2014  22:25:00      -22.826      -14.257        7.905       31.379       24.496       17.291      984.622      600.062      298.975        0.133        0.094       26.913       21.723        0.651      346.295       24.439      861.725
08/17/2014  22:26:00      -67.523        2.241      -11.835       19.886       26.351       12.787      395.465      694.393      163.500        0.298        0.063       67.560        9.290        0.019      346.226       24.322      861.725
08/17/2014  22:27:00      -22.780       22.695       -9.549       26.503       50.108       16.488      702.414     2510.819      271.842        0.230        0.174       32.156       15.503        0.232      346.712       25.156      861.708
08/17/2014  22:28:00        7.106       56.192       11.760       19.107       38.055       20.604      365.083     1448.148      424.536        0.279        0.112       56.639       25.158        0.197      346.728       25.186      861.707
08/17/2014  22:29:00       -5.375      -15.390       -0.851       30.779       24.483       14.591      947.369      599.428      212.896        0.101        0.088       16.301       12.992        0.635      346.379       24.584      861.715
08/17/2014  22:30:00      -13.608      -18.503        2.198       17.195       17.564       13.264      295.673      308.509      175.939        0.066        0.039       22.968        5.213        0.052      346.211       24.295      861.707
08/17/2014  22:31:00      -31.771      -21.585       -0.306       17.319       11.381        9.282      299.946      129.527       86.156        0.100        0.026       38.410        6.304        0.027      346.263       24.386      861.695
08/17/2014  22:32:00        3.311      -34.597        5.181       15.506       18.322       10.450      240.433      335.701      109.210        0.096        0.034       34.755        5.092        0.021      346.540       24.860      861.691
08/17/2014  22:33:00        5.251      -31.703        4.375       10.911        6.372        5.952      119.060       40.600       35.427        0.062        0.010       32.135        4.222        0.017      346.800       25.309      861.671
08/17/2014  22:34:00      -22.565      -23.335       -7.120       36.533       15.096       10.660     1334.651      227.901      113.637        0.139        0.084       32.461       11.222        0.120      346.510       24.811      861.665
08/17/2014  22:35:00      -81.283       35.411      -11.059       19.922       19.246       13.101      396.877      370.409      171.643        0.446        0.047       88.662       10.346        0.014      345.935       23.822      861.670
08/17/2014  22:36:00     -103.431       13.246       -7.064        9.981       11.976        6.629       99.626      143.429       43.940        0.561        0.014      104.276        4.932        0.002      346.183       24.247      861.672
08/17/2014  22:37:00      -88.689       -4.685      -12.066       13.292       22.090        9.864      176.673      487.983       97.304        0.440        0.038       88.813        7.064        0.006      346.248       24.360      861.661
08/17/2014  22:38:00      -17.819      -17.379       -0.051       23.287       15.169        6.113      542.299      230.106       37.365        0.071        0.040       24.890        7.021        0.080      346.054       24.026      861.656
08/17/2014  22:39:00      -26.026      -23.641       -6.335       20.298        8.183        5.592      412.025       66.957       31.269        0.089        0.026       35.161        5.623        0.026      346.295       24.440      861.659
08/17/2014  22:40:00      -63.991      -24.510       -7.526       14.904       13.369       10.534      222.127      178.742      110.973        0.263        0.026       68.524        7.695        0.013      346.296       24.440      861.660
08/17/2014  22:41:00     -110.924      -16.608       -6.769       35.465       33.878       22.678     1257.741     1147.715      514.311        0.777        0.146      112.160       19.609        0.031      345.795       23.581      861.667
08/17/2014  22:42:00      -58.443      -17.399       -2.536       35.195       20.489       14.985     1238.675      419.795      224.559        0.280        0.094       60.978       13.175        0.047      345.881       23.728      861.674
08/17/2014  22:43:00       -2.827       -5.909       -5.278        9.525       10.626        9.681       90.722      112.906       93.723        0.018        0.015        6.551        7.819        1.425      345.982       23.903      861.672
08/17/2014  22:44:00       13.139        5.513       15.986       19.030       44.965       34.342      362.157     2021.859     1179.394        0.201        0.178       14.249       34.844        5.980      345.896       23.756      861.656
08/17/2014  22:45:00       53.778       73.665       78.805       58.587       41.216       33.357     3432.463     1698.726     1112.688        1.039        0.312       91.207       33.917        0.138      345.663       23.356      861.645
08/17/2014  22:46:00       24.216       21.344       37.310       32.514       39.182       22.561     1057.129     1535.223      508.981        0.277        0.155       32.279       23.838        0.545      345.618       23.276      861.671
08/17/2014  22:47:00       37.696      -39.580       12.812       22.452       26.785       19.193      504.088      717.452      368.380        0.237        0.079       54.659       14.058        0.066      345.814       23.613      861.680
08/17/2014  22:48:00      -15.629      -47.978       -6.502       22.544       24.464       14.707      508.220      598.469      216.281        0.196        0.066       50.459       11.678        0.054      345.728       23.466      861.680
08/17/2014  22:49:00      -47.108      -13.921       -6.854       22.310       14.259        9.937      497.726      203.327       98.738        0.163        0.040       49.122        7.480        0.023      345.706       23.427      861.687
08/17/2014  22:50:00     -104.676      -72.071       -9.079       29.097       35.126       17.488      846.627     1233.817      305.840        0.931        0.119      127.088       15.769        0.015      345.915       23.787      861.700
08/17/2014  22:51:00     -116.137     -125.046       -9.433       47.027       42.073       27.488     2211.514     1770.116      755.598        1.697        0.237      170.659       25.348        0.022      346.108       24.117      861.690
08/17/2014  22:52:00     -101.529      -61.209        8.024       49.950       49.739       29.534     2495.031     2473.958      872.261        0.998        0.292      118.552       23.438        0.039      346.066       24.046      861.686
08/17/2014  22:53:00      -68.163      -79.354        4.299       61.471       61.589       27.349     3778.683     3793.263      747.973        0.964        0.416      104.610       32.045        0.094      345.978       23.894      861.693
08/17/2014  22:54:00      -80.949     -100.402        7.059       53.004       55.460       31.845     2809.463     3075.811     1014.113        1.179        0.345      128.970       29.788        0.053      346.081       24.072      861.690
08/17/2014  22:55:00     -110.467     -159.675      -14.254       37.688       39.409       21.994     1420.401     1553.087      483.751        2.068        0.173      194.162       10.651        0.003      346.195       24.266      861.689
08/17/2014  22:56:00      -72.000     -101.576       -4.053       33.264       49.562       23.667     1106.464     2456.368      560.148        0.982        0.206      124.506       24.185        0.038      346.143       24.179      861.706
08/17/2014  22:57:00      -82.938      -73.716       -9.151       54.139       39.432       20.808     2931.000     1554.867      432.986        0.866        0.246      110.963       19.267        0.030      346.153       24.196      861.699
08/17/2014  22:58:00      -61.195      -78.220        8.883       45.940       37.604       26.749     2110.528     1414.091      715.507        0.709        0.212       99.314       28.091        0.080      345.969       23.880      861.699
08/17/2014  22:59:00      -22.713      -73.649        4.121       24.156       29.841       18.481      583.513      890.484      341.541        0.389        0.091       77.072       16.925        0.048      346.033       23.989      861.706
08/17/2014  23:00:00        5.666      -33.504       -2.111       21.766       14.837       14.607      473.776      220.135      213.361        0.103        0.045       33.980        8.421        0.061      346.024       23.976      861.705
08/17/2014  23:01:00       10.964      -23.933       10.776       12.935       22.932        8.018      167.311      525.882       64.286        0.078        0.038       26.325        4.424        0.028      345.867       23.704      861.696
08/17/2014  23:02:00      -11.865      -71.311        2.053       17.792       20.909       12.662      316.554      437.188      160.335        0.307        0.046       72.292        8.987        0.015      346.095       24.096      861.696
08/17/2014  23:03:00      -34.723      -82.447       -2.978       20.177       19.159       11.254      407.112      367.085      126.660        0.446        0.045       89.461        8.563        0.009      346.127       24.149      861.687
08/17/2014  23:04:00      -62.870      -36.543       -7.181       29.206       22.404       13.633      852.998      501.939      185.872        0.344        0.077       72.719       15.506        0.045      345.995       23.925      861.686
08/17/2014  23:05:00      -45.047      -25.367        4.266       25.716       16.017       14.031      661.293      256.542      196.875        0.190        0.056       51.698        8.154        0.025      345.697       23.412      861.695
08/17/2014  23:06:00      -62.133      -34.332        0.149       31.763       17.531       13.635     1008.919      307.335      185.906        0.327        0.075       70.987       11.874        0.028      345.557       23.172      861.698
08/17/2014  23:07:00      -90.768      -42.077      -10.581       25.320       20.905       14.739      641.084      437.016      217.239        0.571        0.065      100.046        6.808        0.005      345.611       23.265      861.693
08/17/2014  23:08:00      -92.075      -48.859       -6.825       23.311       21.767       12.478      543.425      473.801      155.705        0.604        0.059      104.235        5.595        0.003      345.460       23.006      861.696
08/17/2014  23:09:00      -89.197      -35.694       -6.812       23.854       25.981       13.287      569.008      675.036      176.551        0.535        0.071       96.074       11.216        0.014      345.450       22.988      861.694
08/17/2014  23:10:00      -68.263      -10.502        0.282       38.073       18.668       16.144     1449.591      348.483      260.628        0.341        0.103       69.066       15.771        0.052      345.358       22.829      861.687
08/17/2014  23:11:00      -65.730      -24.454       -1.419       21.488       21.139       13.868      461.724      446.855      192.322        0.301        0.055       70.131       12.186        0.030      345.435       22.964      861.671
08/17/2014  23:12:00      -68.600      -36.852       -3.309       20.663       20.031       10.912      426.965      401.242      119.068        0.351        0.047       77.872        9.166        0.014      345.452       22.992      861.664
08/17/2014  23:13:00      -79.349      -19.982       -8.178       13.852       15.169       10.163      191.872      230.112      103.294        0.364        0.026       81.826        6.919        0.007      345.560       23.176      861.656
08/17/2014  23:14:00      -75.603      -25.134       -4.446       15.719       16.958       12.443      247.080      287.577      154.840        0.353        0.034       79.671        8.221        0.011      345.481       23.041      861.639
08/17/2014  23:15:00      -83.031      -28.107       -0.880       27.977       19.627       11.315      782.689      385.203      128.024        0.449        0.065       87.660        6.869        0.006      345.398       22.900      861.631
08/17/2014  23:16:00     -112.126      -15.381       -3.567       43.361       29.062       15.987     1880.170      844.624      255.586        0.790        0.149      113.176       16.864        0.022      345.299       22.730      861.637
08/17/2014  23:17:00      -90.337        8.137       -8.152       35.813       24.562       17.519     1282.568      603.268      306.912        0.524        0.110       90.702       18.884        0.043      345.175       22.517      861.636
08/17/2014  23:18:00      -62.094       28.735       -1.188       34.710       19.351       17.741     1204.766      374.445      314.748        0.329        0.095       68.420       14.973        0.048      345.307       22.744      861.642
08/17/2014  23:19:00      -59.758       58.056      -10.756       21.598       21.595       11.534      466.463      466.331      133.035        0.406        0.053       83.316        7.283        0.008      345.361       22.837      861.663
08/17/2014  23:20:00      -29.980       84.189       -8.975       25.959       14.776       18.366      673.866      218.330      337.308        0.465        0.061       89.367       13.677        0.023      345.688       23.397      861.665
08/17/2014  23:21:00      -46.730       77.517      -23.319       16.162       12.626        7.222      261.196      159.425       52.150        0.460        0.024       90.513        3.782        0.002      345.297       22.726      861.666
08/17/2014  23:22:00      -76.928       29.768      -16.220       17.321       24.434       11.346      300.020      597.028      128.725        0.405        0.051       82.487       11.180        0.018      345.592       23.231      861.679
08/17/2014  23:23:00      -85.532      -31.085      -13.223       24.109       21.614       11.133      581.220      467.165      123.942        0.481        0.059       91.005        7.469        0.007      345.363       22.839      861.671
08/17/2014  23:24:00     -111.745      -25.454      -14.523       17.523       23.696       12.191      307.066      561.518      148.630        0.718        0.051      114.607        9.031        0.006      345.044       22.295      861.665
08/17/2014  23:25:00      -95.650      -17.381       -8.043       17.635       16.015       10.407      310.994      256.496      108.296        0.510        0.034       97.216        6.886        0.005      344.979       22.182      861.654
08/17/2014  23:26:00      -71.672       -7.906        2.177       30.975       20.095       14.086      959.421      403.806      198.416        0.338        0.078       72.107       17.018        0.056      344.916       22.075      861.633
08/17/2014  23:27:00      -86.471      -14.510       -5.957       22.446       22.462       11.871      503.836      504.535      140.923        0.444        0.057       87.680        8.976        0.010      344.943       22.121      861.622
08/17/2014  23:28:00      -42.091      -30.276        1.885       22.926       12.992       10.115      525.599      168.802      102.316        0.174        0.040       51.849        8.865        0.029      345.101       22.390      861.608
08/17/2014  23:29:00      -37.668      -22.049       -4.091       25.360       16.109        9.211      643.152      259.505       84.844        0.145        0.049       43.647        7.085        0.026      345.294       22.720      861.603
08/17/2014  23:30:00      -81.983      -21.876       -4.233       37.189       27.103       17.301     1383.035      734.559      299.336        0.482        0.121       84.851       19.098        0.051      345.017       22.248      861.617
08/17/2014  23:31:00      -29.369      -38.201       13.222       29.139       24.343       19.948      849.100      592.581      397.904        0.217        0.092       48.186       12.872        0.071      344.897       22.043      861.616
08/17/2014  23:32:00      -36.788      -55.726       -2.888       27.369       16.786       16.264      749.070      281.774      264.509        0.288        0.065       66.774       12.495        0.035      345.103       22.396      861.617
08/17/2014  23:33:00      -60.408      -41.435        2.004       37.692       25.231       15.119     1420.677      636.585      228.581        0.383        0.114       73.253       19.049        0.068      345.169       22.508      861.609
08/17/2014  23:34:00      -35.479      -13.213       -5.238       25.445       11.880        8.942      647.457      141.127       79.968        0.116        0.043       37.860        8.457        0.050      345.221       22.596      861.583
08/17/2014  23:35:00      -47.859      -14.059       -7.955       18.783       15.952        8.736      352.813      254.456       76.326        0.162        0.034       49.881        7.343        0.022      345.216       22.588      861.579
08/17/2014  23:36:00        4.220      -18.647      -11.239       35.768       16.330        9.962     1279.329      266.675       99.235        0.107        0.082       19.119       10.969        0.329      345.204       22.567      861.561
08/17/2014  23:37:00       27.021       26.990        0.536       19.959        8.832        7.852      398.357       78.005       61.651        0.100        0.027       38.191        5.242        0.019      345.126       22.433      861.540
08/17/2014  23:38:00      -36.620        9.938       -2.671       16.432        9.354        5.655      270.010       87.498       31.976        0.092        0.019       37.944        4.687        0.015      345.066       22.333      861.560
08/17/2014  23:39:00       21.428      -56.665       -7.466       22.333       28.724       10.506      498.759      825.045      110.380        0.258        0.072       60.581       13.751        0.052      345.078       22.353      861.567
08/17/2014  23:40:00       47.317      -95.519      -19.390       36.083       19.414       14.096     1301.975      376.901      198.704        0.681        0.094      106.596       16.115        0.023      345.120       22.425      861.564
08/17/2014  23:41:00      -40.529      -48.727       -5.851       23.927       26.882       16.954      572.514      722.645      287.440        0.282        0.079       63.379       17.173        0.073      345.086       22.366      861.589
08/17/2014  23:42:00      -24.463       -9.722       -2.893       38.258       12.503        9.694     1463.685      156.334       93.975        0.121        0.086       26.324       12.574        0.228      345.112       22.412      861.590
08/17/2014  23:43:00       13.827      -25.627       -2.974       11.064       19.471       10.207      122.402      379.109      104.175        0.073        0.030       29.119       10.351        0.126      345.193       22.549      861.583
08/17/2014  23:44:00        1.832      -14.330       -7.833       12.708        8.981        5.749      161.500       80.660       33.047        0.027        0.014       14.447        7.760        0.289      345.116       22.416      861.597
08/17/2014  23:45:00      -37.161      -24.153        1.466       16.458        8.175       11.875      270.868       66.824      141.018        0.122        0.024       44.321        9.932        0.050      345.160       22.491      861.611
08/17/2014  23:46:00       -4.060      -30.042       -1.947       20.597       19.984       12.642      424.219      399.345      159.823        0.095        0.049       30.315       12.564        0.172      344.936       22.107      861.618
08/17/2014  23:47:00        6.938      -49.914       -9.663       11.120       20.726       10.573      123.663      429.566      111.792        0.165        0.033       50.394       10.021        0.040      345.075       22.346      861.612
08/17/2014  23:48:00        7.510       -7.398       24.224       22.579       34.478       17.437      509.792     1188.733      304.050        0.135        0.100       10.542        9.245        0.769      344.993       22.206      861.604
08/17/2014  23:49:00       -0.361       24.636       38.284       16.493       21.032       11.579      272.029      442.328      134.083        0.146        0.042       24.639        9.127        0.137      344.678       21.667      861.597
08/17/2014  23:50:00       -2.939       18.690       32.457        7.500       13.531        9.567       56.246      183.089       91.531        0.087        0.017       18.920        9.094        0.231      344.690       21.690      861.596
08/17/2014  23:51:00        2.518      -28.837        4.560       12.912       19.165        7.923      166.729      367.290       62.779        0.073        0.030       28.946        7.964        0.076      344.907       22.061      861.602
08/17/2014  23:52:00       17.850      -41.816       -3.049       14.140       12.586       10.444      199.939      158.406      109.081        0.127        0.023       45.467        6.353        0.020      345.331       22.784      861.596
08/17/2014  23:53:00       22.476        5.302       13.280       15.721       26.090       12.104      247.163      680.696      146.513        0.089        0.054       23.093       11.680        0.256      345.132       22.443      861.580
08/17/2014  23:54:00       64.563       32.436       15.036       22.890       21.331       18.010      523.955      454.992      324.366        0.337        0.065       72.253       11.541        0.026      345.017       22.246      861.573
08/17/2014  23:55:00       44.077       22.678       29.367       28.851       24.467       18.855      832.363      598.614      355.520        0.255        0.089       49.569       17.096        0.119      344.958       22.145      861.564
08/17/2014  23:56:00       -6.772      -25.896        5.523       34.560       26.632       19.274     1194.402      709.279      371.477        0.151        0.114       26.767       19.657        0.539      345.005       22.228      861.554
08/17/2014  23:57:00      -90.865      -58.050       -8.863       42.338       29.132       20.357     1792.542      848.652      414.406        0.738        0.153      107.825       21.952        0.041      344.948       22.130      861.583
08/17/2014  23:58:00      -93.483      -47.055       -7.558       19.279       34.607       14.485      371.686     1197.673      209.820        0.639        0.089      104.657        8.450        0.007      344.982       22.187      861.603
08/17/2014  23:59:00     -107.832      -28.578       -9.358       24.217       26.662        9.810      586.472      710.860       96.230        0.696        0.070      111.555        8.081        0.005      344.688       21.682      861.605
